[[{"header":{"parameterUnit":"m.s-1","parameterCategory":1,"la1":30.6,"la2":29.2853,"lo1":-89.7004,"lo2":-87.6739,"dy":0.0162,"dx":0.0183,"nx":112,"ny":82,"refTime":"2024-03-20T00:00:00:Z","depth":0,"parameterNumber":2,"parameterNumberName":"U-component_of_WINDS"},"data":[0.0,0.0,0.0,0.0,0.0,0.0,0.0,0.0,0.0,0.0,0.0,0.0,0.0,0.0,0.0,0.0,0.0,0.0,0.0,0.0,0.0,0.0,0.0,0.0,0.0,0.0,0.0,0.0,0.0,0.0,0.0,0.0,0.0,0.0,0.0,0.0,0.0,0.0,0.0,0.0,0.0,0.0,0.0,0.0,0.0,0.0,0.0,0.0,0.0,0.0,0.0,0.0,0.0,0.0,0.0,0.0,0.0,0.0,0.0,0.0,0.0,0.0,0.0,0.0,0.0,0.0,0.0,0.0,0.0,0.0,0.0,0.0,0.0,0.0,0.0,0.0,0.0,0.0,0.0,0.0,0.0,0.0,0.0,0.0,0.0,0.0,0.0,0.0,0.0,0.0,4.2335,4.4011,4.4857,4.5283,4.5283,4.5927,4.5316,4.2947,0.0,0.0,0.0,0.0,0.0,0.0,0.0,0.0,0.0,0.0,0.0,0.0,0.0,0.0,0.0,0.0,0.0,0.0,0.0,0.0,0.0,0.0,0.0,0.0,0.0,0.0,0.0,0.0,0.0,0.0,0.0,0.0,0.0,0.0,0.0,0.0,0.0,0.0,0.0,0.0,0.0,0.0,0.0,0.0,0.0,0.0,0.0,0.0,0.0,0.0,0.0,0.0,0.0,0.0,0.0,0.0,0.0,0.0,0.0,0.0,0.0,0.0,0.0,0.0,0.0,0.0,0.0,0.0,0.0,0.0,0.0,0.0,0.0,0.0,0.0,0.0,0.0,0.0,0.0,0.0,0.0,0.0,0.0,0.0,0.0,0.0,0.0,0.0,0.0,0.0,0.0,0.0,0.0,0.0,0.0,0.0,0.0,0.0,0.0,0.0,0.0,0.0,0.0,0.0,4.3252,4.4939,4.5206,4.5283,4.5283,4.5397,4.4709,4.2908,0.0,0.0,0.0,0.0,0.0,0.0,0.0,0.0,0.0,0.0,0.0,0.0,0.0,0.0,0.0,0.0,0.0,0.0,0.0,0.0,0.0,0.0,0.0,0.0,0.0,0.0,0.0,0.0,0.0,0.0,0.0,0.0,0.0,0.0,0.0,0.0,0.0,0.0,0.0,0.0,0.0,0.0,0.0,0.0,0.0,0.0,0.0,0.0,0.0,0.0,0.0,0.0,0.0,0.0,0.0,0.0,0.0,0.0,0.0,0.0,0.0,0.0,0.0,0.0,0.0,0.0,0.0,0.0,0.0,0.0,0.0,0.0,0.0,0.0,0.0,0.0,0.0,0.0,0.0,0.0,0.0,0.0,0.0,0.0,0.0,0.0,0.0,0.0,0.0,0.0,0.0,0.0,0.0,0.0,0.0,0.0,0.0,0.0,0.0,0.0,0.0,0.0,0.0,4.3515,4.5086,4.5851,4.6385,4.6653,4.6653,4.6653,4.5927,4.4251,4.5277,0.0,0.0,0.0,0.0,0.0,0.0,0.0,0.0,0.0,0.0,0.0,0.0,0.0,0.0,0.0,0.0,0.0,0.0,0.0,0.0,0.0,0.0,0.0,0.0,0.0,0.0,0.0,0.0,0.0,0.0,0.0,0.0,0.0,0.0,0.0,0.0,0.0,0.0,0.0,0.0,0.0,0.0,0.0,0.0,0.0,0.0,0.0,0.0,0.0,0.0,0.0,0.0,0.0,0.0,0.0,0.0,0.0,0.0,0.0,0.0,0.0,0.0,0.0,0.0,0.0,0.0,0.0,0.0,0.0,0.0,0.0,0.0,0.0,0.0,0.0,0.0,0.0,0.0,0.0,0.0,0.0,0.0,0.0,0.0,0.0,0.0,0.0,0.0,0.0,0.0,0.0,0.0,0.0,0.0,0.0,0.0,0.0,0.0,0.0,0.0,0.0,0.0,4.5081,4.6571,4.6762,4.7412,4.7794,4.7794,4.7794,4.7068,4.5397,4.5889,0.0,0.0,0.0,0.0,0.0,0.0,0.0,0.0,0.0,0.0,0.0,0.0,0.0,0.0,0.0,0.0,0.0,0.0,0.0,0.0,0.0,0.0,0.0,0.0,0.0,0.0,0.0,0.0,0.0,0.0,0.0,0.0,0.0,0.0,0.0,0.0,0.0,0.0,0.0,0.0,0.0,0.0,0.0,0.0,0.0,0.0,0.0,0.0,0.0,0.0,0.0,0.0,0.0,0.0,0.0,0.0,0.0,0.0,0.0,0.0,0.0,0.0,0.0,0.0,0.0,0.0,0.0,0.0,0.0,0.0,0.0,0.0,0.0,0.0,0.0,0.0,0.0,0.0,0.0,0.0,0.0,0.0,0.0,0.0,0.0,0.0,0.0,0.0,0.0,0.0,0.0,0.0,0.0,0.0,0.0,0.0,0.0,0.0,0.0,0.0,0.0,0.0,4.5425,4.68,4.7641,4.7755,4.7794,4.7794,4.7794,4.7068,4.5397,4.5359,0.0,0.0,0.0,0.0,0.0,0.0,0.0,0.0,0.0,0.0,0.0,0.0,0.0,0.0,0.0,0.0,0.0,0.0,0.0,0.0,0.0,0.0,0.0,0.0,0.0,0.0,0.0,0.0,0.0,0.0,0.0,0.0,0.0,0.0,0.0,0.0,0.0,0.0,0.0,0.0,0.0,0.0,0.0,0.0,0.0,0.0,0.0,0.0,0.0,0.0,0.0,0.0,0.0,0.0,0.0,0.0,0.0,0.0,0.0,0.0,0.0,0.0,0.0,0.0,0.0,0.0,0.0,0.0,0.0,0.0,0.0,0.0,0.0,0.0,0.0,0.0,0.0,0.0,0.0,0.0,0.0,0.0,0.0,0.0,0.0,0.0,0.0,0.0,0.0,0.0,0.0,0.0,0.0,0.0,0.0,0.0,0.0,0.0,0.0,0.0,0.0,0.0,4.6424,4.8263,0.0,4.906,4.9589,5.0124,5.0162,4.9436,4.7767,0.0,0.0,0.0,0.0,0.0,0.0,0.0,0.0,0.0,0.0,0.0,0.0,0.0,0.0,0.0,0.0,0.0,0.0,0.0,0.0,0.0,0.0,0.0,0.0,0.0,0.0,0.0,0.0,0.0,0.0,0.0,0.0,0.0,0.0,0.0,0.0,0.0,0.0,0.0,0.0,0.0,0.0,0.0,0.0,0.0,0.0,0.0,0.0,0.0,0.0,0.0,0.0,0.0,0.0,0.0,0.0,0.0,0.0,0.0,0.0,0.0,0.0,0.0,0.0,0.0,0.0,0.0,0.0,0.0,0.0,0.0,0.0,0.0,0.0,0.0,0.0,0.0,0.0,0.0,0.0,0.0,0.0,0.0,0.0,0.0,0.0,0.0,0.0,0.0,0.0,0.0,0.0,0.0,0.0,0.0,0.0,0.0,0.0,0.0,0.0,0.0,0.0,4.477,4.7799,4.9786,0.0,4.9977,5.0544,5.1156,5.1423,5.0774,4.8798,0.0,0.0,0.0,0.0,0.0,0.0,0.0,0.0,0.0,0.0,0.0,0.0,0.0,0.0,0.0,0.0,0.0,0.0,0.0,0.0,0.0,0.0,0.0,0.0,0.0,0.0,0.0,0.0,0.0,0.0,0.0,0.0,0.0,0.0,0.0,0.0,0.0,0.0,0.0,0.0,0.0,0.0,0.0,0.0,0.0,0.0,0.0,0.0,0.0,0.0,0.0,0.0,0.0,0.0,0.0,0.0,0.0,0.0,0.0,0.0,0.0,0.0,0.0,0.0,0.0,0.0,0.0,0.0,0.0,0.0,0.0,0.0,0.0,0.0,0.0,0.0,0.0,0.0,0.0,0.0,0.0,0.0,0.0,0.0,0.0,0.0,0.0,0.0,0.0,0.0,0.0,0.0,0.0,0.0,0.0,0.0,0.0,0.0,0.0,0.0,0.0,0.0,4.6495,4.9475,5.127,5.0397,5.0321,5.0321,5.0321,5.1117,5.0506,0.0,0.0,0.0,0.0,0.0,0.0,0.0,0.0,0.0,0.0,0.0,0.0,0.0,0.0,0.0,0.0,0.0,0.0,0.0,0.0,0.0,0.0,0.0,0.0,0.0,0.0,0.0,0.0,0.0,0.0,0.0,0.0,0.0,0.0,0.0,0.0,0.0,0.0,0.0,0.0,0.0,0.0,0.0,0.0,0.0,0.0,0.0,0.0,0.0,0.0,0.0,0.0,0.0,0.0,0.0,0.0,0.0,0.0,0.0,0.0,0.0,0.0,0.0,0.0,0.0,0.0,0.0,0.0,0.0,0.0,0.0,0.0,0.0,0.0,0.0,0.0,0.0,0.0,0.0,0.0,0.0,0.0,0.0,0.0,0.0,0.0,0.0,0.0,0.0,0.0,0.0,0.0,0.0,0.0,0.0,0.0,0.0,0.0,0.0,0.0,0.0,0.0,0.0,4.6495,4.894,5.0812,5.1194,5.0665,5.0779,5.1964,5.1773,5.0774,4.8831,0.0,0.0,0.0,0.0,0.0,0.0,0.0,0.0,0.0,0.0,0.0,0.0,0.0,0.0,0.0,0.0,0.0,0.0,0.0,0.0,0.0,0.0,0.0,0.0,0.0,0.0,0.0,0.0,0.0,0.0,0.0,0.0,0.0,0.0,0.0,0.0,0.0,0.0,0.0,0.0,0.0,0.0,0.0,0.0,0.0,0.0,0.0,0.0,0.0,0.0,0.0,0.0,0.0,0.0,0.0,0.0,0.0,0.0,0.0,0.0,0.0,0.0,0.0,0.0,0.0,0.0,0.0,0.0,0.0,0.0,0.0,0.0,0.0,0.0,0.0,0.0,0.0,0.0,0.0,0.0,0.0,0.0,0.0,0.0,0.0,0.0,0.0,0.0,0.0,0.0,0.0,0.0,0.0,0.0,0.0,0.0,0.0,0.0,0.0,0.0,0.0,0.0,4.7494,4.9748,5.1391,5.1576,5.1117,5.1238,5.2231,5.2155,5.1329,4.9601,0.0,0.0,0.0,0.0,0.0,0.0,0.0,0.0,0.0,0.0,0.0,0.0,0.0,0.0,0.0,0.0,0.0,0.0,0.0,0.0,0.0,0.0,0.0,0.0,0.0,0.0,0.0,0.0,0.0,0.0,0.0,0.0,0.0,0.0,0.0,0.0,0.0,0.0,0.0,0.0,0.0,0.0,0.0,0.0,0.0,0.0,0.0,0.0,0.0,0.0,0.0,0.0,0.0,0.0,0.0,0.0,0.0,0.0,0.0,0.0,0.0,0.0,0.0,0.0,0.0,0.0,0.0,0.0,0.0,0.0,0.0,0.0,0.0,0.0,0.0,0.0,0.0,0.0,0.0,0.0,0.0,0.0,0.0,0.0,0.0,0.0,0.0,0.0,0.0,0.0,0.0,0.0,0.0,0.0,0.0,0.0,0.0,0.0,0.0,0.0,0.0,0.0,4.8858,5.1061,5.2316,5.1731,5.1616,5.1616,5.1769,5.2386,5.2037,5.0317,0.0,0.0,0.0,0.0,0.0,0.0,0.0,0.0,0.0,0.0,0.0,0.0,0.0,0.0,0.0,0.0,0.0,0.0,0.0,0.0,0.0,0.0,0.0,0.0,0.0,0.0,0.0,0.0,0.0,0.0,0.0,0.0,0.0,0.0,0.0,0.0,0.0,0.0,0.0,0.0,0.0,0.0,0.0,0.0,0.0,0.0,0.0,0.0,0.0,0.0,0.0,0.0,0.0,0.0,0.0,0.0,0.0,0.0,0.0,0.0,4.2429,0.0,0.0,0.0,0.0,0.0,0.0,0.0,0.0,0.0,0.0,0.0,0.0,0.0,0.0,0.0,0.0,0.0,0.0,0.0,0.0,0.0,0.0,0.0,0.0,0.0,0.0,0.0,0.0,0.0,0.0,0.0,0.0,0.0,0.0,0.0,0.0,0.0,0.0,0.0,0.0,0.0,4.7885,4.9436,5.0967,5.2123,5.163,5.1744,5.3072,5.2738,5.2088,5.1103,5.1243,0.0,0.0,0.0,0.0,0.0,0.0,0.0,0.0,0.0,0.0,0.0,0.0,0.0,0.0,0.0,0.0,0.0,0.0,0.0,0.0,0.0,0.0,0.0,0.0,0.0,0.0,0.0,0.0,0.0,0.0,0.0,0.0,0.0,0.0,0.0,0.0,0.0,0.0,0.0,0.0,0.0,0.0,0.0,0.0,0.0,0.0,0.0,0.0,0.0,0.0,0.0,0.0,0.0,0.0,0.0,0.0,0.0,0.0,0.0,0.0,4.2619,0.0,0.0,0.0,0.0,0.0,0.0,0.0,0.0,0.0,0.0,0.0,0.0,0.0,0.0,0.0,0.0,0.0,0.0,0.0,0.0,0.0,0.0,0.0,0.0,0.0,0.0,0.0,0.0,0.0,0.0,0.0,0.0,0.0,0.0,0.0,0.0,0.0,0.0,0.0,0.0,4.8706,5.0149,5.1585,5.2828,5.2563,5.2639,5.3548,5.3207,5.279,5.2343,5.2368,0.0,0.0,0.0,0.0,0.0,0.0,0.0,0.0,0.0,0.0,0.0,0.0,0.0,0.0,0.0,0.0,0.0,0.0,0.0,0.0,0.0,0.0,0.0,0.0,0.0,0.0,0.0,0.0,0.0,0.0,0.0,0.0,0.0,0.0,0.0,0.0,0.0,0.0,0.0,0.0,0.0,0.0,0.0,0.0,0.0,0.0,0.0,0.0,0.0,0.0,0.0,0.0,0.0,4.2691,4.2832,4.1607,4.303,4.3295,4.2736,4.3713,4.4008,4.3684,4.2537,0.0,0.0,0.0,0.0,0.0,0.0,0.0,0.0,0.0,0.0,0.0,0.0,0.0,0.0,0.0,0.0,0.0,0.0,0.0,0.0,0.0,0.0,0.0,0.0,4.6059,4.4792,0.0,0.0,0.0,0.0,0.0,0.0,0.0,0.0,0.0,0.0,0.0,0.0,4.9619,5.1275,5.2635,5.3429,5.3543,5.3581,5.3732,5.3732,5.3687,5.3624,5.3702,5.3102,0.0,0.0,0.0,0.0,0.0,0.0,0.0,0.0,0.0,0.0,0.0,0.0,0.0,0.0,0.0,0.0,0.0,0.0,0.0,0.0,0.0,0.0,0.0,0.0,0.0,0.0,0.0,0.0,0.0,0.0,0.0,0.0,3.4576,3.6863,0.0,0.0,0.0,0.0,0.0,0.0,0.0,0.0,0.0,0.0,0.0,0.0,0.0,4.141,4.2099,4.3591,4.4277,4.4205,4.5705,4.6326,4.6148,4.6546,4.6669,4.65,4.5546,0.0,4.5534,4.5278,0.0,0.0,0.0,0.0,0.0,0.0,0.0,0.0,0.0,0.0,0.0,0.0,0.0,0.0,0.0,0.0,0.0,0.0,0.0,0.0,0.0,0.0,4.6649,4.695,4.6304,4.5958,0.0,4.6008,4.4586,4.4586,4.4674,0.0,0.0,0.0,0.0,0.0,0.0,0.0,4.8624,5.0583,5.2296,5.3177,5.3252,5.3545,5.4251,5.4288,5.4346,5.4446,5.447,5.4095,5.3314,5.4351,0.0,0.0,0.0,0.0,0.0,0.0,0.0,0.0,0.0,0.0,0.0,0.0,0.0,0.0,0.0,0.0,0.0,0.0,0.0,0.0,0.0,0.0,0.0,0.0,0.0,0.0,0.0,0.0,0.0,3.4897,3.6283,3.747,3.748,3.7128,0.0,0.0,0.0,0.0,0.0,0.0,0.0,0.0,0.0,4.2444,4.2956,4.3349,4.3664,4.5167,4.5905,4.594,4.6776,4.7165,4.7176,4.7407,4.7504,4.7478,4.6887,4.6751,4.6812,4.5823,4.5764,4.6136,0.0,0.0,0.0,0.0,4.2277,4.2872,4.2932,4.3974,0.0,4.5649,0.0,0.0,0.0,0.0,0.0,0.0,0.0,0.0,0.0,0.0,4.7386,4.845,4.8377,4.831,4.9057,4.8117,4.69,0.0,4.6206,4.5936,4.5066,0.0,0.0,0.0,0.0,5.0219,5.1104,5.2433,5.3808,5.5131,5.5281,5.5431,5.5761,5.5798,5.5833,5.5881,5.5881,5.5856,5.5739,5.5663,5.4976,0.0,0.0,0.0,0.0,0.0,0.0,0.0,0.0,0.0,0.0,0.0,0.0,0.0,0.0,0.0,0.0,0.0,0.0,0.0,0.0,0.0,0.0,0.0,0.0,0.0,0.0,0.0,0.0,3.6692,3.7661,3.8396,3.8754,3.8762,0.0,0.0,0.0,0.0,0.0,0.0,4.2418,4.2133,4.2414,4.344,4.453,4.5189,4.5335,4.6447,4.711,4.7287,4.7487,4.7602,4.7602,4.7875,4.8055,4.8121,4.8186,4.8251,4.8196,4.6483,4.6038,4.6406,4.5854,4.5138,4.4358,4.3833,4.3877,4.4237,4.4203,4.5261,4.6713,4.6849,0.0,4.6637,4.6328,0.0,0.0,0.0,0.0,4.5267,4.6742,4.7596,4.8429,4.9823,5.0139,5.0139,5.0139,4.951,4.8727,0.0,4.7851,4.7434,4.6393,0.0,0.0,0.0,0.0,5.1874,5.3299,5.438,5.5535,5.6783,5.6887,5.6887,5.6887,5.6887,5.6887,5.6887,5.6887,5.7019,5.7249,5.6628,5.6156,5.5833,0.0,0.0,0.0,0.0,0.0,0.0,0.0,0.0,0.0,0.0,0.0,0.0,0.0,0.0,0.0,0.0,0.0,0.0,0.0,0.0,0.0,0.0,0.0,0.0,0.0,0.0,0.0,0.0,0.0,4.0557,4.075,0.0,0.0,0.0,0.0,3.9727,4.1063,4.2232,4.3033,4.3767,4.4818,4.6342,4.6472,4.6861,4.7616,4.7565,4.7927,4.8607,4.8505,4.8454,4.8467,4.8733,4.898,4.9246,4.9493,4.9744,4.9847,4.8232,4.7802,4.8039,4.6406,4.5935,4.5939,4.4107,4.4362,4.5691,4.5755,4.6773,4.8055,4.8448,4.757,4.612,4.4885,4.4184,0.0,0.0,4.5547,4.6948,4.692,4.8663,5.0445,5.0562,5.0552,5.0552,5.0552,4.9881,4.9375,0.0,4.9596,4.9463,4.9703,0.0,5.0067,4.9875,5.144,5.2881,5.36,5.55,5.6821,5.6887,5.6887,5.6887,5.6887,5.6887,5.6887,5.6887,5.6887,5.6896,5.6922,5.7012,5.7029,5.7008,5.6474,0.0,0.0,0.0,0.0,0.0,0.0,0.0,0.0,0.0,0.0,0.0,0.0,0.0,0.0,0.0,0.0,0.0,0.0,0.0,0.0,0.0,0.0,0.0,0.0,0.0,0.0,0.0,0.0,4.1548,4.158,0.0,4.2342,4.2295,4.2347,4.2646,4.3638,4.4548,4.5303,4.6106,4.6802,4.7333,4.7829,4.8169,4.8388,4.8363,4.8491,4.8773,4.8851,4.8939,4.9025,4.9293,4.9472,4.9554,4.9554,4.974,4.9931,4.9275,4.9177,4.9383,4.878,4.8316,4.7879,4.7209,4.6977,4.7023,4.7054,4.7397,4.7963,4.8835,4.8646,4.8151,4.8429,4.8172,4.7875,4.8228,4.8634,4.9018,4.9242,4.9925,5.0633,5.086,5.0929,5.0929,5.0929,5.0675,5.0682,5.1353,5.0341,4.9584,5.0215,5.1259,5.1979,5.1879,5.3322,5.4691,5.5486,5.6224,5.7046,5.7896,5.8,5.8107,5.8408,5.8427,5.8427,5.8427,5.8427,5.8481,5.8643,5.8079,5.7645,5.7289,5.7004,5.5776,0.0,0.0,0.0,0.0,0.0,0.0,0.0,0.0,0.0,0.0,0.0,0.0,0.0,0.0,0.0,0.0,0.0,0.0,0.0,0.0,0.0,0.0,0.0,0.0,0.0,0.0,4.0278,4.1949,4.2369,4.2895,4.3873,4.3856,4.4129,4.5008,4.5857,4.6531,4.6991,4.7758,4.8158,4.8121,4.8616,4.9036,4.9446,4.9523,4.9805,5.0295,5.0429,5.0545,5.0634,5.0823,5.0769,5.0628,5.0792,5.0951,5.1068,5.1238,5.1464,5.1622,5.0535,4.9775,4.9293,4.9293,4.8967,4.8496,4.8496,4.8496,4.8637,4.9331,4.9315,4.917,5.0038,4.9773,4.9231,4.9637,4.9637,4.9625,5.0173,5.071,5.1217,5.17,5.2064,5.2233,5.2185,5.1752,5.1669,5.269,5.162,5.067,5.1051,5.2083,5.2733,5.2569,5.3372,5.4349,5.5273,5.5893,5.6551,5.7466,5.8042,5.8482,5.8808,5.8444,5.8446,5.9017,5.869,5.8782,5.9472,5.8655,5.8055,5.7705,5.6865,5.5549,5.3781,0.0,0.0,0.0,0.0,0.0,0.0,0.0,0.0,0.0,0.0,0.0,0.0,0.0,0.0,0.0,0.0,0.0,0.0,0.0,0.0,0.0,0.0,0.0,3.7719,4.0162,4.192,4.2001,4.3145,4.4331,4.527,4.5388,4.5717,4.6625,4.7524,4.7985,4.7829,4.8525,4.8899,4.8821,4.8892,4.9555,5.0922,5.1078,5.1866,5.3218,5.3218,5.3218,5.3218,5.3218,5.2936,5.2475,5.3267,5.3482,5.3384,5.409,5.4577,5.4569,5.1466,5.0245,5.0209,5.0209,5.0173,5.0137,5.0064,5.0064,5.0101,5.0137,4.9619,4.9031,4.9395,4.8639,4.7749,4.8148,4.8462,4.8866,4.9657,5.1023,5.2366,5.3157,5.3948,5.445,5.4346,5.3066,5.2384,5.3755,5.3507,5.2941,5.2551,5.2481,5.2341,5.2003,5.1683,0.0,5.2946,5.4535,5.557,5.5603,5.6955,5.7886,5.7994,5.6853,5.6888,5.8506,5.7576,5.7676,5.9253,5.8621,5.8258,5.8336,5.61,5.5337,5.6141,0.0,0.0,0.0,0.0,0.0,0.0,0.0,0.0,0.0,0.0,0.0,0.0,0.0,0.0,0.0,0.0,0.0,0.0,0.0,0.0,0.0,3.9951,4.0852,4.0846,4.1407,4.2491,4.4231,4.4624,4.5375,4.6978,4.7096,4.7439,4.8218,4.8503,4.8608,4.8519,4.9123,4.9468,4.9442,5.0625,5.1408,5.1667,5.2416,5.2964,5.3345,5.3345,5.3415,5.3476,5.3476,5.3411,5.3267,5.3406,5.3534,5.3677,5.3762,5.4083,5.4456,5.3821,5.3204,5.2697,5.2697,5.1984,5.0716,4.8967,4.9122,5.0209,5.0789,5.0758,5.0618,5.1296,5.1593,5.1718,5.1847,5.2342,5.2905,5.3121,5.3517,5.3912,5.4128,5.4268,5.4358,5.432,5.3836,5.371,5.467,5.4701,5.4568,5.444,5.4414,5.4609,5.5061,5.5056,0.0,5.541,5.588,5.668,5.7962,5.7409,5.7752,5.9689,5.8454,5.7997,5.9055,5.8822,5.884,5.929,5.913,5.8998,5.9025,5.6782,5.6004,0.0,0.0,0.0,0.0,0.0,0.0,0.0,0.0,0.0,0.0,0.0,0.0,0.0,0.0,0.0,0.0,0.0,0.0,0.0,0.0,0.0,0.0,4.1365,4.28,4.3396,4.3348,4.3894,4.5635,4.5719,4.631,4.806,4.7904,4.8029,4.8791,4.944,4.979,4.9761,5.0704,5.1108,5.077,5.2034,5.2641,5.2488,5.3401,5.3993,5.4288,5.4288,5.431,5.4395,5.4395,5.4218,5.3901,5.4155,5.4247,5.424,5.4477,5.4897,0.0,0.0,0.0,0.0,0.0,5.3603,5.2625,5.1212,5.1321,5.219,5.2661,5.2542,5.2291,5.2725,5.2461,5.1945,5.1945,5.1789,5.1897,5.2919,5.3424,5.3893,5.4903,5.5309,5.5497,5.5433,5.5017,5.5007,5.6098,5.571,0.0,5.6097,5.5384,5.4687,5.4694,5.4551,5.4499,5.4671,5.5397,5.6295,5.7361,5.7773,5.8615,6.0169,5.8973,0.0,0.0,0.0,5.9083,5.9383,5.9044,0.0,0.0,0.0,5.6275,5.6998,0.0,0.0,0.0,5.5404,5.4776,0.0,0.0,0.0,0.0,0.0,0.0,0.0,0.0,0.0,0.0,0.0,0.0,0.0,0.0,0.0,0.0,4.2604,4.4012,4.5341,4.547,4.5703,4.642,4.6465,4.7055,4.863,4.8153,4.8072,4.8894,5.0391,5.1249,5.1249,0.0,0.0,0.0,0.0,5.3352,5.331,5.4183,5.4907,5.5493,5.5493,5.5528,5.5633,5.5633,5.5282,5.4735,5.5352,5.5387,5.5058,5.5631,5.6182,5.6589,5.5243,5.4915,5.5124,5.487,5.4858,5.4979,5.4725,0.0,0.0,5.4894,5.4436,5.3856,5.3856,5.2419,5.0753,5.0753,4.98,4.9246,5.1405,5.2491,5.353,5.5643,5.6754,5.7282,5.7155,5.6557,5.6377,5.7693,5.6711,5.6102,5.7495,5.5825,5.3943,5.3027,5.2662,5.2657,5.3111,5.4753,5.591,5.6085,0.0,0.0,6.0318,5.925,5.941,6.1471,5.9941,5.9163,5.9739,5.9075,5.7983,5.6521,5.6447,5.6706,5.73,5.7234,5.7901,5.9224,5.653,5.5737,0.0,0.0,0.0,0.0,0.0,0.0,0.0,0.0,0.0,0.0,0.0,0.0,0.0,0.0,0.0,4.3285,4.4384,4.5388,4.6105,4.6134,4.6374,4.7126,4.6811,4.713,4.8584,4.8728,4.9059,4.9887,5.1257,5.2056,5.2056,5.2265,5.2561,5.2987,5.3231,5.357,5.4068,5.489,5.5382,5.5493,0.0,0.0,5.6385,5.6385,5.6666,5.7087,5.6596,5.6345,5.6229,5.5757,5.5764,5.6104,5.6531,5.6716,5.6536,5.4617,5.4725,5.5534,5.3603,5.382,5.4894,5.4894,5.4786,5.4689,5.4689,5.4762,0.0,5.4846,5.5088,5.5486,5.5921,5.6174,5.6391,5.6862,5.7497,5.7998,5.7972,5.825,5.8574,5.887,5.8663,5.8501,5.8677,5.7193,5.6089,5.6519,5.7009,5.761,5.8329,5.9331,6.0368,6.1473,6.0918,6.1191,6.2894,6.1586,6.1163,6.2313,6.1803,6.1433,6.1375,6.1215,6.0952,6.0633,6.0013,5.9731,5.9882,5.9178,5.899,5.929,5.8716,5.8606,0.0,0.0,0.0,0.0,0.0,0.0,0.0,0.0,0.0,0.0,0.0,4.1154,4.0652,0.0,4.3144,4.298,4.4349,4.5474,4.5739,4.5963,4.645,4.7444,4.6944,4.7301,4.9251,4.9175,4.946,5.0631,5.1647,5.2423,5.2796,5.2735,5.2863,5.3257,5.3648,5.3821,5.3793,5.5309,5.6069,5.6069,5.6455,5.6842,5.7193,5.7193,5.7438,5.779,5.7368,5.7193,5.7173,5.6936,5.6908,5.7112,5.7719,5.7482,5.6659,5.5635,5.5757,5.6252,5.522,5.5377,5.6066,5.6066,5.6066,5.6066,5.6066,5.5776,5.545,5.545,5.545,5.5631,5.6391,5.6911,5.7406,5.8202,5.8658,5.8895,5.8895,5.9439,5.9907,5.9907,6.0176,6.0358,6.0288,5.9586,5.8936,5.8766,5.9416,6.0044,6.0451,6.12,6.1977,6.2644,6.263,6.3041,6.4115,6.355,6.3236,6.3397,6.2917,6.2651,6.2614,6.2101,6.1816,6.1816,6.1393,6.1205,6.1205,6.0755,6.0529,6.0529,6.0529,6.0172,0.0,0.0,0.0,0.0,0.0,0.0,0.0,3.9481,4.0031,4.0412,4.1204,4.1529,4.0536,4.1893,4.3036,4.2578,4.4028,4.5261,4.5351,4.5648,4.6323,4.7523,4.7045,4.7506,4.9772,4.9477,4.9657,5.0875,5.1748,5.2485,5.3072,5.3093,5.3244,5.3516,5.3827,5.3914,5.3739,5.551,5.6484,5.6609,5.7412,5.7895,5.8035,5.8035,5.8105,5.8246,5.8105,5.793,5.7805,5.8028,5.8133,5.8148,5.8399,5.7769,5.6708,5.7065,5.7191,5.727,5.7492,5.7608,5.7659,5.7659,5.7659,5.7659,5.7659,5.679,5.58,5.58,5.5341,5.5124,5.6391,5.7188,5.7985,5.9289,5.971,5.9868,6.0036,6.0607,6.114,6.1321,6.1778,6.209,6.1903,6.199,6.171,6.0589,6.1102,6.1658,6.1771,6.2485,6.3,6.3,6.4091,6.4824,6.4824,6.4982,6.4881,6.4391,6.3776,6.3455,6.3565,6.2732,6.2304,6.2304,6.2144,6.2031,6.2031,6.1881,6.1816,6.1816,6.1816,6.1093,3.3054,3.2409,3.2901,3.5461,3.6573,3.7105,0.0,3.9445,4.115,4.0312,4.1627,4.2969,4.304,4.3679,4.4187,4.4286,4.4869,4.5421,4.5865,4.5863,4.6214,4.7294,4.7187,4.759,4.8995,4.9473,4.9853,5.0192,5.1529,5.2316,5.2405,5.2401,5.2976,5.4256,5.3146,5.3415,5.5239,5.5575,5.6021,5.6611,5.7424,5.8176,5.8878,5.8878,5.9229,5.9791,5.9159,5.8457,5.779,5.782,5.7836,5.7836,5.7881,5.7791,5.7726,5.8267,5.865,5.887,5.8862,5.9087,5.9312,5.9312,5.9312,5.9312,5.9312,5.9216,5.9059,5.9059,5.8999,5.8986,5.9144,5.9253,5.9384,5.9579,6.0145,6.0869,6.1593,6.2354,6.3114,6.3838,6.4041,6.3804,6.2975,6.338,6.3459,6.2376,6.289,6.3617,6.4126,6.4912,6.5411,6.5411,6.5554,6.5661,6.5661,6.5469,6.5238,6.4922,6.467,6.4431,6.4203,6.4076,6.4031,6.4031,6.3308,6.297,6.2932,6.2181,6.1816,6.1816,6.1816,6.1703,3.4334,3.4623,3.5468,3.6635,3.7684,3.8689,3.9486,4.0652,4.1555,4.1538,4.2499,4.3142,4.2519,4.2909,4.3344,4.3476,4.4002,4.4538,4.4987,4.5299,4.5863,4.6916,4.6313,4.6365,4.7758,4.884,4.9347,4.9171,5.0468,5.1549,5.2254,5.1875,5.2311,5.3718,5.3174,5.3737,5.5536,5.6452,5.7244,5.8014,5.8771,5.9299,5.965,5.965,5.9826,6.0072,5.9756,5.944,5.9124,5.9124,5.9124,5.9124,5.9124,5.9124,5.9081,5.8606,5.8616,5.89,5.9053,5.9313,5.9602,5.9602,5.9602,5.9602,5.9602,5.9602,5.9602,5.9602,5.9928,6.029,6.029,6.0652,6.1123,6.1571,6.1933,6.2404,6.3237,6.3671,6.3866,6.3722,6.407,6.4128,6.3261,6.3753,6.408,6.3502,6.3956,6.4414,6.4659,6.5352,6.5804,6.5804,6.5804,6.5804,6.5804,6.5538,6.5344,6.5221,6.4894,6.4636,6.4549,6.4377,6.4294,6.4294,6.3956,6.3806,6.3806,6.3431,6.3243,6.3243,6.3243,6.3243,3.5584,3.6136,3.6831,3.7811,3.8618,3.9628,4.1163,4.1529,4.1658,4.2221,4.2662,4.2709,4.1754,4.2153,4.2706,4.2943,4.3547,4.4142,4.4647,4.5214,4.5796,4.6376,4.579,4.5515,4.5972,4.7693,4.8828,4.904,4.9949,5.0946,5.1929,5.168,5.2062,5.3261,5.3309,5.4015,5.5548,5.6639,5.7552,5.8353,5.9322,5.9762,5.9762,6.0075,6.0292,6.0487,6.0487,6.0576,6.0739,6.0739,6.0739,6.0739,6.0739,6.0739,6.063,5.969,5.9289,5.9243,5.9445,5.9713,6.0011,6.0011,6.0011,6.0038,6.012,6.011,6.016,6.024,6.0846,6.1462,6.1462,6.2064,6.2788,6.3396,6.3359,6.3432,6.4229,6.4229,6.3975,6.3613,6.4011,6.4156,6.3359,6.3685,6.4027,6.382,6.4241,6.4619,6.4767,6.5399,6.5804,6.5804,6.5804,6.5804,6.5804,6.5538,6.5388,6.5388,6.4953,6.4693,6.4693,6.4459,6.4294,6.4294,6.4294,6.4294,6.4294,6.4294,6.4294,6.4294,6.4294,6.4294,3.6012,3.538,3.5219,3.8586,3.8982,3.906,4.1115,4.1606,4.159,4.1638,4.1654,4.1654,4.1605,4.2207,4.2903,4.3562,4.4243,4.4853,4.5392,4.6046,4.6222,4.5625,4.6077,4.5614,0.0,4.5933,4.8415,5.0307,5.0474,5.0698,5.1205,5.1834,5.25,5.3261,5.3308,5.4006,5.5502,5.5558,5.5928,5.6696,5.8213,5.8943,5.8977,5.9943,6.0768,6.1456,6.1456,6.1798,6.2335,6.2335,6.2335,6.2335,6.2335,6.2335,6.2335,6.2265,6.1527,6.0538,6.0554,6.0767,6.1051,6.1051,6.1051,6.111,6.1379,6.1429,6.1522,6.1837,6.2512,6.3142,6.3142,6.3722,6.4337,6.4374,6.3758,6.3432,6.4229,6.3794,6.3468,6.4229,6.4374,6.4156,6.3359,6.3214,6.3195,6.304,6.3538,6.413,6.4711,6.5399,6.5804,6.5804,6.5804,6.5804,6.5804,6.5538,6.5388,6.5388,6.4953,6.4693,6.4693,6.4459,6.4294,6.4294,6.4294,6.4294,6.4294,6.4294,6.4294,6.4294,6.4294,6.4294,3.5742,3.6722,3.8017,3.9218,4.004,4.0735,4.1447,4.1605,4.1605,4.1605,4.1257,4.0925,4.0925,4.1146,4.1683,4.2853,4.3232,4.4015,4.5895,4.5154,4.5162,4.7129,4.579,4.5304,0.0,0.0,0.0,4.7013,4.9018,5.0639,5.1424,5.1939,5.274,5.3987,5.4026,5.4737,5.6211,5.623,5.6921,5.8319,5.9498,6.0021,6.0036,6.0392,6.0658,6.0925,6.1344,6.1617,6.1834,6.2228,6.2405,6.2405,6.2405,6.2405,6.2405,6.2405,6.2155,6.1757,6.1435,6.1569,6.1736,6.1272,6.1093,6.126,6.2047,6.2278,6.2494,6.3334,6.378,6.4011,6.4011,6.3794,6.3758,6.4251,6.3794,6.3432,6.4229,6.4192,6.3939,6.3649,6.3613,6.3504,6.3251,6.2766,6.2669,6.3495,6.4109,6.4747,6.5363,6.5657,6.5804,6.5804,6.5804,6.5804,6.5804,6.5708,6.5571,6.5395,6.5249,6.5007,6.4707,6.4592,6.446,6.4284,6.4294,6.4294,6.4294,6.4294,6.4294,6.4294,6.4294,6.4294,3.6722,3.8144,3.9629,4.0135,4.0941,4.1605,4.1605,4.1605,4.1605,4.1605,4.1241,4.0893,4.064,4.0798,4.1336,4.2522,4.2901,4.3875,4.6196,4.5562,4.5551,4.7345,4.6038,4.5694,4.7483,0.0,0.0,4.6523,4.8788,5.0561,5.1411,5.2198,5.3142,5.4373,5.4632,5.5348,5.654,5.654,5.7458,5.9168,5.9781,6.0266,6.0686,6.0686,6.0686,6.0706,6.1377,6.1651,6.1642,6.2537,6.291,6.2929,6.316,6.3231,6.3231,6.3231,6.3231,6.3089,6.2264,6.2084,6.2167,6.1421,6.1173,6.1321,6.2272,6.2548,6.2744,6.3717,6.4192,6.4337,6.4048,6.3794,6.3758,6.4301,6.3794,6.3359,6.3866,6.3744,6.3382,6.2875,6.2766,6.2766,6.2766,6.2529,6.2649,6.3459,6.4324,6.5125,6.5728,6.5804,6.5804,6.5804,6.5804,6.5804,6.5804,6.5804,6.562,6.5143,6.5019,6.4726,6.4156,6.4044,6.3976,6.4011,6.4021,6.4104,6.4294,6.4294,6.4294,6.4294,6.4294,6.4294,3.8744,3.9534,3.9945,4.1289,4.1605,4.1605,4.1605,4.1605,4.1573,4.151,4.151,4.1289,4.0577,4.0988,4.17,4.2522,4.3186,4.4253,4.6196,4.6975,4.7068,4.6334,4.6826,4.6713,4.5491,4.6557,0.0,4.8748,0.0,5.0582,5.1272,5.2605,5.3673,5.4438,5.5098,5.5798,5.6478,5.6605,5.7443,5.9099,5.9141,5.9754,6.0808,6.0818,6.0818,6.0874,6.1656,6.1903,6.1836,6.3195,6.3764,6.3801,6.4388,6.4601,6.4583,6.4583,6.4583,6.4373,6.2932,6.2405,6.2265,6.1476,6.123,6.136,6.2073,6.2256,6.2391,6.3054,6.3802,6.42,6.3454,6.3794,6.4337,6.4337,6.3722,6.3142,6.3142,6.2549,6.1992,6.1992,6.2028,6.2064,6.2028,6.2604,6.3062,6.3047,6.4236,6.5248,6.5673,6.5784,6.5804,6.5804,6.5804,6.5804,6.5804,6.5804,6.5482,6.4717,6.4438,6.4005,6.3278,6.304,6.3173,6.3684,6.3684,6.3904,6.4444,6.4444,6.4444,6.4444,6.4444,6.4444,3.8713,3.9882,4.1162,4.151,4.1605,4.1605,4.1605,4.1605,4.1304,4.0261,4.004,3.9661,3.8507,3.8839,3.985,4.1605,4.2016,4.3042,4.5624,4.551,4.5627,4.6814,4.7088,4.7344,4.7708,4.8362,0.0,0.0,5.041,5.1534,5.2768,5.366,5.4418,5.513,5.5863,5.6316,5.651,5.7715,5.8588,5.9025,5.9885,6.0438,6.0725,6.0909,6.1034,6.1054,6.1717,6.198,6.1989,6.2788,6.3067,6.3005,6.3167,6.3138,6.2986,6.2986,6.2986,6.2915,6.2546,6.2405,6.2195,6.0844,6.0388,6.0624,6.1632,6.1934,6.2179,6.3384,6.3884,6.4036,6.4085,6.3794,6.3504,6.3504,6.2875,6.2317,6.2317,6.2136,6.1992,6.1992,6.2476,6.2693,6.21,6.3136,6.397,6.3841,6.4649,6.5199,6.5059,6.56,6.5911,6.582,6.5804,6.5804,6.5804,6.5804,6.5697,6.5518,6.5851,6.59,6.5504,6.5791,6.5989,6.5956,6.5967,6.603,6.6172,6.6172,6.6172,6.6172,6.6172,6.6172,3.9787,4.0704,4.1605,4.1605,4.1605,4.1447,4.0815,4.0941,4.0767,3.9345,3.9313,3.9187,3.8112,3.827,3.9187,4.1241,4.1605,4.2551,4.5273,4.5136,4.5341,4.6878,4.6998,4.7426,4.8656,4.9274,4.9873,5.0492,5.0911,5.1773,5.316,5.387,5.4737,5.5863,5.6284,5.6802,5.7417,5.8689,5.9391,5.9492,6.0111,6.0529,6.071,6.0861,6.0757,6.0526,0.0,6.1234,6.0945,6.1986,6.2386,6.2342,6.266,6.2736,6.2603,6.2537,6.2521,6.2469,6.2071,6.1897,6.1757,6.0914,6.0633,6.0768,6.1573,6.1789,6.2005,6.2922,6.3289,6.3328,6.3177,6.2886,6.2657,6.2657,6.2317,6.1992,6.1992,6.1992,6.1992,6.1992,6.2657,6.3069,6.2585,6.3563,6.4367,6.4245,6.4918,6.5321,6.5031,6.5597,6.599,6.5895,6.5852,6.5804,6.5804,6.5804,6.5661,6.5304,6.5592,6.5677,6.5414,6.5713,6.6039,6.6436,6.6447,6.6545,6.681,6.681,6.681,6.681,6.681,6.681,4.1146,4.1542,4.1605,4.1605,4.1605,4.132,4.0166,4.0261,4.023,3.8887,3.9013,3.9187,3.8603,3.8571,3.9266,4.1289,4.1667,4.2452,4.4643,4.5159,4.5621,4.6536,4.6731,4.7401,4.8975,4.9595,5.0455,5.1748,5.1411,5.1799,5.3186,5.3914,5.5067,5.6737,5.677,5.7396,5.8723,5.9371,5.9815,6.0033,5.9977,6.0178,6.0631,6.054,6.0279,5.9864,6.0519,6.0352,5.9684,6.1131,6.1698,6.1738,6.236,6.2627,6.2579,6.2435,6.237,6.2283,6.1436,6.1125,6.1125,6.1125,6.1125,6.119,6.1475,6.1569,6.1647,6.1992,6.2272,6.2342,6.1652,6.1734,6.1992,6.1992,6.1992,6.1992,6.1992,6.1992,6.2028,6.2136,6.273,6.3214,6.3359,6.4048,6.4541,6.4541,6.5337,6.5822,6.5531,6.593,6.618,6.6164,6.6042,6.5982,6.6089,6.6018,6.5697,6.511,6.5133,6.512,6.4939,6.4978,6.5464,6.6437,6.6456,6.6646,6.7111,6.7111,6.7111,6.7111,6.7111,6.7111,4.0862,4.1194,4.1605,4.1605,4.1605,4.17,4.2079,4.1336,4.0356,3.9503,3.8997,3.8634,3.8508,3.895,3.9819,4.1352,4.196,4.2205,4.2045,4.42,4.5656,4.5289,4.6725,4.8294,4.9698,4.9584,5.0257,0.0,5.229,5.2839,5.4397,5.5331,5.6571,5.8184,5.8238,5.8659,5.95,5.963,5.9739,5.9773,5.9399,5.9588,6.0262,5.9822,5.9924,6.0478,6.0686,0.0,6.0575,6.103,6.1107,6.0986,6.1092,6.1107,6.0968,6.0846,6.0783,6.0768,6.0417,6.0317,6.0317,6.0317,6.0317,6.0333,6.0362,6.0378,6.0458,6.0806,6.1142,6.1384,6.1501,6.1734,6.1992,6.1992,6.1992,6.1992,6.1992,6.1992,6.2209,6.2875,6.3106,6.3432,6.407,6.4867,6.5374,6.5374,6.6641,6.7314,6.6633,6.6962,6.7166,6.7004,6.688,6.7017,6.7659,6.714,6.6981,6.7445,6.7959,6.8228,6.8205,6.8448,6.8679,6.889,6.872,6.8703,6.8779,6.8779,6.8779,6.8779,6.8779,6.8779,4.0767,4.1083,4.1605,4.1605,4.1605,4.1399,4.0672,4.0261,3.9629,3.8192,3.7954,3.7986,3.7986,3.8239,3.9139,4.1257,4.1723,4.2183,4.3206,4.4501,4.5487,4.5743,4.6767,4.7818,4.881,4.9239,5.0005,5.1362,5.1831,5.2722,5.437,5.5783,5.7184,5.8572,5.8982,5.9338,5.9694,5.9694,5.95,5.9112,5.8899,5.9093,5.963,5.9422,5.9795,6.0609,6.0742,0.0,6.0023,6.0655,6.0599,6.0144,6.0736,6.0848,6.0681,6.0547,6.0474,6.038,6.0171,6.0107,6.0107,6.0107,6.0107,6.0107,6.0107,6.0107,6.0186,6.0501,6.0838,6.1167,6.1451,6.1734,6.1992,6.1992,6.1992,6.1992,6.1992,6.2317,6.273,6.3142,6.3866,6.4577,6.4939,6.57,6.6388,6.6786,6.7148,6.7402,6.7438,6.7538,6.7358,6.6787,6.6578,6.6578,6.689,6.6589,6.6517,6.6874,6.7179,6.7636,6.8355,6.8522,6.8894,6.9496,6.9429,6.93,6.9192,6.9192,6.9192,6.9192,6.9192,6.9192,4.0925,4.1209,4.1605,4.1605,4.1605,4.1178,3.9534,3.9345,3.9029,3.7402,3.7291,3.759,3.7874,3.7938,3.8728,4.1194,4.1423,4.2117,4.4424,4.485,4.5313,4.6438,4.7049,4.7683,4.8561,4.9476,5.0276,5.0996,5.1696,5.2817,5.4547,5.6134,5.7538,5.8799,5.9403,5.963,5.9468,5.9468,5.9112,5.84,5.8398,5.8659,5.9105,5.9208,5.9751,6.0609,6.0742,0.0,0.0,6.0423,6.0311,5.9552,6.0668,6.0983,6.0848,6.0671,6.0516,6.0427,6.0186,6.0107,6.0107,6.0107,6.0107,6.0107,6.0107,6.0107,6.0171,6.0423,6.0793,6.1152,6.1365,6.1692,6.1992,6.1992,6.1992,6.2064,6.2209,6.2766,6.3287,6.3649,6.4722,6.5663,6.5844,6.6533,6.7221,6.7692,6.751,6.7438,6.7713,6.7752,6.7399,6.6453,6.6289,6.628,6.6368,6.6177,6.6125,6.6268,6.6303,6.6849,6.8084,6.8093,6.8553,6.9621,6.9545,6.9418,6.9252,6.9213,6.9192,6.9192,6.938,6.9493,4.1352,4.1573,4.1605,4.1605,4.1605,4.1542,4.1352,4.0356,3.9439,3.925,3.8317,3.7874,3.9092,3.9313,3.9819,4.1352,4.1423,4.1772,4.31,4.421,4.5306,4.6469,4.7903,4.9429,5.0933,5.1183,5.1851,5.3369,5.3343,5.4166,5.6244,5.6883,5.7904,5.9565,5.9662,5.9371,5.8723,5.8723,5.8367,5.7697,5.7768,5.8255,5.9089,5.9202,5.9716,6.0609,6.0742,0.0,0.0,6.0588,6.0511,5.9787,6.0749,6.1078,6.1034,6.0717,6.0578,6.0532,6.0218,6.0107,6.0107,6.0107,6.0107,6.0107,6.0107,6.0107,6.0123,6.0155,6.0625,6.1108,6.1123,6.1573,6.1992,6.1992,6.1992,6.2209,6.2911,6.3142,6.3649,6.5084,6.5482,6.5844,6.6569,6.7366,6.7692,6.7003,6.809,6.8467,6.7076,6.7532,6.7602,6.6605,6.6854,6.7366,6.8102,6.74,6.7176,6.7838,6.7873,6.8263,6.9118,6.9001,6.93,7.0132,6.9721,6.9496,6.9471,6.9308,6.9192,6.923,7.0029,7.0367,4.0261,4.0956,4.1605,4.1605,4.1921,4.1904,4.064,4.0261,3.9819,3.857,3.7874,3.7653,3.8191,3.8317,3.8886,4.0704,4.0825,4.1744,4.4731,4.5453,4.6272,4.7872,4.9231,5.0059,5.0122,5.0776,5.1559,5.247,5.2448,5.3383,5.5615,5.6451,5.7472,5.8808,5.9402,5.9338,5.8626,5.8605,5.8044,5.6952,5.7403,5.7912,5.8443,5.9024,5.978,6.0727,6.0893,0.0,0.0,6.044,6.0211,5.9023,6.0505,6.0974,6.0778,6.064,6.047,6.0282,6.0155,6.0107,6.0107,6.0107,6.0107,6.0107,6.0107,6.0107,6.0155,6.0345,6.0594,6.0838,6.1049,6.1379,6.1734,6.195,6.2354,6.2802,6.3142,6.3975,6.483,6.5482,6.5989,6.6424,6.675,6.7076,6.7329,6.751,6.7655,6.7692,6.7532,6.7402,6.7119,6.6719,6.6664,6.692,6.7633,6.6828,6.6803,6.8016,6.7676,6.798,6.9248,6.9229,6.9481,7.0201,7.0025,7.005,7.0301,7.0213,7.0362,7.0694,7.107,7.1231,3.9724,4.0672,4.1605,4.1605,4.1858,4.162,3.9882,3.9756,3.9503,3.7843,3.7495,3.7495,3.7495,3.7653,3.8412,4.0293,4.0842,4.2159,4.5405,4.5934,4.6627,4.826,4.9423,5.0055,5.0027,5.1088,5.1967,5.2313,5.2324,5.3079,5.4788,5.5756,5.6794,5.7859,5.8592,5.8637,5.7904,5.7936,5.7461,5.651,5.7267,5.7648,5.771,5.8987,5.9771,6.0169,6.0742,0.0,0.0,6.0455,6.0161,5.8887,6.041,6.0884,6.0655,6.0563,6.0376,6.0171,6.0123,6.0107,6.0107,6.0107,6.0107,6.0107,6.0107,6.0107,6.0155,6.0392,6.0594,6.0823,6.1152,6.1423,6.1778,6.224,6.2802,6.3323,6.383,6.4794,6.5663,6.5917,6.6605,6.7076,6.6858,6.7184,6.7547,6.7619,6.7366,6.7293,6.7619,6.7148,6.6786,6.6786,6.6548,6.6608,6.7263,6.6622,6.676,6.8033,6.7588,6.7909,6.9248,6.9284,6.9625,7.0278,7.0231,7.0331,7.0609,7.073,7.102,7.1453,7.1865,7.2196,4.0198,4.1083,4.1605,4.1605,4.1114,4.0419,3.9661,3.8982,3.8333,3.7621,3.7495,3.7495,3.7495,3.8049,3.895,4.0388,4.1778,4.3068,4.4261,4.5042,4.594,4.7076,4.8063,4.9425,5.1486,5.2963,5.3758,5.3758,5.3758,0.0,5.4103,5.4983,5.5952,5.6882,5.7131,5.6884,5.6229,5.6406,5.651,5.6499,5.7303,5.7407,5.6996,5.919,5.9595,5.872,6.0096,6.0327,0.0,6.0713,6.0541,5.9752,6.0498,6.0782,6.0788,6.0485,6.0396,6.038,6.0171,6.0107,6.0107,6.0107,6.0107,6.0107,6.0107,6.0107,6.0107,6.0123,6.0594,6.1167,6.1437,6.1734,6.2209,6.2997,6.3178,6.3649,6.5229,6.5591,6.5844,6.6641,6.7423,6.7713,6.6931,6.8141,6.8648,6.704,6.7474,6.7677,6.6931,6.6822,6.6786,6.6786,6.6638,6.6782,6.7456,6.7298,6.7461,6.8068,6.8088,6.8444,6.9284,6.9284,6.9676,7.0478,7.0318,7.018,7.0196,7.0605,7.0784,7.0834,7.2239,7.3334,3.7623,3.8934,4.004,3.9598,4.004,4.0293,3.9076,3.9029,3.8871,3.7716,3.7495,3.7621,3.8112,3.835,3.9123,4.0988,4.2079,4.3467,4.5732,4.6678,4.7548,4.8686,4.9949,5.1275,5.2722,5.2691,5.2986,5.3932,5.3112,5.3007,5.404,5.4389,5.4983,5.592,5.6755,5.6884,5.6229,5.6891,5.7017,5.651,5.7734,5.7821,5.6958,5.9154,5.957,5.867,6.0096,6.0311,0.0,6.0713,6.0466,5.9567,6.0453,6.0681,6.0516,6.0443,6.0317,6.0186,6.0139,6.0107,6.0107,6.0107,6.0107,6.0107,6.0107,6.0107,6.0107,6.0107,6.0423,6.0838,6.1167,6.1832,6.2586,6.3086,6.4048,6.4975,6.5482,6.6025,6.6496,6.675,6.7003,6.7112,6.6858,6.7221,6.7402,6.6895,6.704,6.7112,6.6822,6.6786,6.6786,6.6786,6.6742,6.7135,6.8175,6.7621,6.7927,6.9639,6.9229,6.9284,7.0069,7.0122,7.0229,7.0514,7.0432,7.06,7.1028,7.1153,7.1649,7.2531,7.3399,7.3934,3.6504,3.7882,3.9013,3.8603,3.914,3.9598,3.8697,3.8618,3.8507,3.7653,3.7906,3.8317,3.8476,3.9155,4.0008,4.1051,4.2695,4.4257,4.5367,4.6431,4.7416,4.8199,4.9919,5.1545,5.2876,5.2869,5.3155,5.404,5.3281,5.3186,5.404,5.4103,5.4357,5.4951,5.5815,5.621,5.6049,5.6784,5.7223,5.732,5.8173,5.8079,5.7232,5.9103,5.9405,5.857,5.9995,6.0438,0.0,6.0775,6.0564,5.9992,6.0473,6.0547,6.0396,6.0297,6.0202,6.0107,6.0107,6.0107,6.0107,6.0107,6.0107,6.0107,6.0107,6.0107,6.0107,6.0107,6.0439,6.0909,6.1441,6.2219,6.3083,6.3919,6.4867,6.5663,6.5989,6.646,6.6786,6.6786,6.704,6.7148,6.6858,6.704,6.7148,6.6858,6.6786,6.6786,6.6786,6.6786,6.6786,6.6786,6.7076,6.7644,6.8629,6.8096,6.8545,7.0474,7.0084,6.9962,7.0478,7.0514,7.0514,7.0514,7.0514,7.0699,7.1058,7.1279,7.1923,7.292,7.3553,7.3875,0.0,3.7722,3.835,3.8287,3.835,3.8413,3.8413,3.7954,0.0,3.7621,3.8633,3.9345,3.8839,4.0356,4.1478,4.0862,4.3548,4.5214,4.3678,4.4908,4.5991,4.6144,4.8466,5.0623,5.2093,5.3355,5.4103,5.4103,5.4103,5.4103,5.4103,5.4103,5.4103,5.4103,5.4581,5.5112,5.5783,5.6313,5.7223,5.8464,5.8626,5.8238,5.7503,5.9004,5.918,0.0,5.9802,6.0668,0.0,6.0878,6.0767,6.0757,6.0485,6.0396,6.0364,6.0171,6.0107,6.0107,6.0107,6.0107,6.0107,6.0107,6.0107,6.0107,6.0107,6.0107,6.0107,6.0107,6.0594,6.1272,6.2107,6.2796,6.3685,6.5229,6.5627,6.5881,6.6641,6.6786,6.6786,6.6786,6.7402,6.7677,6.6931,6.7438,6.764,6.6931,6.6786,6.6786,6.6786,6.6786,6.6822,6.6895,6.7547,6.8268,6.8945,6.8809,6.9317,7.0714,7.0616,7.0531,7.0514,7.0514,7.0514,7.0514,7.0514,7.0514,7.0514,7.1107,7.1696,7.2269,7.2983,7.3298,3.549,0.0,3.677,3.6248,3.6958,3.7748,0.0,3.7621,3.778,3.8807,3.9281,3.9787,4.0704,4.1731,4.2395,4.222,4.3769,4.4808,4.4457,4.6134,4.7257,4.692,4.9606,5.153,5.151,5.3091,5.4103,5.4103,5.4103,5.4103,5.4103,5.4103,5.4103,5.4103,5.4581,5.5112,5.5783,5.6818,5.7244,5.7029,5.8659,5.8205,5.5992,5.8529,5.918,5.8388,5.9802,6.0565,6.0878,6.0833,6.0681,6.047,6.0427,6.0317,6.0171,6.0123,6.0107,6.0107,6.0107,6.0107,6.0107,6.0107,6.0107,6.0107,6.0107,6.0107,6.0107,6.0107,6.0594,6.1272,6.2107,6.3191,6.4359,6.5374,6.6062,6.6569,6.675,6.6786,6.6786,6.6786,6.6967,6.704,6.6822,6.6967,6.704,6.6822,6.6786,6.6786,6.6786,6.6786,6.704,6.764,6.7909,6.8582,6.9927,6.9879,7.0037,7.0766,7.0771,7.065,7.0514,7.0514,7.0514,7.0514,7.0514,7.0514,7.0514,7.1107,7.1485,7.1635,7.2756,7.3298,3.5507,3.6037,3.6052,3.6561,3.7083,3.7653,3.8285,3.7938,3.7874,3.9218,3.9503,3.9945,4.1352,4.1652,4.1953,4.2585,4.3295,4.4117,4.5078,4.6487,4.732,4.7125,4.924,5.087,5.1244,5.2996,5.4103,5.4103,5.4103,5.4103,5.4103,5.4103,5.4103,5.4103,5.4444,5.4995,5.5783,5.6657,5.6888,5.651,5.8335,5.8205,5.6499,5.8834,5.9645,5.9292,5.9698,6.0226,6.0767,6.0276,6.0214,6.0396,6.0317,6.0186,6.0107,6.0107,6.0107,6.0107,6.0107,6.0107,6.0107,6.0107,6.0107,6.0107,6.0107,6.0107,6.0107,6.0107,6.0594,6.1343,6.2515,6.3587,6.4685,6.5881,6.6496,6.6786,6.6786,6.6786,6.6786,6.6786,6.6786,6.6786,6.6786,6.6786,6.6786,6.6786,6.6786,6.6786,6.6786,6.6786,6.7112,6.7894,6.8343,6.9032,7.0278,7.0619,7.0791,7.09,7.0836,7.0701,7.0514,7.0514,7.0514,7.0514,7.0514,7.0514,7.0514,7.1107,7.1406,7.1438,7.2724,7.3298,3.6012,3.6113,3.5963,3.7919,3.7938,3.7843,3.9187,3.8475,3.7938,3.9503,3.9819,4.023,4.1542,4.1557,4.1652,4.2427,4.2823,4.3663,4.5417,4.6497,4.7059,4.7043,4.851,4.9972,5.1128,5.288,5.3976,5.4071,5.4103,5.4103,5.4103,5.4103,5.4103,5.4103,5.4306,5.4804,5.5623,5.6195,5.6425,5.6349,5.7752,5.8118,5.7548,5.9188,6.0102,6.0394,0.0,0.0,6.0656,5.9743,5.9761,6.0348,6.0171,6.0107,6.0107,6.0107,6.0107,6.0107,6.0107,6.0107,6.0107,6.0107,6.0107,6.0107,6.0107,6.0177,6.0282,6.0282,6.074,6.1533,6.3015,6.3953,6.4882,6.6445,6.6786,6.6786,6.6786,6.6786,6.6786,6.6786,6.6786,6.6786,6.6786,6.6786,6.6786,6.6786,6.6786,6.6786,6.6786,6.6895,6.7293,6.809,6.8902,6.9699,7.0496,7.1132,7.1368,7.1061,7.09,7.0735,7.0514,7.0514,7.0514,7.0514,7.0581,7.0632,7.0649,7.1232,7.1526,7.1557,7.2766,7.3298,3.6004,3.6327,3.6496,3.8674,3.8366,3.7843,3.9187,3.8475,3.8222,4.0751,4.1289,4.1525,4.2395,4.3895,4.4306,4.2111,4.3449,4.4822,4.5091,4.6921,4.7877,4.6959,4.9291,5.1013,5.1023,5.2386,5.3502,5.4071,5.4103,5.4103,5.4103,5.4103,5.4103,5.4103,5.4306,5.4581,5.4952,5.5802,5.6032,5.5583,5.7061,5.7495,5.7075,5.8501,5.9652,6.0496,0.0,6.0354,6.0439,6.0286,6.0176,6.0155,6.0123,6.0107,6.0107,6.0107,6.0107,6.0107,6.0107,6.0107,6.0107,6.0107,6.0107,6.0107,6.0107,6.0563,6.1125,6.1125,6.1344,6.1883,6.3097,6.4183,6.5304,6.651,6.6786,6.6786,6.6786,6.6786,6.6786,6.6786,6.6786,6.6786,6.6786,6.6786,6.6786,6.6786,6.6786,6.6786,6.6786,6.7387,6.8126,6.8938,6.9735,7.0532,7.1277,7.1422,7.1452,7.126,7.1081,7.0833,7.0531,7.0514,7.0514,7.0514,7.0993,7.1248,7.1248,7.1857,7.2167,7.2197,7.2957,7.3298,3.6693,3.6687,3.6915,4.0259,3.9279,3.8254,4.1114,3.9534,3.849,4.2016,4.0876,4.0039,4.2741,4.2721,4.228,4.2306,4.4805,4.6625,4.6207,4.7823,4.8775,4.8029,4.957,5.0783,5.0983,5.227,5.3376,5.404,5.4103,5.4103,5.4103,5.4103,5.4103,5.4103,5.4178,5.4423,5.4792,5.5238,5.5254,5.4891,5.6316,5.6894,5.6787,5.8337,5.9536,6.0374,0.0,6.0017,6.036,5.9843,5.9819,6.0107,6.0107,6.0107,6.0107,6.0107,6.0107,6.0107,6.0107,6.0107,6.0107,6.0107,6.0107,6.0177,6.0633,6.102,6.1371,6.1792,6.2107,6.2572,6.3543,6.4289,6.5115,6.6277,6.6533,6.6578,6.6742,6.6786,6.6786,6.6786,6.6786,6.6786,6.6786,6.6786,6.6786,6.6786,6.6786,6.6786,6.6786,6.751,6.8307,6.9119,6.9916,7.0713,7.1458,7.1494,7.1384,7.1162,7.0982,7.075,7.0531,7.0514,7.0514,7.0514,7.1194,7.1506,7.1406,7.2445,7.2924,7.2852,7.349,7.3802,3.727,3.7066,3.7194,4.1035,3.9758,3.8602,4.2741,4.0482,3.8665,4.2838,4.078,3.9361,4.3022,4.1743,4.0925,4.3347,4.6173,4.7959,4.7712,4.8901,4.9643,4.92,4.9792,5.0497,5.1173,5.2207,5.3186,5.404,5.4103,5.4103,5.4103,5.4103,5.4103,5.4103,5.4103,5.4316,5.4792,5.4792,5.4732,5.4665,5.5733,5.6396,5.671,5.8174,5.928,6.0029,5.9638,5.9816,6.0262,5.9557,5.958,6.0107,6.0107,6.0107,6.0107,6.0107,6.0107,6.0107,6.0107,6.0107,6.0107,6.0107,6.0212,6.0493,6.1125,6.1546,6.1967,6.2511,6.2993,6.3453,6.394,6.4515,6.5133,6.6064,6.6381,6.6488,6.6727,6.6786,6.6786,6.6786,6.6786,6.6786,6.6786,6.6786,6.6786,6.6786,6.6786,6.6786,6.6786,6.7655,6.8525,6.9119,7.0061,7.0863,7.1411,7.1431,7.1324,7.0982,7.0869,7.0701,7.0514,7.0693,7.08,7.08,7.1722,7.2113,7.1949,7.3127,7.367,7.3571,7.3986,7.4186,3.7363,3.7348,3.7433,3.9924,3.9023,3.8602,4.2741,4.0482,3.8665,4.2838,4.241,4.1778,4.3404,4.313,4.3411,4.5772,4.7052,4.8115,4.9162,5.0197,5.0551,4.9896,5.0097,5.0727,5.1816,5.2017,5.2649,5.4008,5.4103,5.4103,5.4103,5.4103,5.4103,5.4103,5.4103,5.4316,5.4792,5.4792,5.4989,5.5324,5.5421,5.5974,5.6925,5.7725,5.8528,5.9334,6.0005,6.0246,6.0139,6.0052,6.0036,6.0107,6.0107,6.0107,6.0107,6.0107,6.0107,6.0107,6.0107,6.0107,6.0107,6.0107,6.0598,6.123,6.1265,6.2283,6.3442,6.3477,6.4021,6.4492,6.4157,6.4906,6.5812,6.6207,6.6548,6.6757,6.6771,6.6786,6.6786,6.6786,6.6786,6.6786,6.6786,6.6786,6.6786,6.6786,6.6786,6.6786,6.6786,6.8141,6.9119,6.9192,7.0517,7.1395,7.1324,7.1308,7.1182,7.0819,7.0821,7.0701,7.0514,7.1228,7.1585,7.1585,7.295,7.3622,7.3635,7.4086,7.4333,7.4312,7.4248,7.4186,3.71,3.7066,3.759,4.0458,3.9309,3.8602,4.2743,4.1114,3.9914,4.4148,4.2437,4.048,4.1392,4.3032,4.4687,4.6141,4.7505,4.8634,4.9392,5.0198,5.0531,4.9971,4.9991,5.041,5.1279,5.1764,5.2407,5.3408,5.385,5.4103,5.4103,5.4103,5.4103,5.4103,5.4103,5.4253,5.4539,5.4729,5.4959,5.5216,5.5328,5.5861,5.6734,5.7603,5.8355,5.9062,5.9991,6.0301,6.0107,6.0107,6.0107,6.0107,6.0107,6.0107,6.0107,6.0107,6.0107,6.0107,6.0107,6.0107,6.0177,6.0668,6.1055,6.1476,6.2424,6.3126,6.3688,6.4144,6.4478,6.4653,6.4508,6.4968,6.5542,6.5879,6.6259,6.6548,6.6742,6.6786,6.6786,6.6786,6.6786,6.6786,6.6786,6.6786,6.6786,6.6786,6.6786,6.7003,6.7474,6.8488,6.9373,6.988,7.0879,7.1467,7.1292,7.1195,7.1015,7.0802,7.0821,7.0916,7.1245,7.1549,7.1906,7.237,7.3383,7.3888,7.378,7.4322,7.4524,7.4386,7.4236,7.4186,3.715,3.7079,3.7671,4.0526,3.9341,3.8602,4.2743,4.1525,4.0577,4.4352,4.3114,4.1456,4.1727,4.3766,4.573,4.6646,4.7949,4.9093,4.9744,5.0269,5.0434,4.9971,4.9912,5.0184,5.0931,5.1606,5.2302,5.3039,5.3724,5.4103,5.4103,5.4103,5.4103,5.4103,5.4103,5.4178,5.4412,5.4655,5.4917,5.5093,5.5287,5.5713,5.6244,5.7438,5.8179,5.8633,5.9862,6.0301,6.0107,6.0107,6.0107,6.0107,6.0107,6.0107,6.0107,6.0107,6.0107,6.0107,6.0107,6.0107,6.0212,6.1055,6.1441,6.1897,6.3196,6.3758,6.4039,6.4548,6.4689,6.4689,6.4689,6.5046,6.5477,6.574,6.615,6.6533,6.6742,6.6786,6.6786,6.6786,6.6786,6.6786,6.6786,6.6786,6.6786,6.6786,6.6786,6.7112,6.7894,6.8721,6.959,7.0641,7.1205,7.1399,7.1227,7.1061,7.1024,7.1076,7.1095,7.1258,7.1673,7.2156,7.2655,7.3155,7.3958,7.4315,7.4242,7.4556,7.4639,7.4487,7.4275,7.4186,3.7642,3.7527,3.7704,3.9856,3.8959,3.8602,4.2709,4.1509,4.0324,4.312,4.4794,4.5624,4.5091,4.5713,4.6625,4.7548,4.8419,4.9402,5.0474,5.0608,5.0434,4.9971,4.9912,5.0184,5.0931,5.1606,5.2281,5.3028,5.3724,5.4103,5.4103,5.4103,5.4103,5.4103,5.4103,5.4178,5.4412,5.4655,5.4917,5.5093,5.5287,5.5389,5.545,5.7197,5.7927,5.7887,5.965,6.0266,6.0107,6.0107,6.0107,6.0107,6.0107,6.0107,6.0107,6.0107,6.0107,6.0107,6.0107,6.0107,6.0247,6.1055,6.1792,6.2581,6.3389,6.4109,6.4689,6.4689,6.4689,6.4689,6.4689,6.523,6.5804,6.5804,6.6305,6.6822,6.6786,6.6786,6.6786,6.6786,6.6786,6.6786,6.6786,6.6786,6.6786,6.6786,6.6786,6.7112,6.7894,6.8721,6.9808,7.135,7.1494,7.1352,7.1065,7.1032,7.1189,7.1691,7.1727,7.1727,7.1727,7.3191,7.3993,7.3993,7.4778,7.5225,7.5189,7.4865,7.4697,7.4705,7.4349,7.4186,3.8421,3.8011,3.7606,3.9333,3.9326,3.9218,4.0482,4.0862,4.1494,4.3309,4.4126,4.4311,4.3663,4.558,4.738,4.763,4.8857,4.9983,5.0538,5.0608,5.0434,4.9971,4.9912,4.9975,5.0216,5.1322,5.2091,5.2312,5.3439,5.4103,5.4103,5.4103,5.4103,5.4103,5.4103,5.4146,5.4178,5.4624,5.4834,5.4896,5.5258,5.5389,5.547,5.7345,5.7764,5.711,5.9482,6.0056,5.9315,5.9879,6.0107,6.0107,6.0107,6.0107,6.0107,6.0107,6.0107,6.0107,6.0107,6.0458,6.1055,6.1827,6.2616,6.3372,6.4144,6.4513,6.4689,6.4689,6.4689,6.4689,6.4689,6.5046,6.5461,6.574,6.6135,6.6518,6.6742,6.6786,6.6786,6.6786,6.6786,6.6786,6.6786,6.6786,6.6786,6.6786,6.6786,6.7293,6.8685,7.0009,7.0987,7.1458,7.1494,7.1605,7.1823,7.1826,7.1998,7.2441,7.3012,7.3315,7.3315,7.3744,7.4279,7.4814,7.5082,7.5225,7.5189,7.4865,7.4697,7.4705,7.4349,7.4186,3.896,3.8677,3.8609,4.0673,4.0324,3.9661,4.0198,4.1004,4.2207,4.4291,4.4791,4.4846,4.4825,4.6635,4.826,4.8609,4.9701,5.055,5.0583,5.0608,5.0434,4.9971,4.9912,4.9912,4.9912,5.0943,5.1701,5.1986,5.306,5.3818,5.4071,5.4103,5.4103,5.4103,5.4103,5.4103,5.4103,5.4581,5.4792,5.4813,5.5216,5.5389,5.547,5.7401,5.7855,5.7189,5.9432,6.0024,5.9415,5.9911,6.0107,6.0107,6.0107,6.0107,6.0107,6.0107,6.0107,6.0107,6.0107,6.0633,6.1406,6.216,6.2932,6.3723,6.4478,6.4689,6.4689,6.4689,6.4689,6.4689,6.4689,6.486,6.5164,6.5691,6.6072,6.6412,6.6712,6.6786,6.6786,6.6786,6.6786,6.6786,6.6786,6.6786,6.6786,6.6786,6.7329,6.8105,6.9083,7.0553,7.1494,7.1494,7.1494,7.1713,7.2183,7.2185,7.25,7.3244,7.3744,7.4136,7.4457,7.4493,7.4707,7.5189,7.5225,7.5225,7.5189,7.4915,7.4747,7.469,7.4428,7.4247,3.9469,3.9489,4.0103,4.268,4.1384,3.9961,4.1638,4.1923,4.2671,4.5666,4.6141,4.64,4.7509,4.8371,4.9185,4.9964,5.0732,5.1086,5.0685,5.0608,5.0421,4.9991,4.9931,4.9912,4.9912,5.0583,5.1279,5.1954,5.266,5.3408,5.4071,5.4103,5.4103,5.4103,5.4103,5.4103,5.4103,5.4581,5.4792,5.4813,5.5216,5.5389,5.547,5.7308,5.8071,5.8013,5.9333,5.9959,6.0107,6.0107,6.0107,6.0107,6.0107,6.0107,6.0107,6.0107,6.0107,6.0107,6.0107,6.0668,6.1511,6.2195,6.3002,6.3828,6.4478,6.4689,6.4689,6.4689,6.4689,6.4689,6.4689,6.4689,6.486,6.5594,6.6025,6.6366,6.6712,6.6786,6.6786,6.6786,6.6786,6.6786,6.6786,6.6786,6.6786,6.6786,6.8177,6.9192,6.9192,7.0553,7.1494,7.1494,7.1567,7.1786,7.2199,7.2274,7.2821,7.3887,7.394,7.4261,7.5011,7.5118,7.5225,7.5225,7.5225,7.5225,7.5225,7.5018,7.4813,7.46,7.4483,7.4286,4.0797,4.0286,3.9661,4.0261,3.9945,4.0531,4.4417,4.4351,4.3996,4.5766,4.59,4.6109,4.7466,4.8867,4.9881,5.0066,5.0732,5.1124,5.0858,5.0705,5.0512,5.0227,5.003,4.9912,4.9912,5.0583,5.1279,5.1954,5.266,5.3408,5.4071,5.4103,5.4103,5.4103,5.4103,5.4103,5.4103,5.4581,5.4792,5.4813,5.5216,5.5389,5.543,5.6658,5.7819,5.8875,5.8493,5.8978,6.0107,6.0107,6.0107,6.0107,6.0107,6.0107,6.0107,6.0107,6.0107,6.0107,6.0107,6.102,6.2195,6.237,6.3337,6.4478,6.4654,6.4689,6.4689,6.4689,6.4689,6.4689,6.4689,6.4689,6.4809,6.5228,6.5623,6.6072,6.6653,6.6786,6.6786,6.6786,6.6786,6.6786,6.6786,6.6786,6.6786,6.6786,6.8177,6.9192,6.9192,7.0553,7.1494,7.1494,7.2074,7.2448,7.2437,7.3014,7.3435,7.352,7.3539,7.3611,7.379,7.4691,7.5225,7.5225,7.5225,7.5225,7.5225,7.5018,7.4606,7.3986,7.425,7.408,4.0369,4.0531,4.0672,4.1351,4.1813,4.2658,4.4721,4.497,4.507,4.6141,4.6474,4.6972,4.8106,4.9313,5.0228,5.0552,5.0959,5.1143,5.0915,5.0724,5.0531,5.0305,5.007,4.9912,4.9912,5.0247,5.0911,5.1922,5.2365,5.3028,5.404,5.4103,5.4103,5.4103,5.4103,5.4103,5.4103,5.4581,5.4792,5.4813,5.5216,5.5389,5.543,5.6342,5.7435,5.8616,5.8424,5.8772,5.9566,5.9943,6.0107,6.0107,6.0107,6.0107,6.0107,6.0107,6.0107,6.0107,6.0107,6.1106,6.2405,6.2405,6.3442,6.4689,6.4689,6.4689,6.4689,6.4689,6.4689,6.4689,6.4689,6.4689,6.4775,6.5128,6.551,6.5947,6.6457,6.6683,6.6786,6.6786,6.6786,6.6786,6.6786,6.6786,6.6931,6.7329,6.8431,6.9337,6.9735,7.1132,7.1929,7.1531,7.2565,7.3043,7.2539,7.3224,7.3627,7.3424,7.3407,7.3517,7.3826,7.4422,7.478,7.478,7.5047,7.501,7.4635,7.4527,7.4026,7.3233,7.3447,7.3448,3.9495,4.0514,4.1936,4.3341,4.4063,4.4409,4.4383,4.4896,4.5617,4.6474,4.7344,4.8153,4.8878,4.9691,5.0487,5.1121,5.1218,5.1143,5.0972,5.0743,5.055,5.0395,5.0089,4.9912,4.9912,4.9912,5.048,5.1891,5.2017,5.2618,5.4008,5.4103,5.4103,5.4103,5.4103,5.4103,5.4103,5.4581,5.4792,5.4813,5.5216,5.5389,5.5409,5.61,5.6906,5.7785,5.8425,5.8772,5.8977,5.9762,6.0107,6.0107,6.0107,6.0107,6.0107,6.0107,6.0107,6.0107,6.0107,6.1106,6.2405,6.2405,6.3442,6.4689,6.4689,6.4689,6.4689,6.4689,6.4689,6.4689,6.4689,6.4689,6.4775,6.5045,6.5477,6.5899,6.6207,6.6563,6.6786,6.6786,6.6786,6.6786,6.6786,6.6786,6.7076,6.7858,6.8669,6.9518,7.046,7.1712,7.2364,7.1965,7.3108,7.3602,7.2821,7.3346,7.3605,7.3293,7.3259,7.3462,7.3971,7.4188,7.4224,7.4081,7.4673,7.4671,7.3993,7.3851,7.3346,7.246,7.2537,7.278,3.9626,4.0514,4.1936,4.3341,4.2869,4.2766,4.5379,4.5198,4.4936,4.6515,4.7926,4.8846,4.8961,5.0131,5.1089,5.1186,5.1218,5.1199,5.1181,5.0839,5.0589,5.057,5.0168,4.9912,4.9912,4.9912,5.048,5.1891,5.2017,5.2618,5.4008,5.4103,5.4103,5.4103,5.4103,5.4103,5.4103,5.4581,5.4792,5.4813,5.5216,5.5389,5.5389,5.5511,5.602,5.6811,5.7597,5.83,5.8977,5.9762,6.0107,6.0107,6.0107,6.0107,6.0107,6.0107,6.0107,6.0107,6.0107,6.1106,6.2405,6.2405,6.3442,6.4689,6.4689,6.4689,6.4689,6.4689,6.4689,6.4689,6.4689,6.4689,6.4706,6.4758,6.5297,6.5899,6.6207,6.6563,6.6786,6.6786,6.6786,6.6786,6.6786,6.6786,6.7076,6.7858,6.8669,6.9735,7.1168,7.1531,7.2146,7.3434,7.376,7.3868,7.3727,7.38,7.3582,7.2826,7.268,7.2653,7.2728,7.3736,7.3974,7.3257,7.3851,7.41,7.3993,7.3298,7.2565,7.1829,7.2362,7.2537,4.0293,4.0546,4.1146,4.4131,4.3548,4.2923,4.5684,4.5565,4.5255,4.6614,4.7734,4.8558,4.8947,4.9872,5.0732,5.1121,5.1218,5.1218,5.1218,5.0858,5.0608,5.0608,5.0187,4.9912,4.9912,4.9912,5.0322,5.1353,5.1796,5.246,5.3502,5.3913,5.4103,5.4103,5.4103,5.4103,5.4103,5.4581,5.4917,5.5134,5.5307,5.5389,5.5389,5.5389,5.5592,5.6001,5.726,5.7961,5.8371,5.9599,6.0107,6.0107,6.0107,6.0107,6.0107,6.0107,6.0107,6.0107,6.0107,6.1106,6.2405,6.2405,6.3442,6.4689,6.4689,6.4689,6.4689,6.4689,6.4689,6.4689,6.4689,6.4689,6.4689,6.4689,6.5247,6.5852,6.5994,6.6427,6.6786,6.6786,6.6786,6.6786,6.6786,6.6786,6.7221,6.8488,6.8974,6.9771,7.1313,7.2275,7.2927,7.3181,7.4013,7.4194,7.3289,7.3217,7.2891,7.2074,7.1958,7.2082,7.2302,7.2834,7.3058,7.2921,7.3654,7.3565,7.2727,7.237,7.1799,7.1031,7.1302,7.2001,4.0388,4.0419,4.0609,4.4148,4.3706,4.3018,4.5269,4.5245,4.5109,4.6371,4.7216,4.7911,4.8623,4.9483,5.0325,5.1089,5.1218,5.1218,5.1218,5.0858,5.0608,5.0608,5.0187,4.9912,4.9912,4.9912,5.0216,5.0931,5.1606,5.2333,5.306,5.3755,5.4103,5.4103,5.4103,5.4103,5.4103,5.4581,5.4989,5.5389,5.5389,5.5389,5.5389,5.5389,5.5511,5.5781,5.7204,5.7796,5.7923,5.9467,6.0107,6.0107,6.0107,6.0107,6.0107,6.0107,6.0107,6.0107,6.0107,6.1106,6.2405,6.2405,6.3442,6.4689,6.4689,6.4689,6.4689,6.4689,6.4689,6.4689,6.4689,6.4689,6.4706,6.4809,6.5313,6.5852,6.6025,6.6442,6.6786,6.6786,6.6786,6.6786,6.6786,6.6786,6.7329,6.8974,6.9373,7.0061,7.1603,7.3036,7.376,7.3362,7.4194,7.4375,7.3398,7.2927,7.2436,7.1857,7.1741,7.1817,7.2202,7.2317,7.2397,7.253,7.3119,7.2869,7.1692,7.1478,7.1085,7.0514,7.0514,7.162,3.9234,4.0072,4.0925,4.2473,4.2252,4.2131,4.3896,4.3773,4.3794,4.553,4.6439,4.7201,4.7929,4.9192,5.0325,5.1089,5.1218,5.1218,5.1218,5.0858,5.0608,5.0608,5.0187,4.9912,4.9912,4.9912,5.0216,5.0931,5.1606,5.2333,5.306,5.3755,5.4103,5.4103,5.4103,5.4103,5.4103,5.4581,5.4989,5.5389,5.5389,5.5389,5.5389,5.5389,5.5801,5.6575,5.7446,5.7796,5.7923,5.9467,6.0107,6.0107,6.0107,6.0107,6.0107,6.0107,6.0107,6.0107,6.0107,6.1106,6.2405,6.2405,6.3442,6.4689,6.4689,6.4689,6.4689,6.4689,6.4689,6.4689,6.4689,6.4689,6.4775,6.5095,6.5494,6.5978,6.6608,6.6793,6.6786,6.6786,6.6786,6.6786,6.6786,6.6786,6.7329,6.8974,6.9844,7.0879,7.2436,7.3362,7.4194,7.4919,7.4375,7.4231,7.4919,7.3579,7.2674,7.2637,7.2329,7.2166,7.2185,7.2579,7.2459,7.1781,7.1799,7.1763,7.1692,7.0942,7.055,7.0514,7.0514,7.162,3.9123,3.9376,3.9819,4.2126,4.181,4.1529,4.3705,4.3945,4.3997,4.4963,4.5965,4.6836,4.7231,4.8447,4.9645,5.0357,5.0894,5.1162,5.1029,5.0762,5.055,5.0434,5.0109,4.9912,4.9912,4.9912,5.0006,5.0279,5.0943,5.1638,5.2365,5.306,5.366,5.4071,5.4103,5.4253,5.456,5.4729,5.4989,5.5389,5.5389,5.5389,5.5389,5.5389,5.5841,5.6633,5.7465,5.8051,5.8599,5.9648,6.0107,6.0107,6.0107,6.0107,6.0107,6.0107,6.0107,6.0107,6.0107,6.1106,6.2405,6.2405,6.3442,6.4689,6.4689,6.4689,6.4689,6.4689,6.4689,6.4689,6.4689,6.4689,6.4843,6.5445,6.5848,6.6259,6.6697,6.6786,6.6786,6.6786,6.6786,6.6786,6.6786,6.6786,6.751,6.9663,7.0206,7.1132,7.3217,7.4158,7.4593,7.4339,7.4086,7.3796,7.3579,7.2485,7.1806,7.1806,7.1578,7.1397,7.1316,7.1432,7.1348,7.0942,7.0942,7.0942,7.0942,7.0657,7.0514,7.0514,7.0514,7.1663,3.8602,3.8839,3.9266,4.1146,4.1272,4.1339,4.2811,4.3607,4.4073,4.4365,4.5591,4.6652,4.6875,4.8058,4.9238,4.9969,5.0732,5.1046,5.0593,5.0563,5.0435,4.9967,4.9891,4.9912,4.9912,4.9912,4.9912,4.9912,5.0563,0.0,5.1954,5.2712,5.3408,5.4071,5.4103,5.4316,5.4792,5.4792,5.4989,5.5389,5.5389,5.5389,5.5389,5.5389,5.6001,5.7034,5.7576,5.8212,5.8977,5.9762,6.0107,6.0107,6.0107,6.0107,6.0107,6.0107,6.0107,6.0107,6.0107,6.1106,6.2405,6.2405,6.3442,6.4689,6.4689,6.4689,6.4689,6.4689,6.4689,6.4689,6.4689,6.4775,6.4996,6.5477,6.5958,6.6381,6.6578,6.6712,6.6786,6.6786,6.6786,6.6786,6.6786,6.6786,6.7619,7.0025,7.0387,7.1257,7.3579,7.4593,7.4774,7.3977,7.3905,7.3563,7.2718,7.181,7.126,7.1211,7.1032,7.09,7.0886,7.0752,7.0667,7.0599,7.0548,7.0514,7.0514,7.0514,7.0514,7.0514,7.08,7.2202,0.0,0.0,0.0,3.9503,4.0546,4.1497,4.1183,4.2586,4.3896,4.3719,4.522,4.662,4.6858,4.804,4.9238,4.9969,5.0681,5.0852,4.9936,5.0243,5.0224,4.9311,4.9587,4.9912,4.9912,4.9912,4.9912,4.9912,5.0563,5.1279,5.1954,5.2712,5.3439,5.4071,5.4103,5.4316,5.4792,5.4792,5.4989,5.5389,5.5389,5.5389,5.5389,5.5389,5.6264,5.7796,5.7796,5.8229,5.9011,5.9762,6.0107,6.0107,6.0107,6.0107,6.0107,6.0107,6.0107,6.0107,6.0107,6.1106,6.2405,6.2405,6.3442,6.4689,6.4689,6.4689,6.4689,6.4689,6.4689,6.4689,6.4689,6.4979,6.5228,6.5228,6.5764,6.63,6.63,6.6578,6.6786,6.6786,6.6786,6.6786,6.6786,6.6822,6.7655,7.0025,7.0423,7.1277,7.3615,7.4629,7.4774,7.3977,7.3905,7.3514,7.2572,7.1745,7.1195,7.0996,7.0886,7.0852,7.0979,7.0682,7.0599,7.0804,7.0652,7.055,7.055,7.0514,7.0514,7.0514,7.1335,7.3261,3.7495,0.0,0.0,0.0,0.0,0.0,4.1549,4.2389,4.3119,4.3311,4.4579,4.5882,4.657,4.797,4.9238,4.9969,5.0149,5.0064,4.9633,4.9585,4.9438,4.9036,4.9509,4.9912,4.9912,4.9912,4.9912,0.0,5.007,5.0733,5.1954,5.3155,5.3913,5.4103,5.4103,5.4316,5.4792,5.4792,5.4989,5.5389,5.5389,5.5389,5.5389,5.5389,5.6264,5.7796,5.7796,5.8563,5.9779,6.0008,6.0107,6.0107,6.0107,6.0107,6.0107,6.0107,6.0107,6.0107,6.0107,6.1106,6.2405,6.2405,6.3442,6.4689,6.4689,6.4689,6.4689,6.4689,6.4689,6.4689,6.4689,6.5164,6.5623,6.5623,6.6146,6.6653,6.6653,6.6727,6.6786,6.6786,6.6786,6.6786,6.6786,6.7293,6.8307,7.0134,7.0842,7.2074,7.4448,7.4955,7.4774,7.3977,7.3806,7.3166,7.1761,7.1192,7.0902,7.0869,7.0684,7.0667,7.0852,7.0769,7.0735,7.0821,7.1272,7.1456,7.1371,7.08,7.0514,7.055,7.187,7.3749,0.0,0.0,0.0,3.8997,0.0,0.0,4.0944,4.21,4.313,4.3194,4.4729,4.6074,4.6161,4.7411,4.8612,4.9032,4.8675,4.851,4.8994,4.8903,4.8726,4.8516,4.9078,4.9596,4.988,4.9912,4.9912,4.9912,4.9912,5.0472,5.1809,5.3196,5.3952,5.3952,5.3952,5.4231,5.4792,5.4792,5.4989,5.5389,5.5389,5.5389,5.5389,5.5389,5.6264,5.7796,5.7796,5.8668,6.0107,6.0107,6.0107,6.0107,6.0107,6.0107,6.0107,6.0107,6.0107,6.0107,6.0107,6.1106,6.2405,6.2405,6.3442,6.4689,6.4689,6.4689,6.4689,6.4689,6.4689,6.4689,6.4689,6.5013,6.5363,6.551,6.5958,6.6427,6.6563,6.6697,6.6786,6.6786,6.6786,6.6786,6.6786,6.7474,6.8561,7.017,7.0786,7.2038,7.4738,7.481,7.4412,7.3941,7.3757,7.3028,7.1339,7.0952,7.0752,7.0667,7.0633,7.0701,7.0886,7.0867,7.0936,7.1002,7.1283,7.1507,7.1692,7.1549,7.162,7.196,7.2905,7.4301,0.0,0.0,0.0,0.0,3.9677,0.0,4.0102,4.1799,4.3398,4.3193,4.5022,4.6411,4.5674,4.658,4.7448,4.7545,4.6756,4.6664,4.8139,4.8182,4.7945,4.7707,4.8383,4.9141,4.9722,4.9848,4.9912,4.9912,4.9955,5.0486,5.1654,5.2973,5.3726,5.3789,5.3811,5.4113,5.4687,5.4771,5.4968,5.5328,5.5369,5.5389,5.5389,5.5389,5.6238,5.7686,5.7759,5.8633,5.9975,6.004,6.0107,6.0107,6.0107,6.0107,6.0107,6.0107,6.0107,6.0107,6.0107,6.1106,6.2405,6.2405,6.3442,6.4689,6.4689,6.4689,6.4689,6.4689,6.4689,6.4689,6.4689,6.4723,6.4843,6.5178,6.5575,6.5962,6.6269,6.6593,6.6786,6.6786,6.6786,6.6786,6.6786,6.7547,6.8633,7.0061,7.0496,7.1712,7.4593,7.4412,7.4013,7.3888,7.374,7.2961,7.1123,7.0852,7.0684,7.0514,7.0684,7.0869,7.0979,7.1012,7.113,7.1292,7.1148,7.1417,7.2084,7.2548,7.3226,7.3993,7.3993,7.4796,0.0,0.0,0.0,0.0,0.0,0.0,4.1163,4.1653,4.2159,4.2701,4.3292,4.4015,4.5025,4.5498,4.5955,4.655,4.5911,4.5801,4.7184,4.721,4.6858,4.6297,4.7782,4.8971,4.9078,4.9564,4.9912,4.9912,5.0308,5.0899,5.1675,5.247,5.3193,5.3789,5.3984,5.3995,5.3931,5.4486,5.4854,5.4915,5.5246,5.5389,5.5389,5.5389,5.5921,5.6882,5.752,5.83,5.9163,5.9846,6.0107,6.0107,6.0107,6.0107,6.0107,6.0107,6.0107,6.0107,6.0107,6.1106,6.2405,6.2405,6.3442,6.4689,6.4689,6.4689,6.4689,6.4689,6.4689,6.4689,6.4689,6.4911,6.5195,6.5591,6.5942,6.6269,6.6623,6.6742,6.6786,6.6786,6.6786,6.6786,6.6786,6.7981,6.9083,6.9373,7.1024,7.271,7.3977,7.4556,7.4579,7.3832,7.3557,7.2741,7.0996,7.0667,7.0548,7.0514,7.0684,7.0869,7.0979,7.1162,7.126,7.1292,7.219,7.326,7.4511,7.3369,7.3226,7.3993,7.3993,7.4796,0.0,0.0,0.0,3.9945,0.0,0.0,0.0,4.162,4.2252,4.2617,4.3269,4.3829,4.3981,4.4285,4.4669,4.5138,4.4426,4.4158,4.5114,4.5764,4.6415,4.7108,4.7788,4.8355,4.8702,4.9146,4.9552,4.988,5.0394,5.0995,5.1654,5.2101,5.2725,5.3552,5.3606,5.3758,5.405,5.4412,5.4781,5.5081,5.5307,5.5389,5.5389,5.5389,5.606,5.7222,5.7631,5.8458,5.9515,5.9927,6.0107,6.0107,6.0107,6.0107,6.0107,6.0107,6.0107,6.0107,6.0107,6.1106,6.2405,6.2405,6.3442,6.4689,6.4689,6.4689,6.4689,6.4689,6.4689,6.4689,6.4689,6.4826,6.5078,6.564,6.5931,6.6197,6.6683,6.6786,6.6786,6.6786,6.6786,6.6786,6.6786,6.8141,6.9192,6.9192,7.1205,7.2999,7.3796,7.4267,7.431,7.3763,7.3147,7.2243,7.091,7.0616,7.0514,7.0514,7.0733,7.0933,7.0996,7.1276,7.1504,7.1759,7.2727,7.3705,7.46,7.419,7.419,7.46,7.46,7.4995,0.0,0.0,0.0,0.0,0.0,4.0798,0.0,0.0,0.0,4.249,4.3358,4.3804,4.2816,4.2969,4.3344,4.3673,4.295,4.2636,4.3476,4.4391,4.5577,4.715,4.7075,4.7107,4.7702,4.8304,4.8957,4.9789,5.0207,5.0713,5.1382,5.1701,5.2278,5.3093,5.3192,5.354,5.4221,5.4348,5.4707,5.5287,5.5348,5.5389,5.5389,5.5389,5.6165,5.7576,5.7741,5.8598,5.9895,6.0059,6.0107,6.0107,6.0107,6.0107,6.0107,6.0107,6.0107,6.0107,6.0107,6.1106,6.2405,6.2405,6.3442,6.4689,6.4689,6.4689,6.4689,6.4689,6.4689,6.4689,6.4689,6.4689,6.4877,6.5627,6.5804,6.5994,6.6653,6.6786,6.6786,6.6786,6.6786,6.6858,6.7003,6.825,6.9228,6.9409,7.1313,7.2999,7.3796,7.3905,7.3839,7.3727,7.2787,7.1812,7.0874,7.0616,7.0531,7.0565,7.085,7.1012,7.1081,7.1336,7.1733,7.2235,7.2993,7.3595,7.4047,7.485,7.5225,7.5225,7.5225,7.5225,0.0,0.0,0.0,0.0,4.1399,0.0,0.0,0.0,4.1731,4.1731,0.0,4.1921,4.178,0.0,0.0,4.2711,4.1968,4.2,4.4069,4.3626,4.3029,4.2851,4.3872,4.4591,4.4684,4.6529,4.8278,4.9527,4.9535,4.9757,5.0424,5.11,5.168,5.2138,5.3162,5.3627,5.3509,5.4114,5.456,5.4853,5.5225,5.5389,5.5389,5.5389,5.5881,5.6787,5.7502,5.8265,5.9096,5.983,6.0107,6.0107,6.0107,6.0107,6.0107,6.0107,6.0107,6.0107,6.0107,6.1106,6.2405,6.2405,6.3442,6.4689,6.4689,6.4689,6.4689,6.4689,6.4689,6.4689,6.4689,6.4689,6.4877,6.5627,6.5804,6.5994,6.6653,6.6786,6.6786,6.6786,6.6786,6.704,6.7764,6.8597,6.9445,7.017,7.1639,7.2999,7.3796,7.3905,7.3839,7.3727,7.2787,7.1812,7.0874,7.0616,7.0582,7.0735,7.0916,7.1061,7.126,7.1436,7.1797,7.2453,7.3096,7.3664,7.4261,7.4869,7.5225,7.5225,7.5225,7.5225,0.0,0.0,0.0,0.0,0.0,0.0,4.2237,0.0,4.1605,0.0,0.0,0.0,0.0,0.0,0.0,0.0,4.1358,4.1261,4.2237,4.1942,4.2217,4.372,4.3959,4.4376,4.5285,4.599,4.7088,4.8891,4.8818,4.907,4.9848,5.0715,5.1742,5.2996,5.389,5.4718,5.5403,5.5303,5.5399,5.5755,5.5501,5.5389,5.5409,5.5881,5.6264,5.6672,5.7907,5.8616,5.8977,5.9762,6.0107,6.0107,6.0107,6.0107,6.0107,6.0107,6.0107,6.0107,6.0107,6.1106,6.2546,6.3442,6.4162,6.4689,6.4689,6.4689,6.4689,6.4689,6.4689,6.4689,6.4689,6.4689,6.4877,6.5627,6.5804,6.5994,6.6653,6.6786,6.6786,6.6786,6.6786,6.7221,6.8488,6.8974,6.9481,7.0278,7.1712,7.2999,7.3796,7.347,7.33,7.3505,7.2305,7.1275,7.0686,7.0548,7.0582,7.0804,7.1051,7.126,7.142,7.1447,7.1834,7.2486,7.3096,7.3681,7.4296,7.4923,7.5225,7.5225,7.5225,7.5225,4.2923,0.0,0.0,0.0,0.0,0.0,0.0,0.0,0.0,0.0,0.0,0.0,0.0,0.0,0.0,0.0,0.0,4.0845,4.1062,4.1027,4.1769,4.3813,4.386,4.4323,0.0,4.5792,4.64,4.8308,4.8355,4.8628,4.9347,5.0538,5.185,5.3237,5.436,5.5455,5.6573,5.6061,5.6038,5.6478,5.5766,5.5389,5.543,5.6224,5.6594,5.6691,5.8231,5.8909,5.8977,5.9762,6.0107,6.0107,6.0107,6.0107,6.0107,6.0107,6.0107,6.0107,6.0107,6.1106,6.2616,6.3969,6.4548,6.4689,6.4689,6.4689,6.4689,6.4689,6.4689,6.4689,6.4689,6.4689,6.4877,6.5627,6.5804,6.5994,6.6653,6.6786,6.6786,6.6786,6.6786,6.7293,6.8902,6.9192,6.9518,7.0568,7.1639,7.2637,7.347,7.2855,7.2577,7.3111,7.1856,7.09,7.0616,7.0582,7.0684,7.0919,7.1179,7.1404,7.1494,7.1494,7.1721,7.2227,7.2986,7.3644,7.4044,7.4833,7.5225,7.5225,7.5225,7.5225,0.0,0.0,0.0,4.292,0.0,0.0,0.0,0.0,4.1605,0.0,0.0,0.0,0.0,0.0,0.0,0.0,0.0,0.0,0.0,4.1599,4.1423,4.1247,4.2334,4.3815,4.5541,4.5818,4.6468,0.0,4.8207,4.8465,4.8908,5.0677,5.1789,5.206,5.4093,5.5385,5.5815,5.5815,5.6038,5.6478,5.5766,5.5389,5.543,5.6224,5.6594,5.6691,5.8231,5.8909,5.8977,5.9762,6.0107,6.0107,6.0107,6.0107,6.0107,6.0107,6.0107,6.0107,6.0107,6.1106,6.2546,6.3389,6.4109,6.4689,6.4689,6.4689,6.4689,6.4689,6.4689,6.4689,6.4689,6.4689,6.4877,6.5627,6.5804,6.5994,6.6653,6.6786,6.6786,6.6786,6.6786,6.7293,6.8902,6.9192,6.9735,7.1241,7.1531,7.182,7.2637,7.2038,7.1793,7.2447,7.1598,7.0949,7.0785,7.0804,7.0936,7.1243,7.1436,7.1494,7.1494,7.1494,7.1531,7.1515,7.2764,7.3407,7.3443,7.4619,7.5225,7.5225,7.5225,7.5225,0.0,0.0,4.4678,4.4739,0.0,0.0,0.0,0.0,0.0,0.0,0.0,0.0,0.0,0.0,0.0,0.0,0.0,0.0,0.0,4.1996,4.2767,4.3455,4.3513,4.4016,4.5374,4.4903,0.0,0.0,4.7218,0.0,4.7598,4.9592,5.1029,5.1714,5.443,5.6435,5.7646,5.7216,5.7075,5.7212,5.5992,5.5389,5.543,5.6224,5.6303,5.5921,5.7999,5.8633,5.8265,5.9566,6.0107,6.0107,6.0107,6.0107,6.0107,6.0107,6.0107,6.0177,6.0704,6.1546,6.2546,6.3354,6.4109,6.4689,6.4689,6.4689,6.4689,6.4689,6.4689,6.4689,6.4689,6.4689,6.4826,6.5278,6.5607,6.5931,6.6381,6.6638,6.6786,6.6786,6.6786,6.7293,6.8902,6.9192,6.9735,7.1277,7.1494,7.1784,7.2601,7.2001,7.1709,7.2227,7.1532,7.09,7.0633,7.0783,7.1032,7.1276,7.1436,7.1494,7.1494,7.1494,7.1483,7.1372,7.2831,7.3492,7.32,7.469,7.5316,7.5225,7.5225,7.5225,4.5516,4.5698,0.0,4.5905,4.5353,0.0,4.5047,0.0,0.0,0.0,0.0,0.0,0.0,0.0,0.0,0.0,0.0,0.0,0.0,4.2936,4.4025,4.5026,4.5003,4.5016,4.5328,4.5258,4.5682,4.6927,4.6843,4.6905,0.0,4.942,5.1038,5.1784,5.4417,5.6571,5.8238,5.7547,5.7341,5.7568,5.6089,5.5389,5.543,5.6224,5.6179,5.5531,5.7891,5.8494,5.7923,5.9467,6.0107,6.0107,6.0107,6.0107,6.0107,6.0107,6.0107,6.0177,6.0704,6.1546,6.2476,6.3002,6.3863,6.4689,6.4689,6.4689,6.4759,6.5057,6.4899,6.4759,6.504,6.4899,6.4775,6.5128,6.551,6.5899,6.6207,6.6563,6.6786,6.6786,6.6786,6.7293,6.8902,6.9192,6.9735,7.1277,7.1494,7.1712,7.2219,7.182,7.1585,7.1748,7.132,7.0897,7.0699,7.09,7.1094,7.1356,7.1431,7.1494,7.1494,7.1431,7.1564,7.1806,7.2975,7.3619,7.3631,7.4905,7.5388,7.5225,7.5225,7.5225]},{"header":{"parameterUnit":"m.s-1","parameterCategory":1,"la1":30.6,"la2":29.2853,"lo1":-89.7004,"lo2":-87.6739,"dy":0.0162,"dx":0.0183,"nx":112,"ny":82,"refTime":"2024-03-20T00:00:00:Z","depth":0,"parameterNumber":3,"parameterNumberName":"V-component_of_WINDS"},"data":[0.0,0.0,0.0,0.0,0.0,0.0,0.0,0.0,0.0,0.0,0.0,0.0,0.0,0.0,0.0,0.0,0.0,0.0,0.0,0.0,0.0,0.0,0.0,0.0,0.0,0.0,0.0,0.0,0.0,0.0,0.0,0.0,0.0,0.0,0.0,0.0,0.0,0.0,0.0,0.0,0.0,0.0,0.0,0.0,0.0,0.0,0.0,0.0,0.0,0.0,0.0,0.0,0.0,0.0,0.0,0.0,0.0,0.0,0.0,0.0,0.0,0.0,0.0,0.0,0.0,0.0,0.0,0.0,0.0,0.0,0.0,0.0,0.0,0.0,0.0,0.0,0.0,0.0,0.0,0.0,0.0,0.0,0.0,0.0,0.0,0.0,0.0,0.0,0.0,0.0,0.8999,0.938,0.9535,0.9599,0.9599,0.9762,0.9632,0.9129,0.0,0.0,0.0,0.0,0.0,0.0,0.0,0.0,0.0,0.0,0.0,0.0,0.0,0.0,0.0,0.0,0.0,0.0,0.0,0.0,0.0,0.0,0.0,0.0,0.0,0.0,0.0,0.0,0.0,0.0,0.0,0.0,0.0,0.0,0.0,0.0,0.0,0.0,0.0,0.0,0.0,0.0,0.0,0.0,0.0,0.0,0.0,0.0,0.0,0.0,0.0,0.0,0.0,0.0,0.0,0.0,0.0,0.0,0.0,0.0,0.0,0.0,0.0,0.0,0.0,0.0,0.0,0.0,0.0,0.0,0.0,0.0,0.0,0.0,0.0,0.0,0.0,0.0,0.0,0.0,0.0,0.0,0.0,0.0,0.0,0.0,0.0,0.0,0.0,0.0,0.0,0.0,0.0,0.0,0.0,0.0,0.0,0.0,0.0,0.0,0.0,0.0,0.0,0.0,0.9194,0.9526,0.9583,0.9599,0.9599,0.9624,0.9478,0.912,0.0,0.0,0.0,0.0,0.0,0.0,0.0,0.0,0.0,0.0,0.0,0.0,0.0,0.0,0.0,0.0,0.0,0.0,0.0,0.0,0.0,0.0,0.0,0.0,0.0,0.0,0.0,0.0,0.0,0.0,0.0,0.0,0.0,0.0,0.0,0.0,0.0,0.0,0.0,0.0,0.0,0.0,0.0,0.0,0.0,0.0,0.0,0.0,0.0,0.0,0.0,0.0,0.0,0.0,0.0,0.0,0.0,0.0,0.0,0.0,0.0,0.0,0.0,0.0,0.0,0.0,0.0,0.0,0.0,0.0,0.0,0.0,0.0,0.0,0.0,0.0,0.0,0.0,0.0,0.0,0.0,0.0,0.0,0.0,0.0,0.0,0.0,0.0,0.0,0.0,0.0,0.0,0.0,0.0,0.0,0.0,0.0,0.0,0.0,0.0,0.0,0.0,0.0,0.9274,0.9583,0.9746,0.986,0.9916,0.9916,0.9916,0.9762,0.9381,0.9624,0.0,0.0,0.0,0.0,0.0,0.0,0.0,0.0,0.0,0.0,0.0,0.0,0.0,0.0,0.0,0.0,0.0,0.0,0.0,0.0,0.0,0.0,0.0,0.0,0.0,0.0,0.0,0.0,0.0,0.0,0.0,0.0,0.0,0.0,0.0,0.0,0.0,0.0,0.0,0.0,0.0,0.0,0.0,0.0,0.0,0.0,0.0,0.0,0.0,0.0,0.0,0.0,0.0,0.0,0.0,0.0,0.0,0.0,0.0,0.0,0.0,0.0,0.0,0.0,0.0,0.0,0.0,0.0,0.0,0.0,0.0,0.0,0.0,0.0,0.0,0.0,0.0,0.0,0.0,0.0,0.0,0.0,0.0,0.0,0.0,0.0,0.0,0.0,0.0,0.0,0.0,0.0,0.0,0.0,0.0,0.0,0.0,0.0,0.0,0.0,0.0,0.0,0.9608,0.9926,0.9966,1.0105,1.0186,1.0186,1.0186,1.0031,0.9624,0.9754,0.0,0.0,0.0,0.0,0.0,0.0,0.0,0.0,0.0,0.0,0.0,0.0,0.0,0.0,0.0,0.0,0.0,0.0,0.0,0.0,0.0,0.0,0.0,0.0,0.0,0.0,0.0,0.0,0.0,0.0,0.0,0.0,0.0,0.0,0.0,0.0,0.0,0.0,0.0,0.0,0.0,0.0,0.0,0.0,0.0,0.0,0.0,0.0,0.0,0.0,0.0,0.0,0.0,0.0,0.0,0.0,0.0,0.0,0.0,0.0,0.0,0.0,0.0,0.0,0.0,0.0,0.0,0.0,0.0,0.0,0.0,0.0,0.0,0.0,0.0,0.0,0.0,0.0,0.0,0.0,0.0,0.0,0.0,0.0,0.0,0.0,0.0,0.0,0.0,0.0,0.0,0.0,0.0,0.0,0.0,0.0,0.0,0.0,0.0,0.0,0.0,0.0,0.9681,0.9974,1.0154,1.0178,1.0186,1.0186,1.0186,1.0031,0.9624,0.9616,0.0,0.0,0.0,0.0,0.0,0.0,0.0,0.0,0.0,0.0,0.0,0.0,0.0,0.0,0.0,0.0,0.0,0.0,0.0,0.0,0.0,0.0,0.0,0.0,0.0,0.0,0.0,0.0,0.0,0.0,0.0,0.0,0.0,0.0,0.0,0.0,0.0,0.0,0.0,0.0,0.0,0.0,0.0,0.0,0.0,0.0,0.0,0.0,0.0,0.0,0.0,0.0,0.0,0.0,0.0,0.0,0.0,0.0,0.0,0.0,0.0,0.0,0.0,0.0,0.0,0.0,0.0,0.0,0.0,0.0,0.0,0.0,0.0,0.0,0.0,0.0,0.0,0.0,0.0,0.0,0.0,0.0,0.0,0.0,0.0,0.0,0.0,0.0,0.0,0.0,0.0,0.0,0.0,0.0,0.0,0.0,0.0,0.0,0.0,0.0,0.0,0.0,0.9868,1.0231,0.0,1.0428,1.0569,1.0683,1.0691,1.0536,1.0126,0.0,0.0,0.0,0.0,0.0,0.0,0.0,0.0,0.0,0.0,0.0,0.0,0.0,0.0,0.0,0.0,0.0,0.0,0.0,0.0,0.0,0.0,0.0,0.0,0.0,0.0,0.0,0.0,0.0,0.0,0.0,0.0,0.0,0.0,0.0,0.0,0.0,0.0,0.0,0.0,0.0,0.0,0.0,0.0,0.0,0.0,0.0,0.0,0.0,0.0,0.0,0.0,0.0,0.0,0.0,0.0,0.0,0.0,0.0,0.0,0.0,0.0,0.0,0.0,0.0,0.0,0.0,0.0,0.0,0.0,0.0,0.0,0.0,0.0,0.0,0.0,0.0,0.0,0.0,0.0,0.0,0.0,0.0,0.0,0.0,0.0,0.0,0.0,0.0,0.0,0.0,0.0,0.0,0.0,0.0,0.0,0.0,0.0,0.0,0.0,0.0,0.0,0.9567,1.016,1.0582,0.0,1.0623,1.0772,1.0903,1.096,1.0821,1.0345,0.0,0.0,0.0,0.0,0.0,0.0,0.0,0.0,0.0,0.0,0.0,0.0,0.0,0.0,0.0,0.0,0.0,0.0,0.0,0.0,0.0,0.0,0.0,0.0,0.0,0.0,0.0,0.0,0.0,0.0,0.0,0.0,0.0,0.0,0.0,0.0,0.0,0.0,0.0,0.0,0.0,0.0,0.0,0.0,0.0,0.0,0.0,0.0,0.0,0.0,0.0,0.0,0.0,0.0,0.0,0.0,0.0,0.0,0.0,0.0,0.0,0.0,0.0,0.0,0.0,0.0,0.0,0.0,0.0,0.0,0.0,0.0,0.0,0.0,0.0,0.0,0.0,0.0,0.0,0.0,0.0,0.0,0.0,0.0,0.0,0.0,0.0,0.0,0.0,0.0,0.0,0.0,0.0,0.0,0.0,0.0,0.0,0.0,0.0,0.0,0.0,0.0,0.9909,1.0544,1.0927,1.0712,1.0696,1.0696,1.0696,1.0894,1.0764,0.0,0.0,0.0,0.0,0.0,0.0,0.0,0.0,0.0,0.0,0.0,0.0,0.0,0.0,0.0,0.0,0.0,0.0,0.0,0.0,0.0,0.0,0.0,0.0,0.0,0.0,0.0,0.0,0.0,0.0,0.0,0.0,0.0,0.0,0.0,0.0,0.0,0.0,0.0,0.0,0.0,0.0,0.0,0.0,0.0,0.0,0.0,0.0,0.0,0.0,0.0,0.0,0.0,0.0,0.0,0.0,0.0,0.0,0.0,0.0,0.0,0.0,0.0,0.0,0.0,0.0,0.0,0.0,0.0,0.0,0.0,0.0,0.0,0.0,0.0,0.0,0.0,0.0,0.0,0.0,0.0,0.0,0.0,0.0,0.0,0.0,0.0,0.0,0.0,0.0,0.0,0.0,0.0,0.0,0.0,0.0,0.0,0.0,0.0,0.0,0.0,0.0,0.0,0.9909,1.043,1.0829,1.0911,1.0769,1.0794,1.1045,1.1005,1.0821,1.0379,0.0,0.0,0.0,0.0,0.0,0.0,0.0,0.0,0.0,0.0,0.0,0.0,0.0,0.0,0.0,0.0,0.0,0.0,0.0,0.0,0.0,0.0,0.0,0.0,0.0,0.0,0.0,0.0,0.0,0.0,0.0,0.0,0.0,0.0,0.0,0.0,0.0,0.0,0.0,0.0,0.0,0.0,0.0,0.0,0.0,0.0,0.0,0.0,0.0,0.0,0.0,0.0,0.0,0.0,0.0,0.0,0.0,0.0,0.0,0.0,0.0,0.0,0.0,0.0,0.0,0.0,0.0,0.0,0.0,0.0,0.0,0.0,0.0,0.0,0.0,0.0,0.0,0.0,0.0,0.0,0.0,0.0,0.0,0.0,0.0,0.0,0.0,0.0,0.0,0.0,0.0,0.0,0.0,0.0,0.0,0.0,0.0,0.0,0.0,0.0,0.0,0.0,1.0095,1.0574,1.0923,1.0992,1.0894,1.0891,1.1102,1.1086,1.1027,1.0883,0.0,0.0,0.0,0.0,0.0,0.0,0.0,0.0,0.0,0.0,0.0,0.0,0.0,0.0,0.0,0.0,0.0,0.0,0.0,0.0,0.0,0.0,0.0,0.0,0.0,0.0,0.0,0.0,0.0,0.0,0.0,0.0,0.0,0.0,0.0,0.0,0.0,0.0,0.0,0.0,0.0,0.0,0.0,0.0,0.0,0.0,0.0,0.0,0.0,0.0,0.0,0.0,0.0,0.0,0.0,0.0,0.0,0.0,0.0,0.0,0.0,0.0,0.0,0.0,0.0,0.0,0.0,0.0,0.0,0.0,0.0,0.0,0.0,0.0,0.0,0.0,0.0,0.0,0.0,0.0,0.0,0.0,0.0,0.0,0.0,0.0,0.0,0.0,0.0,0.0,0.0,0.0,0.0,0.0,0.0,0.0,0.0,0.0,0.0,0.0,0.0,0.0,1.0441,1.097,1.1269,1.1202,1.1177,1.1177,1.1211,1.1314,1.1447,1.1617,0.0,0.0,0.0,0.0,0.0,0.0,0.0,0.0,0.0,0.0,0.0,0.0,0.0,0.0,0.0,0.0,0.0,0.0,0.0,0.0,0.0,0.0,0.0,0.0,0.0,0.0,0.0,0.0,0.0,0.0,0.0,0.0,0.0,0.0,0.0,0.0,0.0,0.0,0.0,0.0,0.0,0.0,0.0,0.0,0.0,0.0,0.0,0.0,0.0,0.0,0.0,0.0,0.0,0.0,0.0,0.0,0.0,0.0,0.0,0.0,1.4274,0.0,0.0,0.0,0.0,0.0,0.0,0.0,0.0,0.0,0.0,0.0,0.0,0.0,0.0,0.0,0.0,0.0,0.0,0.0,0.0,0.0,0.0,0.0,0.0,0.0,0.0,0.0,0.0,0.0,0.0,0.0,0.0,0.0,0.0,0.0,0.0,0.0,0.0,0.0,0.0,0.0,1.0863,1.1612,1.2265,1.2634,1.2514,1.2542,1.2864,1.2753,1.2445,1.1857,1.1772,0.0,0.0,0.0,0.0,0.0,0.0,0.0,0.0,0.0,0.0,0.0,0.0,0.0,0.0,0.0,0.0,0.0,0.0,0.0,0.0,0.0,0.0,0.0,0.0,0.0,0.0,0.0,0.0,0.0,0.0,0.0,0.0,0.0,0.0,0.0,0.0,0.0,0.0,0.0,0.0,0.0,0.0,0.0,0.0,0.0,0.0,0.0,0.0,0.0,0.0,0.0,0.0,0.0,0.0,0.0,0.0,0.0,0.0,0.0,0.0,1.395,0.0,0.0,0.0,0.0,0.0,0.0,0.0,0.0,0.0,0.0,0.0,0.0,0.0,0.0,0.0,0.0,0.0,0.0,0.0,0.0,0.0,0.0,0.0,0.0,0.0,0.0,0.0,0.0,0.0,0.0,0.0,0.0,0.0,0.0,0.0,0.0,0.0,0.0,0.0,0.0,1.1301,1.2156,1.2862,1.3202,1.3136,1.3155,1.3382,1.3297,1.3193,1.3051,1.2784,0.0,0.0,0.0,0.0,0.0,0.0,0.0,0.0,0.0,0.0,0.0,0.0,0.0,0.0,0.0,0.0,0.0,0.0,0.0,0.0,0.0,0.0,0.0,0.0,0.0,0.0,0.0,0.0,0.0,0.0,0.0,0.0,0.0,0.0,0.0,0.0,0.0,0.0,0.0,0.0,0.0,0.0,0.0,0.0,0.0,0.0,0.0,0.0,0.0,0.0,0.0,0.0,0.0,1.8094,1.7961,1.7447,1.7686,1.7658,1.7375,1.5695,1.5449,1.6116,1.5037,0.0,0.0,0.0,0.0,0.0,0.0,0.0,0.0,0.0,0.0,0.0,0.0,0.0,0.0,0.0,0.0,0.0,0.0,0.0,0.0,0.0,0.0,0.0,0.0,1.2234,1.2133,0.0,0.0,0.0,0.0,0.0,0.0,0.0,0.0,0.0,0.0,0.0,0.0,1.1855,1.2814,1.349,1.3693,1.3723,1.3732,1.3771,1.3771,1.3947,1.4337,1.3888,1.3394,0.0,0.0,0.0,0.0,0.0,0.0,0.0,0.0,0.0,0.0,0.0,0.0,0.0,0.0,0.0,0.0,0.0,0.0,0.0,0.0,0.0,0.0,0.0,0.0,0.0,0.0,0.0,0.0,0.0,0.0,0.0,0.0,1.5689,1.6412,0.0,0.0,0.0,0.0,0.0,0.0,0.0,0.0,0.0,0.0,0.0,0.0,0.0,1.7711,1.8087,1.8869,1.9252,1.9221,2.0081,2.0414,2.0336,1.9908,1.972,1.9618,1.8344,0.0,1.6517,1.6536,0.0,0.0,0.0,0.0,0.0,0.0,0.0,0.0,0.0,0.0,0.0,0.0,0.0,0.0,0.0,0.0,0.0,0.0,0.0,0.0,0.0,0.0,1.3184,1.3269,1.3114,1.3043,0.0,1.2274,1.122,1.122,1.119,0.0,0.0,0.0,0.0,0.0,0.0,0.0,1.2773,1.3909,1.4749,1.4935,1.4956,1.507,1.53,1.5311,1.5104,1.4589,1.45,1.4084,1.3354,1.2892,0.0,0.0,0.0,0.0,0.0,0.0,0.0,0.0,0.0,0.0,0.0,0.0,0.0,0.0,0.0,0.0,0.0,0.0,0.0,0.0,0.0,0.0,0.0,0.0,0.0,0.0,0.0,0.0,0.0,1.5926,1.6464,1.6683,1.7229,1.7338,0.0,0.0,0.0,0.0,0.0,0.0,0.0,0.0,0.0,1.8373,1.8762,1.9131,1.9384,2.0139,2.0498,2.0514,2.046,2.0447,2.0421,1.9879,1.9646,1.9606,1.9092,1.8593,1.8116,1.7964,1.6912,1.5381,0.0,0.0,0.0,0.0,1.3609,1.393,1.3743,1.4076,0.0,1.3549,0.0,0.0,0.0,0.0,0.0,0.0,0.0,0.0,0.0,0.0,1.3448,1.4813,1.505,1.5001,1.5232,1.4567,1.3587,0.0,1.2138,1.1933,1.1393,0.0,0.0,0.0,0.0,1.331,1.3783,1.4695,1.5429,1.5776,1.5819,1.5862,1.5989,1.6,1.5878,1.5563,1.5563,1.5064,1.3962,1.3782,1.3135,0.0,0.0,0.0,0.0,0.0,0.0,0.0,0.0,0.0,0.0,0.0,0.0,0.0,0.0,0.0,0.0,0.0,0.0,0.0,0.0,0.0,0.0,0.0,0.0,0.0,0.0,0.0,0.0,1.6697,1.7114,1.7195,1.7917,1.8178,0.0,0.0,0.0,0.0,0.0,0.0,1.9108,1.898,1.9023,1.9312,2.003,2.0564,2.081,2.1382,2.1718,2.18,2.1267,2.1007,2.1007,2.0476,2.0151,1.9994,1.9836,1.9678,1.9503,1.9046,1.8164,1.7091,1.723,1.6234,1.4788,1.512,1.5349,1.5502,1.5599,1.5889,1.6113,1.559,0.0,1.3925,1.3312,0.0,0.0,0.0,0.0,1.4002,1.3984,1.4127,1.4748,1.655,1.6959,1.6959,1.6959,1.6746,1.6009,0.0,1.3383,1.2988,1.2648,0.0,0.0,0.0,0.0,1.4661,1.522,1.5561,1.5924,1.6249,1.6312,1.6312,1.6312,1.6312,1.6312,1.6312,1.6312,1.5846,1.4839,1.4744,1.4066,1.273,0.0,0.0,0.0,0.0,0.0,0.0,0.0,0.0,0.0,0.0,0.0,0.0,0.0,0.0,0.0,0.0,0.0,0.0,0.0,0.0,0.0,0.0,0.0,0.0,0.0,0.0,0.0,0.0,0.0,1.8483,1.8813,0.0,0.0,0.0,0.0,1.8419,1.9066,1.9609,1.9924,2.0293,2.081,2.1517,2.1608,2.179,2.2204,2.2497,2.2828,2.3217,2.3429,2.3535,2.3508,2.2951,2.2418,2.1829,2.1264,2.0668,2.0108,1.9518,1.8589,1.7515,1.7091,1.621,1.5232,1.5754,1.6311,1.6771,1.6597,1.7111,1.7699,1.6593,1.5773,1.493,1.3376,1.3535,0.0,0.0,1.4799,1.6625,1.7049,1.7742,1.8329,1.8465,1.8493,1.8493,1.8493,1.8279,1.7727,0.0,1.5074,1.4564,1.591,0.0,1.5666,1.6266,1.625,1.6483,1.7319,1.6737,1.626,1.6312,1.6312,1.6312,1.6312,1.6312,1.6312,1.6312,1.6312,1.6281,1.6188,1.5577,1.5214,1.5142,1.3754,0.0,0.0,0.0,0.0,0.0,0.0,0.0,0.0,0.0,0.0,0.0,0.0,0.0,0.0,0.0,0.0,0.0,0.0,0.0,0.0,0.0,0.0,0.0,0.0,0.0,0.0,0.0,0.0,1.8662,1.9251,0.0,1.9464,1.9751,1.9916,1.983,2.0291,2.0743,2.1065,2.1469,2.1824,2.2072,2.2303,2.259,2.295,2.3003,2.3097,2.3231,2.2975,2.2788,2.2601,2.2011,2.1607,2.1418,2.1418,2.1081,2.0523,2.0473,1.9994,1.9266,1.9092,1.8668,1.817,1.8388,1.8446,1.8434,1.8357,1.8551,1.8712,1.7956,1.7676,1.7436,1.6528,1.7147,1.7959,1.699,1.7822,1.8909,1.8319,1.8387,1.8837,1.9778,2.003,2.003,2.003,1.9929,1.9805,1.9584,1.8043,1.7013,1.7813,1.8026,1.8215,1.8499,1.8752,1.9099,1.9546,1.9325,1.8845,1.8116,1.8044,1.7696,1.6817,1.6754,1.6754,1.6754,1.6754,1.6562,1.6126,1.597,1.548,1.4683,1.4378,1.3648,0.0,0.0,0.0,0.0,0.0,0.0,0.0,0.0,0.0,0.0,0.0,0.0,0.0,0.0,0.0,0.0,0.0,0.0,0.0,0.0,0.0,0.0,0.0,0.0,0.0,0.0,1.8622,1.9007,1.987,2.0402,2.0342,2.0655,2.0901,2.0958,2.1262,2.1574,2.1881,2.227,2.2521,2.2599,2.2832,2.3225,2.3817,2.3655,2.3789,2.4124,2.375,2.3502,2.3309,2.2894,2.2538,2.2277,2.2581,2.222,2.1349,2.1651,2.1416,2.0824,2.0386,2.0079,1.9916,1.9916,1.9784,1.9594,1.9594,1.9594,1.9558,1.9184,1.9116,1.9059,1.8305,1.9013,1.9859,1.8713,1.9365,2.0239,1.9606,1.9625,2.0046,2.1151,2.1499,2.1602,2.1716,2.1536,2.1534,2.2129,2.0301,1.885,1.9501,1.9863,1.9913,1.9459,1.9988,2.0388,2.0254,2.0378,2.0165,1.9437,1.9562,1.9355,1.8472,1.7798,1.7521,1.7657,1.7107,1.6647,1.6353,1.6232,1.576,1.4789,1.4607,1.3914,1.2757,0.0,0.0,0.0,0.0,0.0,0.0,0.0,0.0,0.0,0.0,0.0,0.0,0.0,0.0,0.0,0.0,0.0,0.0,0.0,0.0,0.0,0.0,0.0,1.6794,1.8409,1.9631,1.9641,2.0695,2.1472,2.1593,2.1618,2.1653,2.1742,2.1846,2.2058,2.2303,2.266,2.2965,2.3221,2.3255,2.3769,2.4802,2.4568,2.4913,2.5885,2.5885,2.5885,2.5885,2.5885,2.5391,2.4539,2.4874,2.4127,2.2695,2.303,2.2781,2.2082,2.0794,2.0269,2.0254,2.0254,2.0239,2.0225,2.0196,2.0196,2.021,2.0225,2.0047,1.9624,1.8468,1.8915,1.9565,1.8452,1.9365,2.0742,2.1078,2.1658,2.2194,2.253,2.2865,2.3183,2.3524,2.3039,2.2845,2.3898,2.1686,2.0025,2.1132,2.1304,2.0816,1.9411,2.0033,0.0,1.9566,1.9883,2.0123,2.0032,2.0659,2.1069,2.1001,1.9299,1.845,1.8904,1.7294,1.6538,1.699,1.6498,1.6054,1.5768,1.4443,1.3797,1.3965,0.0,0.0,0.0,0.0,0.0,0.0,0.0,0.0,0.0,0.0,0.0,0.0,0.0,0.0,0.0,0.0,0.0,0.0,0.0,0.0,0.0,1.8023,1.859,1.8507,1.9253,2.0069,2.0684,2.1404,2.1917,2.2094,2.2118,2.2216,2.2485,2.2521,2.2666,2.2948,2.3496,2.386,2.3914,2.4249,2.4693,2.5234,2.5212,2.5333,2.5623,2.5623,2.5477,2.5257,2.5257,2.5119,2.4874,2.5223,2.4857,2.4074,2.4359,2.3832,2.2766,2.195,2.1496,2.1291,2.1291,2.097,2.0459,1.9784,1.9816,2.0254,2.0488,2.0669,2.0805,2.0692,2.1206,2.172,2.141,2.1848,2.2423,2.2514,2.2682,2.285,2.2941,2.321,2.3495,2.3584,2.3618,2.3808,2.4341,2.3785,2.3303,2.3601,2.366,2.3603,2.3443,2.3654,0.0,2.352,2.3612,2.3008,2.1204,2.0895,2.0168,1.8534,1.7628,1.7248,1.7528,1.7075,1.6872,1.7001,1.6851,1.6743,1.6647,1.5381,1.481,0.0,0.0,0.0,0.0,0.0,0.0,0.0,0.0,0.0,0.0,0.0,0.0,0.0,0.0,0.0,0.0,0.0,0.0,0.0,0.0,0.0,0.0,1.8688,1.959,1.9977,2.0358,2.0848,2.1553,2.2546,2.3026,2.2731,2.3235,2.3425,2.3011,2.3284,2.3549,2.3701,2.4355,2.4686,2.4488,2.4924,2.5285,2.56,2.5686,2.5898,2.6185,2.6185,2.605,2.5872,2.5872,2.5788,2.5637,2.6012,2.5729,2.5005,2.5331,2.4693,0.0,0.0,0.0,0.0,0.0,2.1657,2.1262,2.0691,2.0735,2.1086,2.1276,2.1362,2.146,2.1637,2.1663,2.1583,2.1583,2.1551,2.1596,2.1987,2.2197,2.2392,2.2812,2.3157,2.3414,2.3566,2.3744,2.4061,2.4684,2.4694,0.0,2.4976,2.4658,2.4205,2.3604,2.3932,2.4051,2.3559,2.4339,2.4332,2.2885,2.3012,2.2684,2.1418,2.0342,0.0,0.0,0.0,1.7571,1.6818,1.6582,0.0,0.0,0.0,1.5309,1.5774,0.0,0.0,0.0,1.4328,1.3625,0.0,0.0,0.0,0.0,0.0,0.0,0.0,0.0,0.0,0.0,0.0,0.0,0.0,0.0,0.0,0.0,1.936,2.0319,2.1445,2.181,2.2045,2.2266,2.3931,2.4659,2.362,2.4834,2.5158,2.388,2.4374,2.4754,2.4754,0.0,0.0,0.0,0.0,2.5878,2.5965,2.6135,2.6521,2.7103,2.7103,2.712,2.7172,2.7172,2.7,2.6696,2.7034,2.6604,2.5747,2.6089,2.5456,2.424,2.3414,2.2782,2.2271,2.2169,2.2199,2.2213,2.2111,0.0,0.0,2.2214,2.1993,2.1759,2.1759,2.1145,2.0473,2.0473,2.012,1.9928,2.0736,2.1175,2.1628,2.2446,2.293,2.3289,2.3601,2.3716,2.404,2.4936,2.4843,2.4868,2.5486,2.4819,2.3665,2.2032,2.2693,2.2999,2.2033,2.3665,2.482,2.4715,0.0,0.0,2.6344,2.4769,2.344,2.264,2.053,1.8512,1.6707,1.6175,1.5876,1.5741,1.5422,1.5659,1.6431,1.6378,1.6603,1.6947,1.5114,1.4285,0.0,0.0,0.0,0.0,0.0,0.0,0.0,0.0,0.0,0.0,0.0,0.0,0.0,0.0,0.0,2.0675,2.0726,2.1436,2.3777,2.4144,2.3852,2.3049,2.512,2.6326,2.5528,2.6664,2.7439,2.7475,2.7075,2.6811,2.6811,2.7171,2.6853,2.5736,2.7086,2.7369,2.6371,2.6735,2.6974,2.7103,0.0,0.0,2.7501,2.7501,2.7638,2.7843,2.7604,2.7405,2.7197,2.7006,2.6449,2.5531,2.3778,2.3023,2.2842,2.2067,2.2111,2.2402,2.1657,2.1745,2.2214,2.2214,2.217,2.2096,2.2096,2.2125,0.0,2.2125,2.2257,2.2418,2.2593,2.2696,2.2784,2.2974,2.3486,2.3912,2.3976,2.4426,2.4863,2.5065,2.5052,2.5134,2.5514,2.5203,2.4899,2.4795,2.5233,2.5612,2.5627,2.6261,2.6327,2.5424,2.5233,2.4878,2.4182,2.3448,2.302,2.3066,2.1243,1.937,1.7526,1.7373,1.7298,1.7279,1.7031,1.7022,1.7206,1.6969,1.6915,1.7001,1.6594,1.6115,0.0,0.0,0.0,0.0,0.0,0.0,0.0,0.0,0.0,0.0,0.0,1.9878,2.1643,0.0,2.0607,2.2673,2.275,2.3295,2.5452,2.6872,2.7123,2.5592,2.7206,2.8141,2.7335,2.8498,2.9171,2.8865,2.8813,2.8538,2.7925,2.8782,2.8628,2.7209,2.8151,2.8242,2.7446,2.7388,2.7347,2.7347,2.7535,2.7723,2.7895,2.7895,2.8015,2.8186,2.798,2.7895,2.7846,2.7348,2.6954,2.6518,2.5172,2.4437,2.3977,2.3187,2.3095,2.3228,2.2451,2.2374,2.2652,2.2652,2.2652,2.2652,2.2652,2.2535,2.2403,2.2403,2.2403,2.2476,2.2784,2.2957,2.3193,2.3515,2.3848,2.4094,2.4094,2.462,2.5121,2.5121,2.5388,2.5659,2.5824,2.5677,2.5703,2.6088,2.6454,2.6772,2.6914,2.7248,2.723,2.6672,2.6706,2.6637,2.6189,2.4434,2.3722,2.4614,2.1243,1.9267,1.9255,1.8248,1.7689,1.7689,1.7604,1.755,1.755,1.7421,1.7356,1.7356,1.7356,1.7041,0.0,0.0,0.0,0.0,0.0,0.0,0.0,2.1997,2.2133,2.2574,2.1937,2.1907,2.3848,2.2717,2.2314,2.4768,2.491,2.5347,2.7216,2.9256,3.0155,2.8909,2.9827,3.0119,2.9026,3.0431,3.1029,3.0155,3.0444,3.0264,2.9305,3.0461,3.0355,2.8568,2.9226,2.9311,2.8649,2.8207,2.8008,2.8108,2.8157,2.8237,2.8306,2.8306,2.834,2.8408,2.834,2.8254,2.8154,2.76,2.7379,2.7347,2.6807,2.6213,2.5619,2.4813,2.4423,2.4236,2.3704,2.3422,2.3296,2.3296,2.3296,2.3296,2.3296,2.2945,2.258,2.258,2.2359,2.2271,2.2784,2.3106,2.3427,2.3954,2.4162,2.4188,2.4294,2.4757,2.5208,2.5282,2.5708,2.6076,2.6117,2.6114,2.6274,2.6699,2.7085,2.7372,2.7502,2.782,2.8008,2.8008,2.8535,2.8904,2.8904,2.6131,2.4784,2.5608,2.1262,1.9173,2.0271,1.8731,1.7829,1.7829,1.7819,1.7787,1.7787,1.7744,1.7689,1.7689,1.7689,1.7518,2.3686,2.243,2.1984,2.3778,2.3581,2.3327,0.0,2.4888,2.4878,2.4976,2.4766,2.5027,2.6505,2.5825,2.5575,2.7238,2.6727,2.7023,2.9785,3.0428,3.1098,3.2428,3.2926,3.2479,3.0615,3.2475,3.3666,3.33,3.2748,3.2374,3.2232,3.2387,3.1361,2.8924,3.1072,3.1385,2.9487,2.9356,2.9513,2.9903,2.8748,2.8374,2.8717,2.8717,2.8888,2.9162,2.8854,2.8511,2.8186,2.8123,2.8091,2.8091,2.7997,2.7914,2.7689,2.6439,2.5578,2.5065,2.4985,2.455,2.4001,2.4001,2.4001,2.4001,2.4001,2.3925,2.3899,2.3899,2.3837,2.3869,2.3896,2.394,2.4031,2.4071,2.4338,2.4631,2.4924,2.5232,2.554,2.5833,2.5956,2.6022,2.6085,2.6334,2.6651,2.7,2.7386,2.7868,2.8551,2.89,2.9123,2.9123,2.9186,2.9234,2.9234,2.7412,2.5698,2.4233,2.2031,2.0122,1.8714,1.8449,1.8323,1.8323,1.8153,1.8056,1.8046,1.783,1.7689,1.7689,1.7689,1.7657,2.4916,2.4782,2.5008,2.5861,2.6203,2.6466,2.6822,2.6907,2.6954,2.7266,2.6783,2.686,2.8612,2.7303,2.6757,2.929,2.878,2.8958,3.1573,3.2349,3.2903,3.3581,3.388,3.3609,3.2441,3.3764,3.4473,3.3834,3.4081,3.3797,3.2771,3.3367,3.3046,3.1563,3.2545,3.2448,3.1062,3.0531,2.9958,2.9401,2.9023,2.8922,2.9093,2.9093,2.9179,2.9299,2.9145,2.8991,2.8837,2.8837,2.8837,2.8837,2.8837,2.8837,2.8656,2.729,2.6328,2.5687,2.5333,2.472,2.4118,2.4118,2.4118,2.4118,2.4118,2.4118,2.4118,2.4118,2.425,2.4397,2.4397,2.4543,2.4734,2.4876,2.5022,2.5213,2.5549,2.5725,2.5763,2.5705,2.5886,2.595,2.58,2.6042,2.6379,2.6751,2.7478,2.8092,2.8409,2.8968,2.9298,2.9298,2.9298,2.9298,2.9298,2.7651,2.6276,2.5527,2.2702,2.0768,2.0004,1.8955,1.8398,1.8398,1.8301,1.8258,1.8258,1.8151,1.8097,1.8097,1.8097,1.8097,2.5853,2.6224,2.6729,2.744,2.8057,2.8528,2.8589,2.8609,2.8698,2.9051,2.854,2.847,2.992,2.8735,2.8333,3.0808,3.0633,3.0873,3.2849,3.3725,3.412,3.3927,3.4193,3.4104,3.3286,3.4373,3.4869,3.4298,3.4975,3.4769,3.3282,3.4166,3.4296,3.3443,3.388,3.3711,3.2843,3.2208,3.1452,3.062,3.0104,2.9837,2.9837,2.9382,2.9203,2.9338,2.9338,2.9422,2.9624,2.9624,2.9624,2.9624,2.9624,2.9624,2.949,2.8471,2.7489,2.6648,2.6195,2.5578,2.4973,2.4973,2.4973,2.4907,2.4711,2.463,2.4612,2.4415,2.4583,2.4832,2.4832,2.5115,2.5408,2.5573,2.5559,2.5588,2.5909,2.5909,2.5807,2.5661,2.5822,2.588,2.5559,2.569,2.5991,2.6394,2.731,2.8013,2.8162,2.8861,2.9298,2.9298,2.9298,2.9298,2.9298,2.7651,2.6585,2.6585,2.3121,2.1098,2.1098,1.9362,1.8398,1.8398,1.8398,1.8398,1.8398,1.8398,1.8398,1.8398,1.8398,1.8398,2.6194,2.5735,2.5559,2.8035,2.8354,2.8379,2.9804,3.0125,3.0147,3.0148,3.0125,3.0125,3.0193,3.056,3.1064,3.1686,3.2144,3.27,3.355,3.4111,3.4202,3.3761,3.4134,3.3907,0.0,3.4066,3.5175,3.5348,3.5383,3.5129,3.4457,3.4921,3.4626,3.3443,3.5033,3.5535,3.4723,3.4632,3.4778,3.517,3.2518,3.1258,3.1194,2.9561,2.9025,2.9396,2.9396,2.9766,3.0361,3.0361,3.0361,3.0361,3.0361,3.0361,3.0361,3.0327,2.9429,2.823,2.8196,2.7733,2.7102,2.7102,2.7102,2.6969,2.6252,2.6036,2.5917,2.5259,2.5257,2.5471,2.5471,2.5705,2.5953,2.5968,2.5719,2.5588,2.5909,2.5734,2.5602,2.5909,2.5968,2.588,2.5559,2.55,2.5653,2.6031,2.6766,2.747,2.8095,2.8861,2.9298,2.9298,2.9298,2.9298,2.9298,2.7651,2.6585,2.6585,2.3121,2.1098,2.1098,1.9362,1.8398,1.8398,1.8398,1.8398,1.8398,1.8398,1.8398,1.8398,1.8398,1.8398,2.5968,2.668,2.7621,2.8494,2.9091,2.9596,3.0078,3.0193,3.0193,3.0193,2.9941,2.9734,2.9734,2.9894,3.0285,3.1134,3.141,3.2126,3.3922,3.3412,3.3533,3.5273,3.4584,3.445,0.0,0.0,0.0,3.4511,3.5207,3.5623,3.5591,3.5323,3.5323,3.5564,3.6141,3.6058,3.521,3.5179,3.4202,3.2327,3.0275,2.9314,2.9282,2.8725,2.8527,2.8693,2.9178,2.9513,2.9783,3.0225,3.0395,3.0395,3.0395,3.0395,3.0395,3.0395,3.0106,2.9581,2.8893,2.814,2.7486,2.728,2.72,2.7115,2.6577,2.6435,2.6326,2.583,2.5769,2.5822,2.5822,2.5734,2.5719,2.5959,2.5734,2.5588,2.5909,2.5895,2.5792,2.5676,2.5661,2.5617,2.5515,2.5359,2.5599,2.6666,2.7419,2.8111,2.8846,2.9147,2.9298,2.9298,2.9298,2.9298,2.9298,2.8741,2.7875,2.6671,2.5456,2.3661,2.1181,2.0521,1.963,1.8433,1.8398,1.8398,1.8398,1.8398,1.8398,1.8398,1.8398,1.8398,2.668,2.7713,2.8792,2.916,2.9711,3.0193,3.0193,3.0193,3.0193,3.0193,2.9963,2.9711,2.9527,2.9642,3.0032,3.0858,3.1134,3.1987,3.4105,3.3714,3.386,3.5636,3.4968,3.4904,3.623,0.0,0.0,3.4583,3.5325,3.5733,3.5541,3.5499,3.5845,3.6675,3.685,3.6764,3.6368,3.6368,3.4824,3.175,3.0666,2.9434,2.8097,2.8097,2.8097,2.8147,2.8743,2.9077,2.9278,3.0122,3.0429,3.048,3.072,3.084,3.084,3.084,3.084,3.0686,2.9698,2.9074,2.8618,2.8275,2.8161,2.8026,2.7238,2.6994,2.6835,2.6027,2.5895,2.5953,2.5836,2.5734,2.5719,2.5939,2.5734,2.5559,2.5763,2.5754,2.5608,2.5403,2.5359,2.5359,2.5359,2.5422,2.575,2.6651,2.7511,2.8317,2.9178,2.9298,2.9298,2.9298,2.9298,2.9298,2.9298,2.9298,2.8746,2.7484,2.6766,2.5292,2.2797,2.2052,2.0903,1.9227,1.9192,1.8912,1.8398,1.8398,1.8398,1.8398,1.8398,1.8398,2.8149,2.8723,2.9022,2.9964,3.0193,3.0193,3.0193,3.0193,3.017,3.0124,3.0124,2.9964,2.9481,2.978,3.0262,3.0858,3.134,3.2263,3.4105,3.476,3.5028,3.4836,3.5286,3.5241,3.4397,3.5123,0.0,3.558,0.0,3.55,3.4706,3.5524,3.6246,3.6719,3.7208,3.7636,3.8095,3.8046,3.6551,3.365,3.3418,3.1396,2.7832,2.7716,2.7716,2.7782,2.8139,2.8537,2.8958,3.0016,3.0456,3.056,3.123,3.1508,3.1543,3.1543,3.1543,3.144,3.0652,3.0395,3.0327,2.9984,2.9864,2.9597,2.8166,2.7759,2.7453,2.5997,2.5818,2.5979,2.5637,2.5734,2.5953,2.5953,2.5705,2.5471,2.5471,2.5271,2.5086,2.5086,2.51,2.5115,2.51,2.5652,2.6081,2.6115,2.7019,2.8033,2.9111,2.9246,2.9298,2.9298,2.9298,2.9298,2.9298,2.9298,2.9155,2.8856,2.7145,2.5941,2.5446,2.3687,2.2061,2.0539,2.0539,1.9843,1.8441,1.8441,1.8441,1.8441,1.8441,1.8441,2.8126,2.8976,2.9872,3.0124,3.0193,3.0193,3.0193,3.0193,3.0009,2.9251,2.9091,2.8815,2.7945,2.8218,2.8953,3.0193,3.0491,3.1272,3.33,3.3522,3.3955,3.5237,3.5523,3.5961,3.6898,3.6817,0.0,0.0,3.6415,3.659,3.7078,3.6751,3.6748,3.7229,3.768,3.7986,3.8117,3.7213,3.6344,3.5554,3.2642,3.0753,2.9741,2.808,2.7334,2.7383,2.8004,2.8369,2.8536,2.932,2.9829,3.0052,3.0256,3.0496,3.072,3.072,3.072,3.0686,3.0463,3.0395,3.0292,2.9676,2.9453,2.9323,2.8658,2.847,2.8214,2.7028,2.6748,2.6688,2.6055,2.5734,2.5617,2.5617,2.5403,2.5217,2.5217,2.5144,2.5086,2.5086,2.5242,2.533,2.513,2.5589,2.613,2.6444,2.6944,2.755,2.8373,2.8694,2.8959,2.9262,2.9298,2.9298,2.9298,2.9298,2.925,2.9171,2.7614,2.6042,2.4572,2.2975,2.1282,1.9537,1.9501,1.9285,1.8935,1.8935,1.8935,1.8935,1.8935,1.8935,2.8907,2.9573,3.0193,3.0193,3.0193,3.0078,2.962,2.9711,2.9619,2.8586,2.8563,2.8471,2.769,2.7805,2.8471,2.9963,3.0193,3.0951,3.3119,3.3437,3.4012,3.5606,3.59,3.6433,3.7716,3.7682,3.7539,3.7362,3.6989,3.6929,3.7267,3.7067,3.7182,3.768,3.7964,3.8313,3.8728,3.8295,3.7564,3.6591,3.44,3.2353,3.0476,2.9192,2.813,2.7225,0.0,2.8027,2.8096,2.8822,2.9257,2.9444,2.9594,2.9798,2.9986,3.0122,3.0157,3.0174,3.019,3.0189,3.0121,2.971,2.9573,2.9475,2.8876,2.869,2.8503,2.7604,2.715,2.6759,2.6209,2.5687,2.5315,2.5315,2.5217,2.5086,2.5086,2.5086,2.5086,2.5086,2.5315,2.5442,2.5286,2.5681,2.6088,2.6283,2.66,2.7057,2.7646,2.831,2.8779,2.8995,2.919,2.9298,2.9298,2.9298,2.9234,2.9075,2.8223,2.6911,2.5028,2.4121,2.2497,2.0114,2.0077,1.9751,1.9118,1.9118,1.9118,1.9118,1.9118,1.9118,2.9894,3.0147,3.0193,3.0193,3.0193,2.9987,2.9183,2.9251,2.9228,2.8285,2.8377,2.8471,2.8079,2.8056,2.8561,2.9964,3.0307,3.102,3.2921,3.3798,3.4613,3.5668,3.6183,3.6785,3.7622,3.797,3.8194,3.8292,3.7696,3.7161,3.6682,3.7141,3.767,3.827,3.8292,3.876,3.9656,4.0093,3.9356,3.7422,3.7069,3.4831,3.0976,3.0639,2.9319,2.736,2.762,2.7703,2.7752,2.8344,2.8607,2.8707,2.9037,2.9204,2.9306,2.9613,2.9749,2.9749,2.9798,2.9813,2.9813,2.9813,2.9813,2.9679,2.8993,2.8792,2.8624,2.7966,2.7238,2.6583,2.621,2.5611,2.5086,2.5086,2.5086,2.5086,2.5086,2.5086,2.51,2.5144,2.5344,2.55,2.5559,2.5836,2.6076,2.6076,2.6398,2.6761,2.706,2.8028,2.8733,2.8769,2.9145,2.9377,2.9425,2.9393,2.925,2.9031,2.8787,2.7936,2.6237,2.5718,2.4232,2.1547,2.1233,2.0495,1.9204,1.9204,1.9204,1.9204,1.9204,1.9204,2.9688,2.9895,3.0193,3.0193,3.0193,3.0262,3.0537,3.0032,2.932,2.87,2.8333,2.8102,2.801,2.8331,2.893,3.001,3.0767,3.1159,3.1112,3.3383,3.4954,3.4791,3.5935,3.7099,3.8092,3.7662,3.7743,0.0,3.9003,3.8787,3.8089,3.8251,3.8653,3.9338,3.9328,3.9612,4.0181,4.0268,4.0105,3.9704,3.7478,3.5451,3.3576,3.1349,2.9511,2.8081,2.7816,0.0,2.7685,2.7532,2.7647,2.7913,2.7962,2.8211,2.8511,2.8859,2.8992,2.9025,2.9304,2.9419,2.9419,2.9419,2.9419,2.9386,2.9237,2.9204,2.9039,2.8395,2.7663,2.693,2.6264,2.5611,2.5086,2.5086,2.5086,2.5086,2.5086,2.5086,2.5173,2.5403,2.5456,2.5588,2.5886,2.6208,2.6413,2.6413,2.6925,2.724,2.7048,2.7994,2.8814,2.9091,2.9472,2.9838,3.0124,2.9849,2.9822,3.0029,2.8847,2.8,2.7643,2.4829,2.298,2.2467,2.0928,2.0025,1.9763,1.9763,1.9763,1.9763,1.9763,1.9763,2.9619,2.9848,3.0193,3.0193,3.0193,3.0078,2.955,2.9251,2.8792,2.778,2.7575,2.7598,2.7598,2.7782,2.8404,2.9941,3.0628,3.132,3.23,3.3763,3.4982,3.5418,3.6008,3.6692,3.7453,3.7147,3.7298,3.8353,3.8704,3.8879,3.8871,3.9105,3.9348,3.9601,3.9831,4.0071,4.0312,4.0312,4.0181,3.9918,3.8616,3.6568,3.3823,3.2348,3.0467,2.8263,2.7882,0.0,2.7949,2.7602,2.7537,2.7687,2.7519,2.765,2.8015,2.8395,2.8642,2.884,2.9185,2.9316,2.9316,2.9316,2.9316,2.9316,2.9316,2.9316,2.9152,2.8494,2.7766,2.7034,2.6282,2.5611,2.5086,2.5086,2.5086,2.5086,2.5086,2.5217,2.5344,2.5471,2.5763,2.6091,2.6237,2.6544,2.6822,2.6983,2.713,2.7232,2.7247,2.7932,2.8462,2.8608,2.8992,2.9382,2.9738,2.9647,2.9615,2.9774,2.908,2.8406,2.7791,2.6089,2.4397,2.2748,2.1808,2.0898,1.9881,1.9881,1.9881,1.9881,1.9881,1.9881,2.9734,2.994,3.0193,3.0193,3.0193,2.9917,2.8723,2.8586,2.8356,2.7205,2.7093,2.7279,2.7486,2.7532,2.8105,2.9895,3.0442,3.1343,3.3476,3.4143,3.4888,3.6241,3.6347,3.6547,3.7136,3.7156,3.7457,3.8254,3.8559,3.8949,3.9494,3.9625,3.973,3.9754,4.0115,4.0268,4.0159,4.0159,3.9918,3.9437,3.902,3.6967,3.3482,3.2819,3.098,2.8263,2.7882,0.0,0.0,2.7735,2.7604,2.7572,2.7289,2.7351,2.765,2.813,2.8461,2.8741,2.9152,2.9316,2.9316,2.9316,2.9316,2.9316,2.9316,2.9316,2.9185,2.8659,2.7865,2.7067,2.6483,2.5712,2.5086,2.5086,2.5086,2.5115,2.5173,2.5359,2.5529,2.5676,2.6149,2.653,2.6603,2.6881,2.7159,2.7349,2.7276,2.7247,2.7401,2.7718,2.7961,2.7994,2.848,2.8992,2.9375,2.942,2.9441,2.9504,2.952,2.9154,2.8245,2.7814,2.6444,2.3972,2.3101,2.1971,2.0513,2.0092,1.9881,1.9881,1.9935,1.9968,3.001,3.017,3.0193,3.0193,3.0193,3.0147,3.001,2.932,2.8654,2.8517,2.7807,2.7486,2.8402,2.8563,2.893,3.001,3.0442,3.1087,3.2442,3.3694,3.4961,3.6265,3.6966,3.7672,3.8468,3.8526,3.8807,3.9581,3.9878,4.0081,4.0211,3.9645,3.9611,4.0224,4.029,4.0093,3.9656,3.9656,3.9416,3.8872,3.7202,3.5393,3.3431,3.1769,3.0018,2.8263,2.7882,0.0,0.0,2.7372,2.7258,2.7247,2.7206,2.7234,2.7334,2.8031,2.8329,2.8428,2.9086,2.9316,2.9316,2.9316,2.9316,2.9316,2.9316,2.9316,2.9283,2.9218,2.8229,2.7167,2.7134,2.6097,2.5086,2.5086,2.5086,2.5173,2.5418,2.5471,2.5676,2.6296,2.6457,2.6603,2.6896,2.7217,2.7349,2.7071,2.751,2.7619,2.71,2.7327,2.7571,2.7631,2.855,2.9335,2.97,2.9745,2.9865,3.0203,3.0219,3.0304,3.0593,2.889,2.7955,2.798,2.4518,2.2623,2.2447,2.0736,1.9881,1.9892,2.0081,2.0177,2.9251,2.9757,3.0193,3.0193,3.0423,3.0445,2.9527,2.9251,2.893,2.7991,2.7486,2.7325,2.7715,2.7807,2.822,2.9573,3.0003,3.0994,3.3326,3.4252,3.5306,3.6942,3.7352,3.7551,3.7727,3.7701,3.8021,3.8826,3.8987,3.9366,4.0083,3.9988,3.9962,4.0088,4.0256,4.0071,3.959,3.9622,3.9197,3.837,3.7905,3.61,3.3065,3.2424,3.0583,2.7915,2.755,0.0,0.0,2.7226,2.7163,2.7132,2.7176,2.7467,2.7898,2.8196,2.856,2.8955,2.9218,2.9316,2.9316,2.9316,2.9316,2.9316,2.9316,2.9316,2.9218,2.8823,2.8296,2.7766,2.73,2.645,2.5611,2.5187,2.5232,2.5374,2.5471,2.5807,2.6193,2.6457,2.6661,2.6837,2.6969,2.71,2.7203,2.7276,2.7335,2.7349,2.7327,2.7232,2.7203,2.7253,2.7997,2.8794,2.9408,2.9492,2.9743,3.0283,3.0087,3.0267,3.0877,3.0146,2.9359,2.8541,2.6968,2.5107,2.2927,2.218,2.1302,2.0313,2.0421,2.0425,2.8861,2.955,3.0193,3.0193,3.0377,3.0239,2.8976,2.8884,2.87,2.7463,2.721,2.721,2.721,2.7325,2.7876,2.9274,2.9913,3.1089,3.3598,3.4262,3.5096,3.6822,3.7032,3.7165,3.7399,3.7674,3.806,3.871,3.8762,3.9053,3.976,3.9954,4.0045,3.9952,3.9988,3.9784,3.9333,3.9216,3.8803,3.8117,3.8039,3.6373,3.3403,3.3373,3.1447,2.8097,2.8163,0.0,0.0,2.7193,2.7179,2.7147,2.7292,2.7666,2.8163,2.8362,2.8757,2.9185,2.9283,2.9316,2.9316,2.9316,2.9316,2.9316,2.9316,2.9316,2.9218,2.8725,2.8296,2.7799,2.7067,2.635,2.5708,2.5305,2.5374,2.5544,2.5749,2.6179,2.653,2.6632,2.691,2.71,2.7013,2.7144,2.7291,2.732,2.7217,2.7188,2.732,2.713,2.6983,2.6983,2.7565,2.8231,2.8985,2.9184,2.9549,3.0246,3.0092,3.0235,3.0877,3.0893,3.0409,2.938,2.8777,2.7262,2.4701,2.3623,2.2478,2.1335,2.0904,2.0744,2.9206,2.9848,3.0193,3.0193,2.9871,2.9366,2.8815,2.8354,2.7851,2.7302,2.721,2.721,2.721,2.7644,2.8331,2.9343,3.0354,3.1435,3.2714,3.3367,3.4188,3.5474,3.585,3.6572,3.8054,3.9146,3.9779,3.9779,3.9779,0.0,3.9308,3.9491,3.968,3.9783,3.9495,3.9095,3.86,3.8271,3.8117,3.8064,3.677,3.5654,3.4757,3.4432,3.2357,2.9037,3.0044,2.922,0.0,2.719,2.7192,2.723,2.7571,2.77,2.7783,2.8527,2.8807,2.884,2.9185,2.9316,2.9316,2.9316,2.9316,2.9316,2.9316,2.9316,2.9316,2.9283,2.8296,2.7034,2.6316,2.5611,2.5173,2.5412,2.5486,2.5676,2.6354,2.65,2.6603,2.6925,2.7283,2.7401,2.7042,2.7488,2.7692,2.7086,2.7261,2.7386,2.7042,2.6998,2.6983,2.6983,2.7347,2.7918,2.8633,2.9001,2.9508,3.0262,3.0315,3.0473,3.0893,3.0893,3.1067,3.1379,2.9487,2.8488,2.845,2.4829,2.3084,2.3058,2.157,2.1028,2.7366,2.8287,2.9091,2.8769,2.9091,2.9274,2.8423,2.8356,2.8241,2.7371,2.721,2.7302,2.769,2.7895,2.8425,2.978,3.0537,3.1617,3.3417,3.4109,3.4904,3.6191,3.7045,3.7683,3.8085,3.8327,3.8718,3.9409,3.881,3.8689,3.9262,3.938,3.9491,3.9657,3.9419,3.9095,3.86,3.86,3.8413,3.8117,3.8395,3.7192,3.4819,3.5719,3.3532,2.9052,3.0044,2.9253,0.0,2.719,2.7357,2.7539,2.767,2.8015,2.8461,2.8708,2.8972,2.9152,2.925,2.9316,2.9316,2.9316,2.9316,2.9316,2.9316,2.9316,2.9316,2.9316,2.8659,2.7766,2.7034,2.6485,2.6004,2.5609,2.5836,2.6252,2.6457,2.6676,2.6866,2.6969,2.7071,2.7115,2.7013,2.7159,2.7232,2.7027,2.7086,2.7115,2.6998,2.6983,2.6983,2.6983,2.7093,2.768,2.8938,2.914,2.9712,3.096,3.0823,3.0893,3.1242,3.122,3.1268,3.1395,3.0807,2.9923,2.8788,2.7625,2.5857,2.3523,2.1916,2.12,2.5978,2.7208,2.8377,2.8079,2.8469,2.8769,2.8147,2.8057,2.7945,2.7325,2.7509,2.7807,2.7987,2.8448,2.9068,2.9825,3.1019,3.2192,3.3189,3.3851,3.4489,3.5139,3.656,3.7579,3.7803,3.8148,3.8619,3.9262,3.8711,3.8642,3.9262,3.9308,3.9357,3.9468,3.9128,3.8903,3.8792,3.8618,3.8597,3.8663,3.9284,3.8441,3.6373,3.7653,3.5299,3.0287,3.1273,2.9969,0.0,2.7337,2.7521,2.7736,2.7999,2.8395,2.8807,2.8922,2.9119,2.9316,2.9316,2.9316,2.9316,2.9316,2.9316,2.9316,2.9316,2.9316,2.9316,2.9316,2.8626,2.7798,2.7476,2.6772,2.613,2.5947,2.6208,2.653,2.6661,2.6852,2.6983,2.6983,2.7086,2.713,2.7013,2.7086,2.713,2.7013,2.6983,2.6983,2.6983,2.6983,2.6983,2.6983,2.71,2.7674,2.8867,2.9124,2.976,3.1101,3.1112,3.1195,3.1379,3.1395,3.1395,3.1395,3.1395,3.0879,2.9843,2.9207,2.7474,2.4709,2.3015,2.2234,0.0,2.6352,2.7895,2.7849,2.7895,2.7941,2.7941,2.7575,0.0,2.7302,2.8036,2.8586,2.8218,2.932,3.0101,2.9688,3.1639,3.3001,3.232,3.289,3.3261,3.2914,3.4971,3.6654,3.7286,3.8543,3.9308,3.9308,3.9308,3.9308,3.9308,3.9308,3.9308,3.9308,3.8708,3.8634,3.9105,3.8477,3.8597,3.9481,3.959,3.9328,3.8741,3.9799,3.7385,0.0,3.3277,3.1246,0.0,2.7584,2.7733,2.7849,2.8527,2.8807,2.8873,2.9185,2.9316,2.9316,2.9316,2.9316,2.9316,2.9316,2.9316,2.9316,2.9316,2.9316,2.9316,2.9316,2.8296,2.728,2.7611,2.6615,2.569,2.6354,2.6515,2.6617,2.6925,2.6983,2.6983,2.6983,2.7232,2.7386,2.7042,2.7247,2.7371,2.7042,2.6983,2.6983,2.6983,2.6983,2.6998,2.7027,2.7291,2.7799,2.8514,2.8942,2.9647,3.0747,3.1164,3.1356,3.1395,3.1395,3.1395,3.1395,3.1395,3.1395,3.1395,2.9726,2.8061,2.6438,2.4641,2.3816,2.1855,0.0,2.6746,2.6335,2.682,2.7394,0.0,2.7302,2.7417,2.8195,2.854,2.8907,2.9573,3.0285,3.0767,3.0675,3.18,3.263,3.2448,3.3595,3.4177,3.3507,3.5794,3.7267,3.6826,3.8308,3.9308,3.9308,3.9308,3.9308,3.9308,3.9308,3.9308,3.9308,3.8708,3.8634,3.9105,3.8777,3.8566,3.8466,3.9612,3.9306,3.7767,3.9525,3.7385,3.2365,3.3277,3.1361,2.7584,2.7683,2.8015,2.856,2.8741,2.8972,2.9185,2.9283,2.9316,2.9316,2.9316,2.9316,2.9316,2.9316,2.9316,2.9316,2.9316,2.9316,2.9316,2.9316,2.8296,2.728,2.7611,2.6782,2.6003,2.6413,2.6691,2.6896,2.6969,2.6983,2.6983,2.6983,2.7056,2.7086,2.6998,2.7056,2.7086,2.6998,2.6983,2.6983,2.6983,2.6983,2.7086,2.7371,2.7437,2.7752,2.8385,2.8811,2.9549,3.0724,3.091,3.1087,3.1395,3.1395,3.1395,3.1395,3.1395,3.1395,3.1395,2.9726,2.87,2.8218,2.5185,2.3816,2.1072,2.3402,2.6073,2.5899,2.6512,2.7325,2.7784,2.7532,2.7486,2.8494,2.87,2.9022,3.001,3.0262,3.0445,3.0904,3.1456,3.2053,3.2789,3.3775,3.4223,3.3691,3.5366,3.6579,3.6594,3.8239,3.9308,3.9308,3.9308,3.9308,3.9308,3.9308,3.9308,3.9308,3.8834,3.8732,3.9105,3.8667,3.8326,3.8117,3.9394,3.9306,3.8064,3.8573,3.664,3.2908,3.2413,3.048,2.7733,2.7867,2.8278,2.8807,2.8972,2.9152,2.9316,2.9316,2.9316,2.9316,2.9316,2.9316,2.9316,2.9316,2.9316,2.9316,2.9316,2.9316,2.9316,2.9316,2.8296,2.7312,2.7752,2.695,2.6135,2.6617,2.6866,2.6983,2.6983,2.6983,2.6983,2.6983,2.6983,2.6983,2.6983,2.6983,2.6983,2.6983,2.6983,2.6983,2.6983,2.6983,2.7115,2.7474,2.7613,2.7891,2.835,2.8756,2.9368,3.0415,3.0663,3.0971,3.1395,3.1395,3.1395,3.1395,3.1395,3.1395,3.1395,2.9726,2.8895,2.8817,2.5396,2.3816,2.1292,2.3284,2.5593,2.6,2.6657,2.7463,2.8471,2.7922,2.7532,2.87,2.893,2.9228,3.0147,3.0193,3.0262,3.079,3.1042,3.1614,3.2921,3.3627,3.3917,3.3672,3.4642,3.5686,3.6554,3.82,3.9216,3.9285,3.9308,3.9308,3.9308,3.9308,3.9308,3.9308,3.896,3.8867,3.8993,3.8442,3.8104,3.8008,3.9,3.9017,3.8181,3.73,3.558,3.3176,0.0,0.0,2.7883,2.8177,2.8504,2.8906,2.9185,2.9316,2.9316,2.9316,2.9316,2.9316,2.9316,2.9316,2.9316,2.9316,2.9316,2.9316,2.9316,2.935,2.9402,2.9402,2.8444,2.7557,2.7974,2.7188,2.6379,2.6888,2.6983,2.6983,2.6983,2.6983,2.6983,2.6983,2.6983,2.6983,2.6983,2.6983,2.6983,2.6983,2.6983,2.6983,2.6983,2.7027,2.7188,2.751,2.7794,2.8116,2.8437,2.8739,2.9197,2.9935,3.0415,3.0894,3.1395,3.1395,3.1395,3.1395,3.1148,3.1033,3.0994,2.9323,2.8491,2.8413,2.5277,2.3816,2.0997,2.2949,2.4966,2.6209,2.6864,2.7463,2.8471,2.7922,2.7738,2.9574,2.9964,3.017,3.0767,3.1892,3.219,3.056,3.1243,3.2008,3.2237,3.3237,3.3914,3.3922,3.5362,3.6513,3.6901,3.8017,3.8872,3.9285,3.9308,3.9308,3.9308,3.9308,3.9308,3.9308,3.896,3.8708,3.8522,3.8531,3.8196,3.7535,3.8488,3.7695,3.5448,3.6113,3.457,3.1409,0.0,3.0051,2.8626,2.8674,2.8904,2.9218,2.9283,2.9316,2.9316,2.9316,2.9316,2.9316,2.9316,2.9316,2.9316,2.9316,2.9316,2.9316,2.9316,2.9539,2.9813,2.9813,2.9178,2.8487,2.8175,2.7741,2.7301,2.7041,2.6983,2.6983,2.6983,2.6983,2.6983,2.6983,2.6983,2.6983,2.6983,2.6983,2.6983,2.6983,2.6983,2.6983,2.6983,2.7269,2.7525,2.7809,2.8131,2.8452,2.8798,2.8856,2.9095,2.9562,2.9989,3.057,3.1356,3.1395,3.1395,3.1395,2.9998,2.9284,2.9284,2.7538,2.6713,2.6635,2.4721,2.3816,2.1211,2.3036,2.5046,2.7283,2.7535,2.7761,2.9871,2.8723,2.7901,3.0491,2.9801,2.9291,3.1089,3.1182,3.0859,3.0491,3.2033,3.3181,3.2959,3.372,3.4471,3.4775,3.5644,3.6432,3.6956,3.7976,3.878,3.9262,3.9308,3.9308,3.9308,3.9308,3.9308,3.9308,3.9137,3.8864,3.841,3.8454,3.8019,3.7025,3.7986,3.7257,3.5098,3.4879,3.3513,3.122,0.0,2.9232,2.879,2.8785,2.9014,2.9316,2.9316,2.9316,2.9316,2.9316,2.9316,2.9316,2.9316,2.9316,2.9316,2.9316,2.9316,2.935,2.9573,2.9761,2.9932,3.0138,2.9665,2.9136,2.9084,2.8665,2.8144,2.7707,2.7601,2.7492,2.7093,2.6983,2.6983,2.6983,2.6983,2.6983,2.6983,2.6983,2.6983,2.6983,2.6983,2.6983,2.6983,2.7276,2.7598,2.7882,2.8204,2.8525,2.8871,2.8886,2.9158,2.9795,3.0222,3.0763,3.1356,3.1395,3.1395,3.1395,3.0818,2.9985,2.8895,2.7311,2.6003,2.4907,2.3216,2.2475,2.1383,2.3021,2.4911,2.7809,2.7871,2.8013,3.1089,2.9412,2.8059,3.1088,2.9799,2.8894,3.1365,3.0468,2.9734,3.0848,3.267,3.3933,3.3876,3.436,3.5003,3.5623,3.5804,3.6228,3.7094,3.793,3.8642,3.9262,3.9308,3.9308,3.9308,3.9308,3.9308,3.9308,3.9308,3.9012,3.841,3.841,3.7881,3.6872,3.7593,3.7019,3.5222,3.3926,3.2607,3.1207,2.9208,2.8571,2.8905,2.8927,2.9059,2.9316,2.9316,2.9316,2.9316,2.9316,2.9316,2.9316,2.9316,2.9316,2.9316,2.9316,2.9367,2.9504,2.9813,3.0018,3.0224,3.0446,3.0257,2.9926,2.9901,2.9401,2.8787,2.8213,2.7964,2.771,2.7129,2.6983,2.6983,2.6983,2.6983,2.6983,2.6983,2.6983,2.6983,2.6983,2.6983,2.6983,2.6983,2.7335,2.7686,2.7882,2.8262,2.8676,2.8988,2.9042,2.9407,3.0222,3.0585,3.0971,3.1395,3.1474,3.1522,3.1522,3.1465,3.0657,2.9115,2.7159,2.5412,2.386,2.2135,2.1316,2.122,2.2635,2.4049,2.6802,2.7356,2.8013,3.1089,2.9412,2.8059,3.1088,3.0813,3.0354,3.1571,3.1085,3.0893,3.2087,3.2641,3.3301,3.4464,3.4823,3.5273,3.6127,3.5982,3.6309,3.7604,3.7793,3.8252,3.9239,3.9308,3.9308,3.9308,3.9308,3.9308,3.9308,3.9308,3.9012,3.841,3.841,3.8058,3.7361,3.7426,3.6524,3.4798,3.3454,3.211,3.0764,2.9347,2.8938,2.925,2.9249,2.9282,2.9316,2.9316,2.9316,2.9316,2.9316,2.9316,2.9316,2.9316,2.9316,2.9316,2.9316,2.9556,2.9864,2.9881,3.0378,3.0943,3.096,3.1182,3.1194,3.0173,2.9579,2.9087,2.8274,2.7565,2.7056,2.702,2.6983,2.6983,2.6983,2.6983,2.6983,2.6983,2.6983,2.6983,2.6983,2.6983,2.6983,2.6983,2.7488,2.7882,2.7911,2.8491,2.9027,2.9407,2.9446,2.9849,3.0701,3.0794,3.0971,3.1395,3.1713,3.1872,3.1872,3.0684,2.9979,2.9844,2.6235,2.4421,2.4235,2.2214,2.1316,2.1908,2.3021,2.4237,2.8165,2.8168,2.8013,3.1019,2.9871,2.8999,3.2076,3.0974,2.9681,3.0419,3.1086,3.1728,3.2308,3.2879,3.3582,3.4544,3.5027,3.5505,3.6223,3.6196,3.6415,3.7214,3.7609,3.812,3.8803,3.9124,3.9308,3.9308,3.9308,3.9308,3.9308,3.9308,3.9101,3.8633,3.85,3.8171,3.7728,3.7495,3.6624,3.5108,3.3509,3.2181,3.1033,2.9463,2.9005,2.9316,2.9316,2.9316,2.9316,2.9316,2.9316,2.9316,2.9316,2.9316,2.9316,2.9316,2.9316,2.935,2.959,2.9778,2.9984,3.0446,3.0789,3.1063,3.1285,3.1492,3.149,3.1072,3.0468,2.9783,2.903,2.8253,2.7565,2.7093,2.6983,2.6983,2.6983,2.6983,2.6983,2.6983,2.6983,2.6983,2.6983,2.6983,2.7071,2.7261,2.7671,2.7984,2.8189,2.8637,2.9056,2.9484,2.9718,3.0144,3.074,3.0794,3.1065,3.1674,3.1856,3.2015,3.2221,3.1955,3.1174,2.9903,2.7419,2.557,2.4259,2.2254,2.1316,2.213,2.3367,2.4757,2.841,2.8257,2.8013,3.1019,3.017,2.9481,3.226,3.1504,3.0397,3.049,3.1471,3.2282,3.2473,3.2993,3.3741,3.4791,3.5199,3.5643,3.6223,3.6305,3.6461,3.6961,3.7494,3.7999,3.8579,3.9033,3.9308,3.9308,3.9308,3.9308,3.9308,3.9308,3.9137,3.8812,3.8537,3.8231,3.7908,3.7555,3.692,3.5961,3.3791,3.2499,3.1835,2.9724,2.9005,2.9316,2.9316,2.9316,2.9316,2.9316,2.9316,2.9316,2.9316,2.9316,2.9316,2.9316,2.9316,2.9367,2.9778,2.9967,3.0189,3.0823,3.1097,3.1234,3.1526,3.1595,3.1595,3.1595,3.0852,2.9926,2.9441,2.8506,2.7601,2.7093,2.6983,2.6983,2.6983,2.6983,2.6983,2.6983,2.6983,2.6983,2.6983,2.6983,2.7115,2.7474,2.7721,2.8072,2.8496,2.8769,2.9119,2.964,2.9935,3.0423,3.1089,3.1144,3.1354,3.1864,3.2126,3.2348,3.2571,3.2976,3.2458,3.1037,2.8573,2.666,2.5194,2.2531,2.1316,2.1678,2.3535,2.5552,2.7042,2.7311,2.8013,3.1066,3.0192,2.9297,3.1364,3.2582,3.3034,3.2237,3.2307,3.2571,3.2679,3.2928,3.3636,3.5178,3.5395,3.5643,3.6223,3.6305,3.6461,3.6961,3.7494,3.8028,3.8527,3.9033,3.9308,3.9308,3.9308,3.9308,3.9308,3.9308,3.9137,3.8812,3.8537,3.8231,3.7908,3.7555,3.7404,3.7314,3.4198,3.3024,3.3253,3.0148,2.8988,2.9316,2.9316,2.9316,2.9316,2.9316,2.9316,2.9316,2.9316,2.9316,2.9316,2.9316,2.9316,2.9384,2.9778,3.0138,3.0481,3.0874,3.1268,3.1595,3.1595,3.1595,3.1595,3.1595,3.0461,2.9298,2.9298,2.8145,2.6998,2.6983,2.6983,2.6983,2.6983,2.6983,2.6983,2.6983,2.6983,2.6983,2.6983,2.6983,2.7115,2.7474,2.7721,2.816,2.8827,2.8886,2.9236,3.0028,3.0105,3.0631,3.1825,3.1935,3.1935,3.1935,3.2587,3.2992,3.2992,3.3342,3.3492,3.3476,2.9396,2.7418,2.7283,2.3219,2.1316,2.32,2.4449,2.5696,2.7798,2.8278,2.8494,2.9412,2.9688,3.0147,3.1502,3.1839,3.1716,3.1145,3.1952,3.2716,3.2697,3.3187,3.4032,3.5223,3.5395,3.5643,3.6223,3.6305,3.635,3.6484,3.7288,3.789,3.8051,3.8826,3.9308,3.9308,3.9308,3.9308,3.9308,3.9308,3.9249,3.9137,3.8649,3.835,3.8261,3.7668,3.7404,3.7283,3.3948,3.3308,3.457,3.0307,2.9332,3.0631,2.9691,2.9316,2.9316,2.9316,2.9316,2.9316,2.9316,2.9316,2.9316,2.9316,2.9487,2.9778,3.0155,3.0498,3.0909,3.1285,3.1509,3.1595,3.1595,3.1595,3.1595,3.1595,3.0852,2.9962,2.9441,2.8542,2.7638,2.7093,2.6983,2.6983,2.6983,2.6983,2.6983,2.6983,2.6983,2.6983,2.6983,2.6983,2.7188,2.7707,2.8286,2.8681,2.8871,2.8886,2.934,3.0441,3.0534,3.1026,3.2158,3.2507,3.269,3.269,3.2881,3.312,3.3358,3.3429,3.3492,3.3476,2.9396,2.7418,2.7283,2.3219,2.1316,2.485,2.5996,2.7129,2.9348,2.9297,2.8815,2.9206,2.9757,3.056,3.1811,3.1986,3.1841,3.1532,3.2352,3.3091,3.3135,3.3682,3.4378,3.5295,3.5395,3.5643,3.6223,3.6305,3.6305,3.6305,3.7012,3.7563,3.777,3.855,3.9101,3.9285,3.9308,3.9308,3.9308,3.9308,3.9308,3.9308,3.8708,3.841,3.838,3.7728,3.7404,3.7283,3.3854,3.3151,3.4363,3.0405,2.9397,3.0437,2.9626,2.9316,2.9316,2.9316,2.9316,2.9316,2.9316,2.9316,2.9316,2.9316,2.9573,2.995,3.0275,3.0652,3.108,3.1492,3.1595,3.1595,3.1595,3.1595,3.1595,3.1595,3.1241,3.0603,2.9549,2.8686,2.7891,2.7165,2.6983,2.6983,2.6983,2.6983,2.6983,2.6983,2.6983,2.6983,2.6983,2.7203,2.7473,2.7868,2.8505,2.8886,2.8886,2.8886,2.9384,3.0593,3.0687,3.1242,3.2562,3.2881,3.3056,3.3199,3.3215,3.331,3.3476,3.3492,3.3492,3.3476,3.022,2.8179,2.7323,2.4004,2.2081,2.6497,2.7779,2.9137,3.0973,3.0032,2.9,3.0148,3.0354,3.0719,3.2237,3.2647,3.2755,3.2805,3.3206,3.3607,3.3781,3.4179,3.4702,3.5285,3.5395,3.5593,3.6196,3.6277,3.6305,3.6305,3.6709,3.7214,3.7747,3.8304,3.8803,3.9285,3.9308,3.9308,3.9308,3.9308,3.9308,3.9308,3.8708,3.841,3.838,3.7728,3.7404,3.7283,3.401,3.2771,3.3031,3.0682,2.9528,2.9316,2.9316,2.9316,2.9316,2.9316,2.9316,2.9316,2.9316,2.9316,2.9316,2.9316,2.959,3.0001,3.0292,3.0686,3.1131,3.1492,3.1595,3.1595,3.1595,3.1595,3.1595,3.1595,3.1595,3.1241,2.9764,2.8794,2.8,2.7165,2.6983,2.6983,2.6983,2.6983,2.6983,2.6983,2.6983,2.6983,2.6983,2.7502,2.7911,2.7911,2.8505,2.8886,2.8886,2.8915,2.9414,3.0554,3.0678,3.1286,3.2752,3.2824,3.2966,3.3299,3.3444,3.3492,3.3492,3.3492,3.3492,3.3492,3.1409,2.9422,2.7568,2.5329,2.3289,2.7324,2.8208,2.8815,2.9251,2.9022,2.9279,3.15,3.1526,3.1418,3.2569,3.2177,3.1876,3.2661,3.3311,3.3764,3.377,3.4179,3.4646,3.5035,3.5257,3.5533,3.5868,3.6141,3.6305,3.6305,3.6709,3.7214,3.7747,3.8304,3.8803,3.9285,3.9308,3.9308,3.9308,3.9308,3.9308,3.9308,3.8708,3.841,3.838,3.7728,3.7404,3.7344,3.5232,3.3214,3.1387,3.2174,3.1277,2.9316,2.9316,2.9316,2.9316,2.9316,2.9316,2.9316,2.9316,2.9316,2.9316,2.9316,2.9761,3.0292,3.0378,3.0891,3.1492,3.1577,3.1595,3.1595,3.1595,3.1595,3.1595,3.1595,3.1595,3.1347,3.0373,2.9604,2.8686,2.7311,2.6983,2.6983,2.6983,2.6983,2.6983,2.6983,2.6983,2.6983,2.6983,2.7502,2.7911,2.7911,2.8505,2.8886,2.8886,2.912,2.9547,3.019,3.043,3.0841,3.1539,3.1595,3.1626,3.1703,3.2865,3.3492,3.3492,3.3492,3.3492,3.3492,3.1409,3.0048,2.9284,2.5884,2.3936,2.7745,2.8877,2.955,3.0078,3.0239,3.0603,3.1679,3.1598,3.1522,3.2308,3.224,3.2207,3.2831,3.3419,3.3879,3.4098,3.4332,3.4618,3.4952,3.5229,3.5505,3.5758,3.6086,3.6305,3.6305,3.6507,3.6989,3.7724,3.8045,3.8527,3.9262,3.9308,3.9308,3.9308,3.9308,3.9308,3.9308,3.8708,3.841,3.838,3.7728,3.7404,3.7344,3.5807,3.3874,3.1785,3.2218,3.1579,3.0228,2.9561,2.9316,2.9316,2.9316,2.9316,2.9316,2.9316,2.9316,2.9316,2.9316,2.9762,3.0395,3.0395,3.0943,3.1595,3.1595,3.1595,3.1595,3.1595,3.1595,3.1595,3.1595,3.1595,3.1418,3.0586,2.9855,2.8974,2.7783,2.7238,2.6983,2.6983,2.6983,2.6983,2.6983,2.6983,2.7042,2.7203,2.7604,2.797,2.8131,2.8739,2.9061,2.89,2.9364,2.9743,3.0047,3.0331,3.0686,3.1167,3.1207,3.1348,3.1718,3.2505,3.2953,3.2953,3.3315,3.3397,3.3279,3.2164,3.0947,2.9588,2.7643,2.5694,2.8042,2.9435,3.0468,3.1525,3.1794,3.1713,3.1548,3.1363,3.1351,3.1829,3.2424,3.2902,3.3085,3.3557,3.4054,3.4441,3.4507,3.4618,3.4869,3.5202,3.5478,3.5698,3.6059,3.6305,3.6305,3.6305,3.6718,3.7701,3.7793,3.8229,3.9239,3.9308,3.9308,3.9308,3.9308,3.9308,3.9308,3.8708,3.841,3.838,3.7728,3.7404,3.7374,3.6258,3.4829,3.3194,3.2136,3.1497,3.1194,2.9837,2.9316,2.9316,2.9316,2.9316,2.9316,2.9316,2.9316,2.9316,2.9316,2.9762,3.0395,3.0395,3.0943,3.1595,3.1595,3.1595,3.1595,3.1595,3.1595,3.1595,3.1595,3.1595,3.1418,3.0764,2.9926,2.9082,2.8274,2.7529,2.6983,2.6983,2.6983,2.6983,2.6983,2.6983,2.71,2.7459,2.7744,2.8043,2.8423,2.8973,2.9237,2.9076,2.9584,2.9924,2.9977,3.0241,3.0535,3.0876,3.0955,3.1278,3.1876,3.2162,3.2274,3.2211,3.3003,3.3295,3.2992,3.2929,3.1844,2.9829,2.9537,2.7529,2.8396,2.9435,3.0468,3.1525,3.1111,3.0787,3.2034,3.1612,3.11,3.156,3.2402,3.3064,3.3103,3.3814,3.4419,3.4485,3.4507,3.4534,3.4562,3.5063,3.5423,3.545,3.595,3.6305,3.6305,3.6305,3.6718,3.7701,3.7793,3.8229,3.9239,3.9308,3.9308,3.9308,3.9308,3.9308,3.9308,3.8708,3.841,3.838,3.7728,3.7404,3.7404,3.7223,3.638,3.4984,3.3674,3.2441,3.1194,2.9837,2.9316,2.9316,2.9316,2.9316,2.9316,2.9316,2.9316,2.9316,2.9316,2.9762,3.0395,3.0395,3.0943,3.1595,3.1595,3.1595,3.1595,3.1595,3.1595,3.1595,3.1595,3.1595,3.1559,3.1453,3.0318,2.9082,2.8274,2.7529,2.6983,2.6983,2.6983,2.6983,2.6983,2.6983,2.71,2.7459,2.7744,2.8131,2.8754,2.89,2.9149,2.9716,2.9848,2.9892,2.9928,2.9958,2.9869,2.9655,3.0012,3.028,3.0404,3.1632,3.2165,3.1853,3.2639,3.304,3.2992,3.2634,3.2166,3.1512,3.0066,2.8163,2.894,2.9458,2.9894,3.21,3.1639,3.0971,3.2212,3.1905,3.1394,3.1553,3.2197,3.2792,3.3054,3.3639,3.4179,3.4441,3.4507,3.4507,3.4507,3.5035,3.5395,3.5395,3.5922,3.6305,3.6305,3.6305,3.6603,3.7311,3.7632,3.8114,3.8872,3.917,3.9308,3.9308,3.9308,3.9308,3.9308,3.8708,3.8231,3.7848,3.7525,3.7404,3.7404,3.7404,3.7102,3.6411,3.432,3.3044,3.2314,3.0163,2.9316,2.9316,2.9316,2.9316,2.9316,2.9316,2.9316,2.9316,2.9316,2.9762,3.0395,3.0395,3.0943,3.1595,3.1595,3.1595,3.1595,3.1595,3.1595,3.1595,3.1595,3.1595,3.1595,3.1595,3.0425,2.919,2.8866,2.7855,2.6983,2.6983,2.6983,2.6983,2.6983,2.6983,2.7159,2.7671,2.7824,2.8145,2.8812,2.9247,2.9511,2.9613,2.995,3.0024,2.9657,2.9628,2.9496,2.912,2.9301,2.9719,3.0411,3.1057,3.1625,3.2134,3.2697,3.2801,3.238,3.2221,3.1967,3.1579,3.0864,2.909,2.9075,2.9366,2.9504,3.2076,3.1754,3.1039,3.1919,3.1681,3.133,3.1425,3.1848,3.2354,3.2835,3.3377,3.3945,3.4419,3.4507,3.4507,3.4507,3.5035,3.5395,3.5395,3.5922,3.6305,3.6305,3.6305,3.6484,3.6961,3.7494,3.8022,3.855,3.9055,3.9308,3.9308,3.9308,3.9308,3.9308,3.8708,3.8058,3.7404,3.7404,3.7404,3.7404,3.7404,3.7223,3.6746,3.4414,3.341,3.3189,3.0422,2.9316,2.9316,2.9316,2.9316,2.9316,2.9316,2.9316,2.9316,2.9316,2.9762,3.0395,3.0395,3.0943,3.1595,3.1595,3.1595,3.1595,3.1595,3.1595,3.1595,3.1595,3.1595,3.1559,3.1347,3.0283,2.919,2.8794,2.7819,2.6983,2.6983,2.6983,2.6983,2.6983,2.6983,2.7203,2.7824,2.7984,2.8262,2.893,2.9555,2.9848,2.9687,3.0024,3.0097,2.9701,2.9511,2.9266,2.9032,2.9213,2.9748,3.0648,3.0976,3.1479,3.2245,3.2555,3.2444,3.1919,3.1824,3.1649,3.1395,3.1395,2.9712,2.8472,2.9114,2.9734,3.0859,3.0698,3.04,3.0951,3.065,3.0416,3.0855,3.1323,3.18,3.2328,3.318,3.3945,3.4419,3.4507,3.4507,3.4507,3.5035,3.5395,3.5395,3.5922,3.6305,3.6305,3.6305,3.6484,3.6961,3.7494,3.8022,3.855,3.9055,3.9308,3.9308,3.9308,3.9308,3.9308,3.8708,3.8058,3.7404,3.7404,3.7404,3.7404,3.7404,3.6716,3.5438,3.4007,3.341,3.3189,3.0422,2.9316,2.9316,2.9316,2.9316,2.9316,2.9316,2.9316,2.9316,2.9316,2.9762,3.0395,3.0395,3.0943,3.1595,3.1595,3.1595,3.1595,3.1595,3.1595,3.1595,3.1595,3.1595,3.1418,3.0657,2.989,2.8902,2.742,2.7071,2.6983,2.6983,2.6983,2.6983,2.6983,2.6983,2.7203,2.7824,2.8174,2.8637,2.9266,2.9687,3.0024,3.0317,3.0097,3.0038,3.0317,2.9774,2.9408,2.9393,3.0145,3.0633,3.0687,3.1747,3.2213,3.1912,3.1967,3.1951,3.1919,3.1586,3.1411,3.1395,3.1395,2.9712,2.8425,2.8609,2.893,3.0606,3.0376,2.9965,3.0816,3.095,3.0807,3.0507,3.1187,3.1852,3.1895,3.2678,3.3486,3.3967,3.4288,3.459,3.4785,3.5174,3.5478,3.5643,3.6032,3.6305,3.6305,3.6305,3.6373,3.653,3.7012,3.7517,3.8045,3.855,3.8987,3.9285,3.9308,3.9101,3.8738,3.85,3.8058,3.7404,3.7404,3.7404,3.7404,3.7404,3.6655,3.5345,3.3976,3.2885,3.1899,3.0065,2.9316,2.9316,2.9316,2.9316,2.9316,2.9316,2.9316,2.9316,2.9316,2.9762,3.0395,3.0395,3.0943,3.1595,3.1595,3.1595,3.1595,3.1595,3.1595,3.1595,3.1595,3.1595,3.1277,2.9997,2.9102,2.8253,2.7202,2.6983,2.6983,2.6983,2.6983,2.6983,2.6983,2.6983,2.7276,2.8101,2.8321,2.8739,2.9628,3.0009,3.0185,3.0082,2.998,2.9862,2.9774,2.9562,2.9468,2.9468,3.0015,3.0444,3.0732,3.1152,3.1441,3.1586,3.1586,3.1586,3.1586,3.1458,3.1395,3.1395,3.1395,3.0419,2.8013,2.8218,2.8561,2.9894,2.9986,2.9828,3.0186,3.0819,3.104,3.0136,3.1042,3.1913,3.1655,3.2416,3.3251,3.3704,3.4179,3.4552,3.4731,3.5118,3.5438,3.5559,3.5999,3.6305,3.6305,3.6305,3.6305,3.6305,3.6736,0.0,3.7747,3.8298,3.8803,3.9285,3.9308,3.9012,3.841,3.841,3.8058,3.7404,3.7404,3.7404,3.7404,3.7404,3.6411,3.4694,3.3788,3.26,3.1194,2.9837,2.9316,2.9316,2.9316,2.9316,2.9316,2.9316,2.9316,2.9316,2.9316,2.9762,3.0395,3.0395,3.0943,3.1595,3.1595,3.1595,3.1595,3.1595,3.1595,3.1595,3.1595,3.1418,3.0958,2.9926,2.8851,2.7964,2.7492,2.7165,2.6983,2.6983,2.6983,2.6983,2.6983,2.6983,2.732,2.8247,2.8394,2.8744,2.9774,3.0185,3.0258,2.9936,2.9906,2.9815,2.9611,2.9561,2.9562,2.9679,3.0105,3.0415,3.0547,3.0856,3.1048,3.1202,3.1318,3.1395,3.1395,3.1395,3.1395,3.1395,3.1522,3.0648,0.0,0.0,0.0,2.87,2.9458,2.9942,2.9038,3.0097,3.0951,2.9767,3.0825,3.1891,3.168,3.2442,3.3251,3.3704,3.4185,3.4421,3.424,3.4895,3.5331,3.5133,3.5821,3.6305,3.6305,3.6305,3.6305,3.6305,3.6736,3.7214,3.7747,3.8298,3.8826,3.9285,3.9308,3.9012,3.841,3.841,3.8058,3.7404,3.7404,3.7404,3.7404,3.7404,3.593,3.341,3.341,3.2568,3.113,2.9837,2.9316,2.9316,2.9316,2.9316,2.9316,2.9316,2.9316,2.9316,2.9316,2.9762,3.0395,3.0395,3.0943,3.1595,3.1595,3.1595,3.1595,3.1595,3.1595,3.1595,3.1595,3.0993,3.0373,3.0373,2.9194,2.8057,2.8057,2.7492,2.6983,2.6983,2.6983,2.6983,2.6983,2.6998,2.7335,2.8247,2.8408,2.8798,2.9789,3.0199,3.0258,2.9936,2.9906,2.9935,2.9967,2.9718,2.9718,3.009,3.0547,3.0624,3.0129,3.0917,3.1202,3.0833,3.118,3.1411,3.1411,3.1395,3.1395,3.1395,3.176,3.0346,2.721,0.0,0.0,0.0,0.0,0.0,2.9602,3.0375,3.0899,3.0221,3.0998,3.1792,3.1895,3.2547,3.3251,3.3704,3.4065,3.4328,3.4472,3.4881,3.5223,3.5382,3.5929,3.6305,3.6305,3.6305,3.6305,0.0,3.6419,3.6902,3.7747,3.8619,3.917,3.9308,3.9308,3.9012,3.841,3.841,3.8058,3.7404,3.7404,3.7404,3.7404,3.7404,3.593,3.341,3.341,3.2046,2.9805,2.943,2.9316,2.9316,2.9316,2.9316,2.9316,2.9316,2.9316,2.9316,2.9316,2.9762,3.0395,3.0395,3.0943,3.1595,3.1595,3.1595,3.1595,3.1595,3.1595,3.1595,3.1595,3.0603,2.9604,2.9604,2.8418,2.7311,2.7311,2.7129,2.6983,2.6983,2.6983,2.6983,2.6983,2.7188,2.7598,2.8291,2.8622,2.912,3.0126,3.0331,3.0258,2.9936,3.0148,3.0166,2.9679,3.0128,3.0508,3.0585,3.101,3.1048,3.0624,3.0817,3.0894,3.0794,3.1129,3.1488,3.1776,3.1522,3.1395,3.1411,3.1999,3.0595,0.0,0.0,0.0,2.8333,0.0,0.0,2.9306,3.0308,3.1085,3.0456,3.1465,3.2336,3.18,3.2395,3.306,3.3346,3.3453,3.3692,3.4227,3.4561,3.4877,3.5168,3.5657,3.6075,3.6282,3.6305,3.6305,3.6305,3.6305,3.6796,3.7945,3.896,3.9514,3.9514,3.9514,3.9131,3.841,3.841,3.8058,3.7404,3.7404,3.7404,3.7404,3.7404,3.593,3.341,3.341,3.1854,2.9316,2.9316,2.9316,2.9316,2.9316,2.9316,2.9316,2.9316,2.9316,2.9316,2.9316,2.9762,3.0395,3.0395,3.0943,3.1595,3.1595,3.1595,3.1595,3.1595,3.1595,3.1595,3.1595,3.0922,3.0176,2.9855,2.8851,2.7855,2.7529,2.7202,2.6983,2.6983,2.6983,2.6983,2.6983,2.7261,2.77,2.8306,2.8554,2.9105,3.0243,3.0273,3.0111,2.9921,3.0269,3.0296,2.9778,3.0392,3.0856,3.1048,3.1125,3.0971,3.0547,3.0492,3.0431,3.0276,3.081,3.1371,3.1919,3.1856,3.1887,3.2086,3.2459,3.13,0.0,0.0,0.0,0.0,2.886,0.0,2.8737,3.0125,3.1314,3.0526,3.1929,3.2876,3.1612,3.2088,3.2686,3.2753,3.2587,3.2788,3.3746,3.4091,3.4357,3.4621,3.5152,3.5703,3.6167,3.6259,3.6305,3.6305,3.6378,3.6975,3.8222,3.9198,3.9755,3.9802,3.9773,3.9361,3.8559,3.844,3.8088,3.7495,3.7435,3.7404,3.7404,3.7404,3.6043,3.3599,3.3473,3.1918,2.9495,2.9364,2.9316,2.9316,2.9316,2.9316,2.9316,2.9316,2.9316,2.9316,2.9316,2.9762,3.0395,3.0395,3.0943,3.1595,3.1595,3.1595,3.1595,3.1595,3.1595,3.1595,3.1595,3.1524,3.1277,3.048,2.9712,2.8938,2.813,2.7456,2.6983,2.6983,2.6983,2.6983,2.6983,2.7291,2.773,2.8262,2.8437,2.8973,3.0185,3.0111,2.995,2.9947,3.0309,3.0455,3.019,3.0624,3.101,3.1395,3.101,3.0585,3.0129,3.0052,2.9873,2.9484,3.043,3.1285,3.2094,3.2301,3.2602,3.2992,3.2992,3.2232,0.0,0.0,0.0,0.0,0.0,0.0,2.9804,3.0193,3.056,3.0811,3.1059,3.1324,3.1858,3.1932,3.2029,3.2406,3.2297,3.2519,3.354,3.3908,3.3928,3.3637,3.4716,3.5539,3.5657,3.6052,3.6305,3.6305,3.6887,3.7535,3.8194,3.8826,3.936,3.9802,3.9537,3.9455,3.9544,3.8775,3.832,3.8096,3.7616,3.7404,3.7404,3.7404,3.6533,3.4943,3.3882,3.2441,3.0839,2.9757,2.9316,2.9316,2.9316,2.9316,2.9316,2.9316,2.9316,2.9316,2.9316,2.9762,3.0395,3.0395,3.0943,3.1595,3.1595,3.1595,3.1595,3.1595,3.1595,3.1595,3.1595,3.1135,3.0444,2.9676,2.8887,2.813,2.7384,2.7093,2.6983,2.6983,2.6983,2.6983,2.6983,2.7466,2.7868,2.7984,2.8695,2.9423,2.9936,3.017,3.0321,3.0394,3.0751,3.0877,3.0686,3.1048,3.1318,3.1395,3.101,3.0585,3.0129,2.9795,2.9562,2.9484,3.0875,3.214,3.3174,3.2666,3.2602,3.2992,3.2992,3.2232,0.0,0.0,0.0,2.9022,0.0,0.0,0.0,3.0239,3.0698,3.0927,3.1292,3.1516,3.1371,3.1552,3.1752,3.1901,3.1689,3.1862,3.274,3.344,3.4072,3.458,3.504,3.5455,3.5709,3.583,3.6002,3.6282,3.7035,3.7734,3.8222,3.8995,3.9596,3.9989,3.9984,3.9779,3.9315,3.8812,3.8358,3.7856,3.7525,3.7404,3.7404,3.7404,3.6319,3.4383,3.3694,3.2237,3.0242,2.9593,2.9316,2.9316,2.9316,2.9316,2.9316,2.9316,2.9316,2.9316,2.9316,2.9762,3.0395,3.0395,3.0943,3.1595,3.1595,3.1595,3.1595,3.1595,3.1595,3.1595,3.1595,3.1312,3.0693,2.9568,2.901,2.8398,2.7238,2.6983,2.6983,2.6983,2.6983,2.6983,2.6983,2.7488,2.7911,2.7911,2.8769,2.954,2.9862,3.0053,3.0259,3.0459,3.072,3.0851,3.0786,3.1164,3.1395,3.1395,3.0801,3.0338,3.009,2.9523,2.9481,3.0091,3.1011,3.2096,3.3263,3.3031,3.3031,3.3263,3.3263,3.2852,0.0,0.0,0.0,0.0,0.0,2.9642,0.0,0.0,0.0,3.0835,3.1502,3.1752,3.0717,3.104,3.1455,3.1332,3.1133,3.1298,3.2134,3.2998,3.3957,3.5049,3.4953,3.4976,3.5419,3.5459,3.5692,3.634,3.7025,3.7654,3.8195,3.9137,3.9798,4.0145,4.0403,4.0071,3.9078,3.8901,3.8395,3.7555,3.7465,3.7404,3.7404,3.7404,3.6084,3.3788,3.3505,3.1982,2.9659,2.9414,2.9316,2.9316,2.9316,2.9316,2.9316,2.9316,2.9316,2.9316,2.9316,2.9762,3.0395,3.0395,3.0943,3.1595,3.1595,3.1595,3.1595,3.1595,3.1595,3.1595,3.1595,3.1595,3.1206,2.9692,2.9298,2.8866,2.7311,2.6983,2.6983,2.6983,2.6983,2.7013,2.7071,2.7531,2.7926,2.7999,2.8812,2.954,2.9862,2.9906,3.0068,3.0445,3.0569,3.0667,3.0771,3.1164,3.1356,3.1279,3.0531,3.0052,2.9989,2.9275,2.9438,3.0569,3.0984,3.1762,3.2871,3.3277,3.3492,3.3492,3.3492,3.3492,0.0,0.0,0.0,0.0,3.0078,0.0,0.0,0.0,3.0285,3.0285,0.0,3.0423,3.0285,0.0,0.0,3.0996,3.1019,3.1434,3.2646,3.2912,3.2794,3.2254,3.291,3.3449,3.352,3.4509,3.5561,3.6565,3.6947,3.7367,3.7911,3.8507,3.9165,3.9917,3.9924,3.9954,4.0048,3.9226,3.8604,3.8186,3.7646,3.7404,3.7404,3.7404,3.6594,3.5098,3.3913,3.2505,3.0968,2.9789,2.9316,2.9316,2.9316,2.9316,2.9316,2.9316,2.9316,2.9316,2.9316,2.9762,3.0395,3.0395,3.0943,3.1595,3.1595,3.1595,3.1595,3.1595,3.1595,3.1595,3.1595,3.1595,3.1206,2.9692,2.9298,2.8866,2.7311,2.6983,2.6983,2.6983,2.6983,2.7086,2.7378,2.7715,2.8014,2.8306,2.8944,2.954,2.9862,2.9906,3.0068,3.0445,3.0569,3.0667,3.0771,3.1164,3.1241,3.0894,3.0376,2.9935,2.9562,2.9134,2.9282,3.015,3.084,3.1601,3.2386,3.3138,3.3492,3.3492,3.3492,3.3492,0.0,0.0,0.0,0.0,0.0,0.0,3.0652,0.0,3.0193,0.0,0.0,0.0,0.0,0.0,0.0,0.0,3.0989,3.1376,3.19,3.1965,3.2248,3.2983,3.3314,3.3668,3.4086,3.4186,3.4804,3.6177,3.6537,3.6851,3.7181,3.8303,3.9212,3.9755,4.0059,4.0121,3.9976,3.9311,3.8701,3.8185,3.7657,3.7404,3.7374,3.6594,3.593,3.5283,3.3138,3.1867,3.1194,2.9837,2.9316,2.9316,2.9316,2.9316,2.9316,2.9316,2.9316,2.9316,2.9316,2.9762,3.0463,3.0943,3.1337,3.1595,3.1595,3.1595,3.1595,3.1595,3.1595,3.1595,3.1595,3.1595,3.1206,2.9692,2.9298,2.8866,2.7311,2.6983,2.6983,2.6983,2.6983,2.7159,2.7671,2.7824,2.8028,2.835,2.8973,2.954,2.9862,2.9731,2.9941,3.0776,3.0505,3.053,3.1103,3.1318,3.1241,3.0833,3.0159,2.9562,2.9173,2.9003,2.9296,3.0071,3.084,3.1561,3.2305,3.3113,3.3492,3.3492,3.3492,3.3492,3.0971,0.0,0.0,0.0,0.0,0.0,0.0,0.0,0.0,0.0,0.0,0.0,0.0,0.0,0.0,0.0,0.0,3.1342,3.1508,3.1233,3.1547,3.3053,3.3314,3.3286,0.0,3.3269,3.3828,3.4857,3.5455,3.5942,3.6348,3.7954,3.8939,3.9169,3.995,4.0106,3.9613,3.9254,3.8739,3.8095,3.7614,3.7404,3.7344,3.5992,3.5407,3.5253,3.2486,3.1322,3.1194,2.9837,2.9316,2.9316,2.9316,2.9316,2.9316,2.9316,2.9316,2.9316,2.9316,2.9762,3.0498,3.12,3.1526,3.1595,3.1595,3.1595,3.1595,3.1595,3.1595,3.1595,3.1595,3.1595,3.1206,2.9692,2.9298,2.8866,2.7311,2.6983,2.6983,2.6983,2.6983,2.7188,2.7794,2.7911,2.8043,2.8467,2.8944,2.9393,2.9731,2.9481,2.9646,3.0705,3.0362,3.0415,3.1164,3.1241,3.101,3.0469,2.9756,2.9212,2.8886,2.8886,2.9159,2.9779,3.0699,3.145,3.2003,3.3025,3.3492,3.3492,3.3492,3.3492,0.0,0.0,0.0,3.1041,0.0,0.0,0.0,0.0,3.0193,0.0,0.0,0.0,0.0,0.0,0.0,0.0,0.0,0.0,0.0,3.0993,3.0442,3.0941,3.1901,3.147,2.8769,3.1196,3.2727,0.0,3.3443,3.457,3.5493,3.7243,3.8104,3.7867,3.9256,3.9734,3.9128,3.9128,3.8739,3.8095,3.7614,3.7404,3.7344,3.5992,3.5407,3.5253,3.2486,3.1322,3.1194,2.9837,2.9316,2.9316,2.9316,2.9316,2.9316,2.9316,2.9316,2.9316,2.9316,2.9762,3.0463,3.0874,3.1268,3.1595,3.1595,3.1595,3.1595,3.1595,3.1595,3.1595,3.1595,3.1595,3.1206,2.9692,2.9298,2.8866,2.7311,2.6983,2.6983,2.6983,2.6983,2.7188,2.7794,2.7911,2.8131,2.8783,2.89,2.9017,2.9393,2.9105,2.9189,2.9962,3.007,3.0299,3.0778,3.0833,3.0431,2.9601,2.9134,2.8886,2.8886,2.8886,2.89,2.8939,3.0419,3.1207,3.1222,3.2736,3.3492,3.3492,3.3492,3.3492,0.0,0.0,3.1942,3.2393,0.0,0.0,0.0,0.0,0.0,0.0,0.0,0.0,0.0,0.0,0.0,0.0,0.0,0.0,0.0,2.9783,2.824,2.7022,2.7955,2.8687,2.8594,2.9685,0.0,0.0,3.2263,0.0,3.2675,3.521,3.6693,3.6675,3.8245,3.9196,3.9434,3.9094,3.8816,3.8544,3.7767,3.7404,3.7344,3.5992,3.5869,3.6533,3.2898,3.1835,3.2505,3.0228,2.9316,2.9316,2.9316,2.9316,2.9316,2.9316,2.9316,2.935,2.9607,3.0018,3.0463,3.0857,3.1268,3.1595,3.1595,3.1595,3.1595,3.1595,3.1595,3.1595,3.1595,3.1595,3.1312,3.0266,2.964,2.901,2.7964,2.7347,2.6983,2.6983,2.6983,2.7188,2.7794,2.7911,2.8131,2.8798,2.8886,2.9003,2.9379,2.909,2.9291,3.0287,3.0226,3.0415,3.1125,3.0686,3.0105,2.9523,2.9134,2.8886,2.8886,2.8886,2.9017,2.929,3.0261,3.1007,3.1591,3.2573,3.3189,3.3492,3.3492,3.3492,3.1908,3.2259,0.0,3.3047,3.2876,0.0,3.2766,0.0,0.0,0.0,0.0,0.0,0.0,0.0,0.0,0.0,0.0,0.0,0.0,2.7983,2.616,2.4479,2.6114,2.7317,2.7102,2.8486,2.9419,2.9501,3.0858,3.175,0.0,3.3886,3.5324,3.5757,3.7443,3.8653,3.9328,3.8816,3.8632,3.8784,3.7833,3.7404,3.7344,3.5992,3.6135,3.7193,3.3087,3.2091,3.3189,3.0422,2.9316,2.9316,2.9316,2.9316,2.9316,2.9316,2.9316,2.935,2.9607,3.0018,3.0429,3.0686,3.1148,3.1595,3.1595,3.1595,3.1629,3.173,3.1697,3.1629,3.1766,3.1697,3.1418,3.0586,2.9855,2.9082,2.8274,2.7529,2.6983,2.6983,2.6983,2.7188,2.7794,2.7911,2.8131,2.8798,2.8886,2.8973,2.9178,2.9017,2.9286,3.0317,3.0227,3.0322,3.0879,3.0415,2.9858,2.9329,2.9042,2.8886,2.8886,2.9042,2.9232,2.9468,3.0321,3.1107,3.1777,3.2472,3.3025,3.3492,3.3492,3.3492]}]]